     2              OBSERVATION DATA    GPS                 RINEX VERSION / TYPE
teqc 2000Jul20 Karen Wendt 20040128 23:26:22UTC             PGM / RUN BY / DATE
                                                            COMMENT
L2: 1 -> 1; 150 -> 5; 250 -> 9                              COMMENT
L2: 1 -> 1; 150 -> 5; 250 -> 9                              COMMENT
L2: 1 -> 1; 150 -> 5; 250 -> 9                              COMMENT
L2: 1 -> 1; 150 -> 5; 250 -> 9                              COMMENT
L2: 1 -> 1; 150 -> 5; 250 -> 9                              COMMENT
L2: 1 -> 1; 150 -> 5; 250 -> 9                              COMMENT
L2: 1 -> 1; 150 -> 5; 250 -> 9                              COMMENT
L2: 1 -> 1; 150 -> 5; 250 -> 9                              COMMENT
L2: 1 -> 1; 150 -> 5; 250 -> 9                              COMMENT
L2: 1 -> 1; 150 -> 5; 250 -> 9                              COMMENT
L2: 1 -> 1; 150 -> 5; 250 -> 9                              COMMENT
L2: 1 -> 1; 150 -> 5; 250 -> 9                              COMMENT
L2: 1 -> 1; 150 -> 5; 250 -> 9                              COMMENT
L2: 1 -> 1; 150 -> 5; 250 -> 9                              COMMENT
Original Marker Name: 2069 2069_smtpd_SLO_101_PM_5229_05LL_1COMMENT
Campaign Name: USGS San Simeon 2003-2004                    COMMENT
4-Character Station Name: 2069                              COMMENT
6-Character Antenna Code: DMRCHT                            COMMENT
Vertical Measurement Point: BCR                             COMMENT
Vertical Offset to Rinex Ref. Point: 0.0348                 COMMENT
Radial Measurement Point: ECF                               COMMENT
Radial Offset to Rinex Ref. Point: 0.1897                   COMMENT
Antenna Height from Field Measurement: 1.4980 m             COMMENT
Additional Antenna Identification Info.:                    COMMENT
Turborogue and Ashtech Choke Ring                           COMMENT
Original XYZ: -2652417.4495 -4466127.9588 3689199.5208      COMMENT
New XYZ position is based on association with SCEC monument COMMENT
E1F1B1O7+0011. Position of that monument is believed to be  COMMENT
valid to within 1 m horizontally; vertical accuracy         COMMENT
should be no worse than 3-times this value.                 COMMENT
                                                            COMMENT
Revised Rinex header created by UCSD GPS archive for        COMMENT
GSAC on 20-Apr-2005 (2005:110) 16:30:43 GMT                 COMMENT
For assistance contact dagnew@ucsd.edu                      COMMENT
or anderson@python.ucsd.edu                                 COMMENT
                                                            COMMENT
S101 01 PM 5229 0566 1993                                   MARKER NAME
CHS US GEOLOGICAL SURVEY                                    OBSERVER / AGENCY
LP019992809 ASHTECH Z-XII3 CD00                             REC # / TYPE / VERS
CR619992805 DORNE-MARGOL. TYPE T                            ANT # / TYPE
 -2652433.0000 -4466104.0000  3689192.0000                  APPROX POSITION XYZ
        1.4511        0.0000        0.0000                  ANTENNA: DELTA H/E/N
     1     1     0                                          WAVELENGTH FACT L1/2
     5    C1    L1    L2    P1    P2                        # / TYPES OF OBSERV
    30                                                      INTERVAL
  2004     1    25     0     0   30.000000                  TIME OF FIRST OBS
  2004     1    25    23    59   30.000000                  TIME OF LAST OBS
                                                            END OF HEADER
 04  1 25  0  0 30.0000000  0  8G10G30G18G21G 6G 5G29G17
  21757596.309   -13045682.28149  -9894594.65147  21757595.180    21757602.011
  21077313.563   -12742106.07049  -9917264.15048  21077313.499
  21077319.359    -2497633.05549  -1072691.42143
  22063576.422   -10347146.55049  -7600422.40347  22063575.585    22063581.077
  20608367.023   -15988651.03449 -12249496.95248  20608366.575    20608372.881
  23597988.266    -2286303.39449  -1746069.08645  23597987.523    23597995.111
  23960639.319    -2019074.52148  -1214227.68144  23960638.315    23960644.645
  21783922.119   -10400612.94249  -8088085.89047  21783921.245    21783928.329
 04  1 25  0  1  0.0000000  0  8G10G30G18G21G 6G 5G29G17
  21770387.025   -12978466.31149  -9842218.57747  21770385.975    21770392.850
  21090493.326   -12672845.93749  -9863295.22148  21090493.255
  21090499.101    -2606780.89849  -1157704.63643
  22052666.590   -10404477.28349  -7645095.64947  22052665.807    22052671.255
  20602141.081   -16021368.49549 -12274991.04748  20602140.605    20602146.919
  23618352.504    -2179289.52649  -1662681.70745  23618351.585    23618359.067
  23948705.555    -2081784.49849  -1263092.43144  23948704.916    23948712.482
  21794626.696   -10344359.79649  -8044252.27747  21794625.845    21794632.975
 04  1 25  0  1 30.0000000  0  9G10G30G18G26G21G 6G 5G29G17
  21783267.966   -12910777.03049  -9789473.68447  21783266.878    21783273.719
  21103757.669   -12603141.30049  -9808979.92848  21103757.603
  21103763.467    -2715828.57949   -961712.27243
                  -1243950.561 9   1159315.599 1
  22041799.001   -10461586.98849  -7689596.66847  22041798.171    22041803.553
  20595970.502   -16053794.90149 -12300258.35048  20595970.027    20595976.385
  23638733.652    -2072186.37449  -1579224.75845  23638732.756    23638739.997
  23936817.950    -2144254.36849  -1311770.06445  23936817.185    23936825.677
  21805358.955   -10287960.97249  -8000305.13847  21805358.135    21805365.331
 04  1 25  0  2  0.0000000  0  9G10G30G18G26G21G 6G 5G29G17
  21796238.242   -12842617.69249  -9736362.51147  21796237.159    21796244.056
  21117105.968   -12532995.07049  -9754320.52848  21117105.932
  21117111.852    -2824773.84149  -1046640.32843
                  -1332567.40549   -992485.37543
  22030973.401   -10518476.17649  -7733925.85547  22030972.495    22030977.829
  20589855.495   -16085929.21649 -12325298.04448  20589855.010    20589861.376
  23659131.123    -1964997.18949  -1495700.76645  23659130.266    23659137.625
  23924976.348    -2206481.98449  -1360258.94845  23924975.694    23924984.303
  21816118.620   -10231418.25249  -7956245.88047  21816117.776    21816125.073
 04  1 25  0  2 30.0000000  0  8G10G30G18G21G 6G 5G29G17
  21809296.692   -12773994.80649  -9682890.13447  21809295.629    21809302.615
  21130537.121   -12462413.92749  -9699322.24647  21130537.074
  21130543.011    -2933618.12649  -1131522.84243
  22020188.799   -10575148.94049  -7778086.39447  22020187.991    22020193.303
  20583795.630   -16117773.92949 -12350112.07748  20583795.165    20583801.461
  23679543.735    -1857728.35849  -1412114.71945  23679542.754    23679550.102
  23913180.943    -2268468.26249  -1408559.78044  23913180.300    23913188.757
  21826904.600   -10174736.70149  -7912078.44247  21826903.799    21826911.200
 04  1 25  0  3  0.0000000  0  9G10G30G18G26G21G 6G 5G29G17
  21822443.885   -12704905.77049  -9629054.52647  21822442.847    21822449.808
  21144051.571   -12391394.90349  -9643982.76047  21144051.508
  21144057.513    -3042354.03549   -937500.86343
                  -1509545.97549  -1130390.83444  24040213.327
  22009446.456   -10631599.89349  -7822074.09247  22009445.718    22009451.001
  20577792.282   -16149322.21949 -12374695.13748  20577791.781    20577797.961
  23699971.799    -1750377.45049  -1328464.75445  23699970.861    23699978.335
  23901432.197    -2330204.84049  -1456666.00444  23901431.545    23901440.642
  21837717.841   -10117912.00049  -7867799.45547  21837717.083    21837724.533
 04  1 25  0  3 30.0000000  0  9G10G30G18G26G21G 6G 5G29G17
  21835678.321   -12635358.57649  -9574861.90647  21835677.225    21835684.227
  21157647.822   -12319945.78949  -9588308.14347  21157647.755
  21157653.857    -3150984.45249  -1022210.89043
  24023381.789    -1597901.14249  -1199238.94045  24023380.080    24023390.665
  21998745.390   -10687834.66749  -7865893.34547  21998744.566    21998749.839
  20571844.510   -16180577.91049 -12399050.19548  20571843.979    20571850.146
  23720414.066    -1642951.93549  -1244756.61545  23720413.379    23720420.782
  23889730.783    -2391694.21449  -1504579.64544  23889730.055    23889739.219
  21848557.161   -10060950.72049  -7823414.04447  21848556.379    21848563.867
 04  1 25  0  4  0.0000000  0  9G10G30G18G26G21G 6G 5G29G17
  21849000.320   -12565350.39249  -9520310.07347  21848999.253    21849006.339
  21171326.361   -12248063.75149  -9532296.17347  21171326.376
  21171332.549    -3259502.31949  -1106871.96143
  24006586.108    -1686158.77349  -1268010.88545  24006584.387    24006595.225
  21988086.338   -10743848.06949  -7909540.09647  21988085.535    21988090.796
  20565953.627   -16211534.17849 -12423171.93648  20565953.127    20565959.327
  23740871.067    -1535449.49449  -1160988.53545  23740870.307    23740877.734
  23878078.201    -2452928.42549  -1552294.46345  23878077.521    23878087.176
  21859423.336   -10003848.34949  -7778918.69347  21859422.547    21859430.096
 04  1 25  0  4 30.0000000  0  9G10G30G18G26G21G 6G 5G29G17
  21862408.900   -12494887.34849  -9465403.79847  21862407.890    21862415.057
  21185086.252   -12175754.68949  -9475951.46447  21185086.260
  21185092.532    -3367907.79549   -911680.25043
  23989809.080    -1774318.63249  -1336706.69045  23989806.275    23989819.390
  21977468.770   -10799643.40849  -7953016.93647  21977468.005    21977473.236
  20560119.455   -16242192.80349 -12447061.75048  20560118.976    20560125.153
  23761341.363    -1427876.09749  -1077165.12944  23761340.547    23761348.382
  23866473.823    -2513907.84949  -1599810.78645  23866473.344    23866483.247
  21870315.478    -9946609.51849  -7734317.00647  21870314.666    21870322.278
 04  1 25  0  5  0.0000000  0  9G10G30G18G26G21G 6G 5G29G17
  21875904.048   -12423969.39149  -9410143.05247  21875903.038    21875910.253
  21198927.472   -12103018.38549  -9419273.83847  21198927.458
  21198933.811    -3476196.32949   -996061.65443
  23973050.187    -1862374.43549  -1405321.46344  23973046.526    23973061.086
  21966893.386   -10855217.74049  -7996321.55047  21966892.577    21966897.772
  20554342.758   -16272549.36049 -12470716.18448  20554342.275    20554348.461
  23781825.658    -1320231.47249   -993286.29544  23781824.606    23781832.388
  23854919.411    -2574626.70749  -1647124.05745  23854918.884    23854928.745
  21881233.892    -9889232.59749  -7689607.71547  21881233.068    21881240.734
 04  1 25  0  5 30.0000000  0  9G10G30G18G26G21G 6G 5G29G17
  21889484.554   -12352602.55849  -9354532.52647  21889483.576    21889490.871
  21212848.836   -12029860.82449  -9362267.96847  21212848.811
  21212855.222    -3584369.06149  -1080353.00043
  23956313.415    -1950326.62749  -1473855.18744  23956310.528    23956320.883
  21956359.248   -10910574.90749  -8039456.95947  21956358.429    21956363.639
  20548623.172   -16302605.90249 -12494136.84848  20548622.714    20548628.885
  23802322.466    -1212521.99349   -909356.87744  23802321.265    23802328.621
  23843414.106    -2635085.88249  -1694234.97745  23843413.749    23843423.342
  21892177.698    -9831721.91549  -7644794.20347  21892176.902    21892184.610
 04  1 25  0  6  0.0000000  0  9G10G30G18G26G21G 6G 5G29G17
  21903150.547   -12280787.20649  -9298572.51047  21903149.555    21903156.920
  21226850.275   -11956282.41249  -9304934.16247  21226850.247
  21226856.740    -3692421.60749   -885742.05743
  23939597.868    -2038169.46949  -1542303.75544  23939595.660    23939603.679
  21945866.885   -10965713.00249  -8082421.65747  21945865.973    21945871.195
  20542961.436   -16332358.69349 -12517320.81648  20542960.964    20542967.098
  23822831.099    -1104748.05349   -825377.22844  23822830.207    23822836.293
  23831959.534    -2695280.08349  -1741139.41145  23831959.078    23831968.320
  21903147.115    -9774076.60849  -7599875.78347  21903146.328    21903154.077
 04  1 25  0  6 30.0000000  0  9G10G30G18G26G21G 6G 5G29G17
  21916901.608   -12208524.86949  -9242264.19547  21916900.596    21916908.011
  21240931.685   -11882284.53849  -9247273.50447  21240931.599
  21240938.070    -3800350.50549   -969841.91243
  23922903.490    -2125898.21949  -1610663.57044  23922901.621    23922910.364
  21935416.153   -11020631.10749  -8125214.94947  21935415.378    21935420.610
  20537358.022   -16361804.93649 -12540265.92048  20537357.523    20537363.638
  23843352.014     -996911.03249   -741348.43844  23843351.293    23843356.489
  23820555.876    -2755205.26949  -1787834.25945  23820555.633    23820564.372
  21914142.204    -9716296.31649  -7554852.18447  21914141.466    21914149.227
 04  1 25  0  7  0.0000000  0  9G10G30G18G26G21G 6G 5G29G17
  21930736.915   -12135819.50949  -9185610.66747  21930735.927    21930743.356
  21255092.074   -11807870.95049  -9189288.90847  21255092.036
  21255098.508    -3908154.38749  -1053844.50644  23838322.881
  23906229.854    -2213510.58649  -1678932.80544  23906228.534    23906238.174
  21925007.288   -11075330.30249  -8167837.65547  21925006.474    21925011.619
  20531812.953   -16390944.40849 -12562971.98248  20531812.442    20531818.553
  23863884.079     -889014.57749   -657273.27544  23863883.657    23863887.499
  23809203.770    -2814859.97849  -1834318.38545  23809203.612    23809212.192
  21925162.626    -9658383.59549  -7509725.39347  21925161.906    21925169.572
 04  1 25  0  7 30.0000000  0  9G10G30G18G26G21G 6G 5G29G17
  21944655.825   -12062675.53649  -9128615.35947  21944654.762    21944662.160
  21269330.783   -11733045.87049  -9130983.66647  21269330.769    21269337.220
  23817821.583    -4015832.63549  -1137749.32744  23817817.068    23817826.402
  23889579.967    -2301004.83049  -1747109.85744  23889579.116    23889587.525
  21914639.793   -11129812.21749  -8210291.04347  21914638.921    21914644.031
  20526326.232   -16419777.09749 -12585438.98748  20526325.730    20526331.876
  23884426.296     -781063.07849   -573155.27344  23884426.085    23884429.678
  23797903.249    -2874242.81749  -1880590.66345  23797903.245    23797911.854
  21936207.990    -9600340.61649  -7464497.09747  21936207.190    21936214.768
 04  1 25  0  8  0.0000000  0  9G10G30G18G26G21G 6G 5G29G17
  21958658.868   -11989088.81449  -9071275.06547  21958657.758    21958665.309
  21283648.536   -11657805.44149  -9072354.78047  21283648.567    21283654.969
                  -1131210.68149   -856752.98643
  23872955.458    -2388371.12949  -1815187.12544  23872954.446    23872960.942
  21904314.612   -11184070.78749  -8252570.40447  21904313.759    21904318.897
  20520899.449   -16448295.13849 -12607660.82048  20520898.947    20520905.054
  23904980.004     -673052.61349   -488991.29344  23904979.649    23904983.208
  23786656.774    -2933344.51449  -1926643.85845  23786656.300    23786664.789
  21947279.003    -9542162.38749  -7419163.41547  21947278.215    21947285.692
 04  1 25  0  8 30.0000000  0  8G10G30G26G21G 6G 5G29G17
  21972744.744   -11915066.65749  -9013595.46647  21972743.696    21972751.211
  21298044.044   -11582156.48849  -9013407.56547  21298044.091    21298050.449
  23856354.179    -2475610.08348  -1883165.20144  23856353.424    23856359.674
  21894031.051   -11238110.72849  -8294679.40947  21894030.258    21894035.415
  20515531.989   -16476501.24249 -12629639.58748  20515531.473    20515537.582
  23925543.603     -564989.67649   -404786.41344  23925543.083    23925547.039
  23775463.040    -2992166.55249  -1972479.10845  23775462.821    23775470.795
  21958374.877    -9483853.99349  -7373728.30047  21958373.994    21958381.421
 04  1 25  0  9  0.0000000  0  9G10G30G18G26G21G 6G 5G29G17
  21986912.639   -11840613.59649  -8955580.09147  21986911.548    21986919.120
  21312516.510   -11506103.49049  -8954145.50147  21312516.542    21312522.861
                  -1143906.08749   -862454.05043
  23839775.415    -2562719.87849  -1951042.95944  23839775.138    23839785.012
  21883789.012   -11291932.81249  -8336618.65447  21883788.239    21883793.404
  20510223.830   -16504395.49449 -12651375.34748  20510223.338    20510229.466
  23946116.433     -456879.14749   -320544.48344  23946115.380    23946120.110
  23764322.436    -3050707.90249  -2018095.62845  23764322.383    23764330.490
  21969494.915    -9425418.36049  -7328194.03947  21969493.996    21969501.354
 04  1 25  0  9 30.0000000  0  9G10G30G18G26G21G 6G 5G29G17
  22001161.536   -11765734.74149  -8897232.94547  22001160.543    22001168.123
  21327064.857   -11429651.46149  -8894572.51847  21327064.870    21327071.158
                  -1251051.42649   -945945.39843
  23823224.246    -2649699.99449  -2018819.50245  23823223.724    23823233.290
  21873587.807   -11345540.41849  -8378390.76647  21873587.011    21873592.164
  20504974.828   -16531979.00949 -12672868.98048  20504974.322    20504980.476
  23966697.546     -348725.87649   -236269.27444  23966695.733    23966701.742
  23753235.176    -3108968.08549  -2063493.10145  23753235.289    23753243.822
  21980638.493    -9366858.75749  -7282563.18147  21980637.551    21980644.882
 04  1 25  0 10  0.0000000  0  9G10G30G18G26G21G 6G 5G29G17
  22015491.476   -11690430.55049  -8838554.35747  22015490.463    22015498.078
  21341689.120   -11352800.96749  -8834689.03447  21341689.056    21341695.320
                  -1358059.56249  -1029329.72343
  23806699.014    -2736544.56849  -2086490.36945  23806698.563    23806707.134
  21863427.934   -11398930.54449  -8419993.42247  21863427.134    21863432.315
  20499785.685   -16559247.88849 -12694117.43948  20499785.184    20499791.369
  23987286.960     -240530.33849   -151961.14044  23987284.988    23987291.519
  23742202.360    -3166942.12549  -2108667.62645  23742202.617    23742211.484
  21991805.725    -9308174.17449  -7236834.92647  21991804.900    21991812.217
 04  1 25  0 10 30.0000000  0  9G10G30G18G26G21G 6G 5G29G17
  22029902.088   -11614702.80349  -8779545.72447  22029901.007    22029908.574
  21356388.873   -11275553.62049  -8774496.31347  21356388.780    21356394.988
                  -1464927.05849  -1112602.92644  23695419.244
  23790199.505    -2823249.00349  -2154052.01244  23790198.710    23790206.473
  21853309.365   -11452103.37949  -8461426.76247  21853308.619    21853313.855
  20494656.885   -16586199.64949 -12715118.78848  20494656.385    20494662.628
  24007883.260     -132294.45348    -67621.53844  24007881.330    24007888.463
  23731225.247    -3224626.43349  -2153616.34845  23731225.754    23731234.540
  22002996.942    -9249364.26049  -7191009.01347  22002996.063    22003003.361
 04  1 25  0 11  0.0000000  0  9G10G30G18G26G21G 6G 5G29G17
  22044392.714   -11538554.23849  -8720209.18647  22044391.695    22044399.202
  21371163.666   -11197911.91049  -8713996.29747  21371163.541    21371169.706
  23675104.428    -1571651.60549  -1195764.72645  23675103.806
  23773725.703    -2909809.61149  -2221501.79144  23773725.064    23773733.296
  21843232.256   -11505058.61649  -8502690.54747  21843231.516    21843236.781
  20489588.653   -16612832.89849 -12735871.94648  20489588.193    20489594.498
  24028486.822      -24020.35148     16747.80344  24028486.132    24028493.264
  23720304.427    -3282018.15149  -2198337.06045  23720304.674    23720313.489
  22014211.591    -9190430.39049  -7145086.52647  22014210.769    22014218.115
 04  1 25  0 11 30.0000000  0  9G10G30G18G26G21G 6G 5G29G17
  22058962.420   -11461990.63349  -8660549.24147  22058961.329    22058968.769
  21386012.321   -11119881.67149  -8653193.53547  21386012.192    21386018.352
  23654822.599    -1678233.76449  -1278815.56045  23654821.338    23654827.187
  23757282.328    -2996226.18749  -2288839.26944  23757281.743    23757287.627
  21833195.996   -11557799.51749  -8543787.31347  21833195.223    21833200.473
  20484580.898   -16639148.86549 -12756377.87448  20484580.420    20484586.722
  24049097.036       84286.25749    101142.51144  24049096.694    24049103.897
  23709439.154    -3339117.08849  -2242829.62845  23709439.286    23709448.250
  22025449.169    -9131376.47349  -7099070.49247  22025448.389    22025455.730
 04  1 25  0 12  0.0000000  0  9G10G30G18G26G21G 6G 5G29G17
  22073611.128   -11385011.64149  -8600565.60847  22073610.018    22073617.254
  21400934.985   -11041462.28849  -8592087.54747  21400934.881    21400941.071
  23634568.717    -1784668.10949  -1361751.24745  23634567.689    23634573.272
  23740867.167    -3082491.90749  -2356059.08845  23740866.440    23740871.493
  21823201.071   -11610323.31549  -8584714.90947  21823200.313    21823205.486
  20479634.372   -16665142.94249 -12776632.98148  20479633.885    20479640.184
  24069713.928      192625.89049    185562.92844  24069713.603    24069720.905
  23698630.396    -3395917.62149  -2287089.66245  23698630.420    23698639.698
  22036710.046    -9072200.24749  -7052959.15247  22036709.264    22036716.570
 04  1 25  0 12 30.0000000  0  9G10G30G18G26G21G 6G 5G29G17
  22088338.753   -11307617.70249  -8540258.64047  22088337.632    22088344.739
  21415931.619   -10962654.28149  -8530678.73647  21415931.529    21415937.743
  23614343.709    -1890950.44849  -1444568.47745  23614342.601    23614348.618
  23724481.215    -3168601.24449  -2423157.11744  23724480.135    23724485.712
  21813247.808   -11662627.93249  -8625471.70847  21813247.033    21813252.234
  20474749.785   -16690811.62149 -12796634.53148  20474749.286    20474755.617
  24090336.627      300997.96449    270008.65644  24090336.706    24090344.167
  23687879.174    -3452414.66149  -2331113.23745  23687879.083    23687888.625
  22047994.438    -9012900.47549  -7006751.54647  22047993.652    22048000.948
 04  1 25  0 13  0.0000000  0  9G10G30G18G26G21G 6G 5G29G17
  22103144.204   -11229814.24049  -8479632.57947  22103143.192    22103150.252
  21431001.106   -10883463.27649  -8468971.48947  21431001.017    21431007.289
  23594147.654    -1997081.19849  -1527267.59745  23594146.473    23594152.703
  23708123.162    -3254553.17349  -2490132.60244  23708122.769    23708129.079
  21803335.819   -11714715.77549  -8666059.59547  21803335.035    21803340.283
  20469926.910   -16716156.05149 -12816383.42148  20469926.415    20469932.733
  24110964.792      409397.42549    354475.71544  24110964.676    24110972.377
  23677185.548    -3508608.28149  -2374900.35745  23677185.287    23677195.115
  22059301.668    -8953480.93249  -6960450.60947  22059300.794    22059308.140
 04  1 25  0 13 30.0000000  0  9G10G30G18G26G21G 6G 5G29G17
  22118027.977   -11151600.27349  -8418686.63047  22118026.928    22118033.886
  21446143.735   -10803887.80649  -8406964.65247  21446143.724    21446150.016
  23573981.574    -2103053.57549  -1609843.33645  23573980.613    23573987.043
  23691798.645    -3340340.45049  -2556979.72644  23691798.237    23691803.455
  21793465.727   -11766583.39849  -8706475.88147  21793464.938    21793470.182
  20465166.783   -16741170.63049 -12835875.28548  20465166.280    20465172.585
  24131599.007      517825.65149    438965.20044  24131597.981    24131606.023
  23666550.999    -3564491.70649  -2418445.78945  23666550.768    23666560.526
  22070632.162    -8893938.48149  -6914053.89947  22070631.330    22070638.664
 04  1 25  0 14  0.0000000  0  9G10G30G18G26G21G 6G 5G29G17
  22132988.272   -11072984.05849  -8357427.23947  22132987.222    22132994.079
  21461358.069   -10723936.22049  -8344664.74047  21461358.021    21461364.300
  23553844.747    -2208871.36349  -1692298.61345  23553843.943    23553850.675
  23675505.701    -3425965.19349  -2623700.03045  23675505.079    23675509.573
  21783636.385   -11818236.51949  -8746725.02647  21783635.683    21783640.886
  20460468.618   -16765859.54549 -12855113.38048  20460468.133    20460474.425
  24152236.180      626274.56949    523470.81044  24152235.136    24152243.598
  23655975.068    -3620067.73649  -2461751.69245  23655974.909    23655984.434
  22081984.802    -8834279.69449  -6867566.53147  22081984.030    22081991.287
 04  1 25  0 14 30.0000000  0  9G10G30G18G26G21G 6G 5G29G17
  22148025.464   -10993963.42749  -8295852.73247  22148024.392    22148031.290
  21476644.352   -10643606.25849  -8282069.99247  21476644.328    21476650.596
  23533738.901    -2314527.32849  -1774627.77345  23533738.141    23533744.859
  23659244.205    -3511418.68549  -2690286.97044  23659243.579    23659249.212
  21773848.903   -11869670.11049  -8786803.10147  21773848.198    21773853.312
  20455833.691   -16790216.25749 -12874092.61848  20455833.231    20455839.538
  24172877.508      734746.55848    607994.39644  24172876.268    24172885.197
  23645459.824    -3675328.67649  -2504812.06845  23645459.498    23645468.384
  22093360.454    -8774500.65049  -6820985.46247  22093359.625    22093366.781
 04  1 25  0 15  0.0000000  0  9G10G30G18G26G21G 6G 5G29G17
  22163138.422   -10914544.38249  -8233967.76647  22163137.369    22163144.233
  21492001.557   -10562903.92649  -8219185.08047  21492001.497    21492007.764
  23513663.431    -2420022.03249  -1856831.30945  23513662.812    23513669.865
  23643014.164    -3596700.50748  -2756740.29944  23643012.928    23643021.255
  21764102.599   -11920887.71449  -8826712.87347  21764101.796    21764106.893
  20451261.665   -16814242.51349 -12892814.35248  20451261.216    20451267.464
  24193521.260      843235.66348    692531.33344  24193520.487    24193530.072
  23635004.579    -3730274.97249  -2547627.23945  23635004.037    23635012.162
  22104758.188    -8714605.22849  -6774313.71647  22104757.345    22104764.478
 04  1 25  0 15 30.0000000  0  9G10G30G18G26G21G 6G 5G29G17
  22178327.177   -10834727.42849  -8171772.74147  22178326.154    22178332.956
  21507429.539   -10481829.51549  -8156010.23247  21507429.476    21507435.751
  23493619.628    -2525350.75149  -1938905.49145  23493619.217    23493626.444
  23626818.673    -3681805.02049  -2823055.50544  23626818.711    23626826.587
  21754397.639   -11971886.87449  -8866452.43747  21754396.905    21754401.978
  20446753.309   -16837934.31349 -12911275.47248  20446752.857    20446759.026
  24214168.328      951741.97948    777081.69044  24214167.153    24214178.358
  23624609.227    -3784901.56949  -2590193.30945  23624608.944    23624616.896
  22116178.320    -8654592.10949  -6727550.24547  22116177.509    22116184.671
 04  1 25  0 16  0.0000000  0  9G10G30G18G26G21G 6G 5G29G17
  22193591.121   -10754515.40649  -8109269.87847  22193590.037    22193596.847
  21522927.660   -10400386.01249  -8092547.78347  21522927.657    21522933.973
  23473608.033    -2630511.44649  -2020848.75345  23473607.471    23473615.002
  23610659.539    -3766728.95749  -2889229.73845  23610659.099    23610665.839
  21744734.300   -12022668.05549  -8906022.14147  21744733.524    21744738.588
  20442308.832   -16861290.47249 -12929475.05648  20442308.374    20442314.517
  24234818.613     1060262.48848    861643.09044  24234816.947    24234829.061
  23614275.288    -3839205.81349  -2632508.20445  23614275.068    23614283.012
  22127620.635    -8594462.55149  -6680696.05847  22127619.787    22127627.026
 04  1 25  0 16 30.0000000  0  9G10G30G18G26G21G 6G 5G29G17
  22208929.038   -10673914.27449  -8046463.80147  22208927.999    22208934.768
  21538495.068   -10318579.19449  -8028802.23547  21538495.060    21538501.387
  23453628.247    -2735505.05049  -2102661.82945  23453627.592    23453635.245
  23594534.506    -3851471.77249  -2955262.84445  23594533.534    23594540.009
  21735111.734   -12073234.57049  -8945424.58047  21735110.976    21735116.025
  20437927.935   -16884312.47049 -12947414.25348  20437927.467    20437933.531
  24255471.276     1168791.87948    946211.47544  24255468.503    24255481.870
  23604002.660    -3893188.14849  -2674572.25745  23604002.440    23604010.185
  22139084.378    -8534220.31549  -6633754.06347  22139083.581    22139090.779
 04  1 25  0 17  0.0000000  0  9G10G30G18G26G21G 6G 5G29G17
  22224340.592   -10592926.63249  -7983356.56147  22224339.480    22224346.352
  21554131.082   -10236411.78649  -7964775.69947  21554131.026    21554137.375
  23433680.774    -2840329.13249  -2184342.82145  23433680.072    23433687.688
  23578443.710    -3936029.83348  -3021152.06744  23578442.567    23578449.364
  21725530.108   -12123586.39749  -8984659.72347  21725529.259    21725534.303
  20433610.982   -16906998.70749 -12965091.81648  20433610.496    20433616.466
  24276124.209     1277327.63548   1030784.73744  24276121.132    24276135.375
  23593792.086    -3946845.89849  -2716383.37145  23593791.797    23593799.147
  22150569.509    -8473866.16549  -6586724.85847  22150568.690    22150575.798
 04  1 25  0 17 30.0000000  0  9G10G30G18G26G21G 6G 5G29G17
  22239825.630   -10511552.45449  -7919948.11847  22239824.500    22239831.424
  21569835.703   -10153883.55849  -7900468.00647  21569835.633    21569841.988
  23413766.431    -2944978.58749  -2265887.74245  23413765.608    23413773.386
  23562387.553    -4020396.29349  -3086892.15545  23562386.830    23562395.378
  21715989.588   -12173721.30149  -9023725.84147  21715988.814    21715993.911
  20429358.720   -16929344.63549 -12982504.20548  20429358.240    20429364.152
  24296780.984     1385870.06248   1115363.13444  24296775.442    24296789.842
  23583644.638    -4000173.14049  -2757936.94745  23583644.172    23583651.232
  22162076.302    -8413398.05549  -6539606.84747  22162075.494    22162082.502
 04  1 25  0 18  0.0000000  0  9G10G30G18G26G21G 6G 5G29G17
  22255383.392   -10429796.40049  -7856242.09847  22255382.259    22255389.138
  21585608.114   -10070999.19449  -7835882.80447  21585607.995    21585614.393
  23393885.389    -3049453.04049  -2347296.29445  23393884.552    23393892.356
  23546369.389    -4104569.98249  -3152481.96245  23546369.218    23546377.762
  21706490.266   -12223640.20349  -9062623.65747  21706489.490    21706494.695
  20425171.077   -16951350.74449 -12999651.80048  20425170.609    20425176.469
  24317437.525     1494414.95648   1199943.53544  24317432.988    24317444.770
  23573560.022    -4053169.08049  -2799232.38145  23573559.485    23573566.263
  22173604.316    -8352818.80249  -6492402.23247  22173603.444    22173610.399
 04  1 25  0 18 30.0000000  0  9G10G30G18G26G21G 6G 5G29G17
  22271013.274   -10347661.25749  -7792240.68747  22271012.099    22271019.069
  21601447.643    -9987761.43949  -7771022.22847  21601447.589    21601454.049
  23374037.826    -3153749.80649  -2428566.41745  23374037.021    23374045.260
  23530389.441    -4188547.23549  -3217918.55845  23530389.070    23530396.930
  21697031.951   -12273343.75649  -9101353.66247  21697031.098    21697036.341
  20421048.440   -16973015.51349 -13016533.41648  20421047.953    20421053.739
  24338093.670     1602959.54348   1284523.68444  24338090.447    24338099.449
  23563538.847    -4105831.36249  -2840267.80545  23563538.212    23563544.659
  22185153.184    -8292129.32149  -6445111.72947  22185152.289    22185159.289
 04  1 25  0 19  0.0000000  0  9G10G30G18G26G21G 6G 5G29G17
  22286714.408   -10265150.96649  -7727946.96847  22286713.309    22286720.338
  21617353.681    -9904174.28649  -7705889.39647  21617353.638    21617360.177
  23354224.436    -3257867.99249  -2509697.36445  23354223.749    23354232.003
  23514446.994    -4272325.55149  -3283200.30245  23514446.110    23514454.218
  21687614.392   -12322832.85849  -9139916.57347  21687613.578    21687618.832
  20416990.750   -16994338.75049 -13033148.90348  20416990.282    20416996.046
  24358750.784     1711500.22948   1369100.73744  24358746.787    24358753.851
  23553581.444    -4158158.10349  -2881041.76945  23553580.806    23553587.152
  22196722.590    -8231331.55049  -6397736.83947  22196721.729    22196728.757
 04  1 25  0 19 30.0000000  0  9G10G30G18G26G21G 6G 5G29G17
  22302486.707   -10182266.97849  -7663362.04447  22302485.600    22302492.636
  21633325.952    -9820238.96749  -7640485.27247  21633325.950    21633332.587
  23334445.891    -3361803.86449  -2590686.23845  23334444.971    23334453.502
  23498542.389    -4355899.87649  -3348323.08545  23498541.579    23498550.283
  21678237.841   -12372107.03249  -9178312.01047  21678236.989    21678242.218
  20412998.673   -17015317.29449 -13049495.80748  20412998.205    20413003.911
  24379405.336     1820036.07749   1453674.03744  24379401.966    24379407.198
  23543688.653    -4210145.22249  -2921551.10645  23543687.924    23543694.207
  22208312.728    -8170424.89849  -6350277.10347  22208311.846    22208318.968
 04  1 25  0 20  0.0000000  0  9G10G30G18G26G21G 6G 5G29G17
  22318329.859   -10099010.83549  -7598487.13547  22318328.713    22318335.796
  21649364.174    -9735957.26149  -7574811.23747  21649364.237    21649370.957
  23314702.778    -3465554.21349  -2671530.55845  23314701.538    23314710.169
  23482678.394    -4439265.76949  -3413283.44445  23482677.819    23482686.356
  21668902.363   -12421164.87249  -9216538.87947  21668901.552    21668906.781
  20409072.619   -17035948.75049 -13065572.25348  20409072.133    20409077.803
  24400058.567     1928565.51348   1538242.39044  24400055.206    24400059.743
  23533861.159    -4261789.33049  -2961793.14245  23533860.508    23533866.633
  22219923.580    -8109409.08349  -6302732.32247  22219922.698    22219929.914
 04  1 25  0 20 30.0000000  0  9G10G30G18G26G21G 6G 5G29G17
  22334242.878   -10015387.32749  -7533325.97247  22334241.716    22334248.848
  21665467.514    -9651333.82749  -7508870.92247  21665467.539    21665474.284
  23294994.843    -3569118.53949  -2752229.96845  23294993.681    23295002.506
  23466854.882    -4522421.53849  -3478080.04645  23466854.374    23466862.612
  21659607.699   -12470008.31849  -9254598.68147  21659606.916    21659612.125
  20405212.600   -17056233.33149 -13081378.40248  20405212.116    20405217.763
  24420709.323     2037084.55149   1622802.56944  24420705.867    24420710.259
  23524098.893    -4313089.31949  -3001767.05045  23524098.366    23524104.626
  22231554.617    -8048287.00849  -6255104.74147  22231553.746    22231561.110
 04  1 25  0 21  0.0000000  0  9G10G30G18G26G21G 6G 5G29G17
  22350225.756    -9931396.52549  -7467878.60847  22350224.621    22350231.808
  21681635.841    -9566368.85349  -7442664.47147  21681635.846    21681642.583
  23275323.304    -3672491.80149  -2832780.45845  23275322.131    23275331.125
  23451072.609    -4605360.70249  -3542707.88345  23451071.791    23451080.159
  21650354.337   -12518635.14549  -9292489.69747  21650353.502    21650358.741
  20401419.401   -17076166.71049 -13096910.89248  20401418.932    20401424.557
  24441358.178     2145593.35249   1707354.78644  24441354.601    24441359.185
  23514403.188    -4364039.79149  -3041468.61345  23514402.568    23514408.967
  22243206.388    -7987056.38249  -6207392.57347  22243205.539    22243213.005
 04  1 25  0 21 30.0000000  0  9G10G30G18G26G21G 6G 5G29G17
  22366277.683    -9847043.69549  -7402149.13647  22366276.489    22366283.648
  21697868.257    -9481067.25049  -7376195.70547  21697868.278    21697874.930
  23255688.020    -3775673.71349  -2913181.87245  23255687.023    23255696.050
  23435331.050    -4688082.02649  -3607166.01545  23435329.891    23435338.805
  21641141.714   -12567047.70549  -9330213.75047  21641140.890    21641146.112
  20397692.879   -17095749.76949 -13112170.40448  20397692.421    20397697.988
  24462003.909     2254086.75749   1791895.07344  24462000.699    24462004.866
  23504774.013    -4414640.54449  -3080897.66745  23504773.564    23504780.063
  22254878.245    -7925720.70949  -6159598.54747  22254877.349    22254884.874
 04  1 25  0 22  0.0000000  0  9G10G30G18G26G21G 6G 5G29G17
  22382398.357    -9762329.29049  -7336137.93547  22382397.139    22382404.278
  21714164.635    -9395429.57849  -7309465.07747  21714164.656    21714171.264
  23236089.985    -3878659.93449  -2993430.77445  23236089.230    23236098.200
  23419631.662    -4770579.45749  -3671449.67445  23419630.667    23419639.722
  21631970.315   -12615243.48649  -9367768.88847  21631969.519    21631974.688
  20394033.723   -17114978.60649 -13127153.90548  20394033.255    20394038.803
  24482646.684     2362565.02649   1876423.51044  24482643.239    24482648.090
  23495212.293    -4464886.26349  -3120050.08045  23495212.003    23495218.607
  22266570.504    -7864278.10649  -6111721.19447  22266569.564    22266577.088
 04  1 25  0 22 30.0000000  0  9G10G30G18G26G21G 6G 5G29G17
  22398586.370    -9677260.73349  -7269850.75247  22398585.132    22398592.234
  21730523.595    -9309463.40149  -7242478.46047  21730523.551    21730530.076
  23216528.742    -3981452.94949  -3073529.14645  23216528.013    23216537.292
  23403974.950    -4852854.46149  -3735559.96645  23403974.216    23403983.097
  21622839.257   -12663227.35449  -9405158.89247  21622838.490    21622843.642
  20390441.425   -17133856.56549 -13141863.99348  20390440.941    20390446.429
  24503284.703     2471020.82949   1960934.44644  24503281.493    24503286.865
  23485717.649    -4514779.37749  -3158927.72145  23485717.427    23485724.181
  22278281.962    -7802734.27049  -6063764.95846  22278281.007    22278288.590
 04  1 25  0 23  0.0000000  0  9G10G30G18G26G21G 6G 5G29G17
  22414841.724    -9591837.69549  -7203287.35247  22414840.579    22414847.620
  21746945.115    -9223168.38149  -7175235.60047  21746945.053    21746951.477
  23197004.937    -4084047.34249  -3153472.74145  23197004.749    23197013.978
  23388361.955    -4934900.25849  -3799491.64745  23388361.365    23388370.292
  21613749.060   -12710996.56249  -9442381.62047  21613748.293    21613753.474
  20386916.727   -17152378.88149 -13156296.94548  20386916.242    20386921.665
  24523918.476     2579454.94649   2045428.54044  24523915.319    24523921.437
  23476291.175    -4564314.22249  -3197526.17445  23476291.042    23476297.786
  22290013.077    -7741086.75649  -6015727.94146  22290012.136    22290019.740
 04  1 25  0 23 30.0000000  0  9G10G30G18G26G21G 6G 5G29G17
  22431164.730    -9506060.03649  -7136447.63047  22431163.539    22431170.545
  21763429.285    -9136544.23749  -7107736.28647  21763429.181    21763435.510
  23177520.411    -4186437.79649  -3233257.41445  23177520.406    23177529.678
  23372793.774    -5016710.05049  -3863239.43845  23372793.014    23372802.117
  21604700.225   -12758548.43149  -9479435.00347  21604699.488    21604704.641
  20383460.609   -17170541.04649 -13170449.26748  20383460.114    20383465.487
  24544547.655     2687868.01749   2129906.14944  24544544.857    24544552.153
  23466934.161    -4613484.98449  -3235840.95845  23466933.930    23466940.700
  22301764.364    -7679333.34049  -5967608.40546  22301763.450    22301770.979
 04  1 25  0 24  0.0000000  0  9G10G30G18G26G21G 6G 5G29G17
  22447553.749    -9419934.68849  -7069336.99147  22447552.612    22447559.623
  21779974.718    -9049598.05549  -7039986.02847  21779974.587    21779980.821
  23158074.769    -4288626.42749  -3312884.81345  23158074.569    23158083.787
  23357270.091    -5098284.41549  -3926803.77545  23357269.619    23357278.767
  21595692.122   -12805886.83049  -9516322.04347  21595691.354    21595696.439
  20380072.484   -17188345.74849 -13184323.04448  20380071.980    20380077.336
  24565171.270     2796253.32948   2214362.19644  24565168.800    24565177.298
  23457646.064    -4662293.37749  -3273873.35345  23457645.980    23457652.546
  22313534.875    -7617478.96949  -5919410.19946  22313533.912    22313541.381
 04  1 25  0 24 30.0000000  0  9G10G30G18G26G21G 6G 5G29G17
  22464008.521    -9333464.24349  -7001957.41947  22464007.421    22464014.301
  21796580.991    -8962332.10049  -6971986.59247  21796580.811    21796586.968
  23138668.043    -4390609.99249  -3392352.43245  23138667.843    23138676.833
  23341792.516    -5179619.53249  -3990181.64245  23341792.213    23341800.947
  21586724.691   -12853011.36849  -9553042.43747  21586723.912    21586728.893
  20376752.681   -17205791.20849 -13197916.88848  20376752.188    20376757.547
  24585789.338     2904608.66348   2298794.82244  24585787.325    24585797.254
  23448427.606    -4710736.04049  -3311620.78345  23448427.462    23448434.077
  22325324.528    -7555524.01749  -5871133.61546  22325323.510    22325330.946
 04  1 25  0 25  0.0000000  0  9G10G30G18G26G21G 6G 5G29G17
  22480528.725    -9246650.45949  -6934310.32247  22480527.535    22480534.409
  21813247.607    -8874748.70049  -6903739.80147  21813247.433    21813253.522
  23119301.081    -4492385.90549  -3471658.23345  23119300.771    23119309.330
  23326361.573    -5260711.10249  -4053369.71145  23326361.226    23326369.580
  21577797.953   -12899921.86849  -9589596.05247  21577797.152    21577802.098
  20373501.672   -17222875.31449 -13211229.15648  20373501.159    20373506.526
  24606401.152     3012932.40048   2383202.89144  24606399.536    24606410.851
  23439279.065    -4758810.01649  -3349080.94045  23439278.896    23439285.826
  22337133.217    -7493468.41549  -5822778.60346  22337132.285    22337139.616
 04  1 25  0 25 30.0000000  0  9G10G30G18G26G21G 6G 5G29G17
  22497113.257    -9159498.07149  -6866399.37746  22497112.033    22497118.919
  21829973.704    -8786852.61249  -6835249.35447  21829973.494    21829979.586
  23099973.957    -4593953.60549  -3550801.78445  23099973.401    23099981.611
  23310977.267    -5341557.48349  -4116366.74445  23310976.657    23310984.962
  21568911.526   -12946620.39449  -9625984.48447  21568910.694    21568915.691
  20370319.319   -17239598.53549 -13224260.21248  20370318.832    20370324.180
  24627006.972     3121220.15048   2467582.84044  24627005.599    24627017.589
  23430200.966    -4806514.66049  -3386253.28545  23430200.741    23430207.729
  22348960.667    -7431315.08549  -5774347.43846  22348959.757    22348966.941
 04  1 25  0 26  0.0000000  0  9G10G30G18G26G21G 6G 5G29G17
  22513761.865    -9072009.06049  -6798226.12746  22513760.588    22513767.446
  21846758.797    -8698645.90349  -6766516.86747  21846758.604    21846764.777
  23080687.030    -4695310.02649  -3629780.70345  23080686.163    23080693.961
  23295639.628    -5422154.18949  -4179169.26845  23295639.275    23295647.862
  21560065.497   -12993106.12649  -9662207.10147  21560064.748    21560069.724
  20367206.094   -17255958.64249 -13237008.32448  20367205.587    20367210.940
  24647605.030     3229470.45048   2551933.64644  24647604.720    24647617.410
  23421193.712    -4853846.52849  -3423135.16145  23421193.386    23421200.557
  22360806.906    -7369063.55049  -5725839.75046  22360805.936    22360812.903
 04  1 25  0 26 30.0000000  0  9G10G30G18G26G21G 6G 5G29G17
  22530473.875    -8984186.65049  -6729793.08046  22530472.588    22530479.445
  21863602.466    -8610131.38949  -6697544.52647  21863602.293    21863608.552
  23061440.329    -4796453.03949  -3708593.31546  23061439.468    23061446.977
  23280350.568    -5502497.91749  -4241774.64645  23280350.259    23280358.751
  21551260.193   -13039378.79449  -9698263.68347  21551259.334    21551264.245
  20364162.201   -17271954.16149 -13249472.34048  20364161.724    20364167.036
  24668195.392     3337680.89758   2636253.37544  24668195.186    24668209.279
  23412258.113    -4900803.32949  -3459724.78445  23412257.772    23412264.830
  22372671.555    -7306714.96649  -5677256.42946  22372670.652    22372677.386
 04  1 25  0 27  0.0000000  0  9G10G30G18G26G21G 6G 5G29G17
  22547248.978    -8896032.36349  -6661101.43146  22547247.736    22547254.569
  21880504.333    -8521310.64149  -6628333.57247  21880504.242    21880510.618
  23042234.897    -4897379.34549  -3787237.07246  23042234.003    23042241.230
  23265110.805    -5582583.48949  -4304178.86545  23265110.539    23265118.370
  21542495.257   -13085438.61649  -9734154.42747  21542494.461    21542499.363
  20361188.274   -17287582.31049 -13261650.09748  20361187.783    20361193.058
  24688779.031     3445850.20058   2720541.03444  24688779.035    24688793.060
  23403394.854    -4947380.94049  -3496018.92745  23403394.238    23403401.256
  22384554.854    -7244268.44449  -5628596.79846  22384553.935    22384560.467
 04  1 25  0 27 30.0000000  0  9G10G30G18G26G21G 6G 5G29G17
  22564086.655    -8807549.48249  -6592153.71646  22564085.399    22564092.230
  21897463.943    -8432186.99349  -6558886.59547  21897463.831    21897470.313
  23023071.021    -4998087.06649  -3865710.50346  23023070.050    23023076.955
  23249920.784    -5662408.10449  -4366379.74845  23249920.595    23249927.502
  21533770.923   -13131285.46349  -9769879.20447  21533770.131    21533774.984
  20358284.359   -17302842.31149 -13273540.97948  20358283.853    20358289.153
  24709354.477     3553975.48048   2804794.37244  24709354.110    24709368.559
  23394603.996    -4993577.47349  -3532016.14745  23394603.313    23394610.418
  22396456.439    -7181725.35649  -5579861.91446  22396455.546    22396461.908
 04  1 25  0 28  0.0000000  0  9G10G30G18G26G21G 6G 5G29G17
  22580986.221    -8718741.72049  -6522952.86246  22580984.970    22580991.774
  21914480.346    -8342764.54049  -6489206.77947  21914480.331    21914486.900
  23003948.933    -5098574.91349  -3944012.59246  23003947.888    23003954.574
  23234780.962    -5741969.15249  -4428375.26545  23234780.606    23234787.044
  21525086.932   -13176920.32549  -9805438.81247  21525086.123    21525090.982
  20355450.592   -17317733.57149 -13285144.54048  20355450.075    20355455.379
  24729920.349     3662053.44649   2889010.73344  24729920.271    24729935.204
  23385885.808    -5039391.49849  -3567715.31045  23385885.189    23385892.172
  22408375.970    -7119087.45649  -5531053.14546  22408375.185    22408381.445
 04  1 25  0 28 30.0000000  0  9G10G30G18G26G21G 6G 5G29G17
  22597947.454    -8629609.96849  -6453499.54146  22597946.187    22597952.876
  21931553.566    -8253043.85149  -6419294.58047  21931553.552    21931560.235
  22984869.182    -5198838.62549  -4022140.05046  22984868.307    22984874.769
  23219692.047    -5821261.00449  -4490161.02645  23219691.772    23219698.046
  21516443.421   -13222342.35849  -9840832.57547  21516442.636    21516447.436
  20352687.676   -17332252.55749 -13296458.01848  20352687.148    20352692.476
  24750479.186     3770083.45848   2973189.92344  24750478.797    24750492.746
  23377241.121    -5084818.43449  -3603112.84945  23377240.693    23377247.671
  22420313.883    -7056353.41249  -5482169.46746  22420313.110    22420319.267
 04  1 25  0 29  0.0000000  0  9G10G30G18G26G21G 6G 5G29G17
  22614969.365    -8540159.43349  -6383797.80546  22614968.103    22614974.710
  21948682.426    -8163030.54149  -6349154.35447  21948682.503    21948689.228
  22965831.985    -5298878.79049  -4100093.29246  22965831.166    22965837.454
  23204654.552    -5900282.57949  -4551736.19245  23204654.302    23204660.617
  21507840.212   -13267553.24849  -9876061.80147  21507839.353    21507844.109
  20349995.371   -17346400.42049 -13307482.30348  20349994.862    20350000.195
  24771028.216     3878061.18049   3057328.24544  24771027.303    24771040.762
  23368670.247    -5129858.46649  -3638208.91945  23368669.866    23368676.831
  22432269.539    -6993526.28449  -5433213.25146  22432268.764    22432274.882
 04  1 25  0 29 30.0000000  0  9G10G30G18G26G21G 6G 5G29G17
  22632050.993    -8450394.25649  -6313850.91746  22632049.758    22632056.426
  21965866.201    -8072728.80249  -6278789.38747  21965866.397    21965873.128
  22946837.714    -5398694.14549  -4177871.38546  22946836.846    22946842.971
  23189669.111    -5979031.89249  -4613099.19245  23189668.807    23189675.165
  21499276.868   -13312554.10849  -9911127.37047  21499275.981    21499280.772
  20347373.711   -17360177.14049 -13318217.39148  20347373.197    20347378.546
  24791565.753     3985982.23849   3141422.47044  24791564.994    24791577.684
  23360173.536    -5174510.48849  -3673002.61245  23360173.019    23360179.856
  22444242.436    -6930608.37049  -5384186.29546  22444241.675    22444247.799
 04  1 25  0 30  0.0000000  0  9G10G30G18G26G21G 6G 5G29G17
  22649192.965    -8360311.89849  -6243656.86346  22649191.820    22649198.489
  21983105.619    -7982135.79149  -6208197.44947  21983105.742    21983112.410
  22927887.542    -5498277.01649  -4255468.32146  22927886.785    22927892.733
  23174736.899    -6057499.35149  -4674242.60545  23174736.755    23174743.441
  21490754.363   -13357339.70249  -9946025.19247  21490753.531    21490758.327
  20344824.095   -17373575.62649 -13328657.75248  20344823.572    20344828.878
  24812093.367     4093850.58449   3225475.61544  24812092.165    24812104.678
  23351751.985    -5218766.25249  -3707487.56545  23351751.598    23351758.085
  22456233.599    -6867594.48949  -5335084.55146  22456232.863    22456239.043
 04  1 25  0 30 30.0000000  0  9G10G30G18G26G21G 6G 5G29G17
  22666394.139    -8269919.25549  -6173221.03446  22666392.953    22666399.553
  22000399.108    -7891258.80449  -6137384.23247  22000399.141    22000405.767
  22908981.523    -5597629.26049  -4332885.54146  22908980.583    22908986.392
  23159858.483    -6135685.76249  -4735166.95945  23159858.154    23159865.046
  21482272.008   -13401914.82949  -9980759.01047  21482271.143    21482275.932
  20342345.885   -17386598.72349 -13338805.59548  20342345.348    20342350.691
  24832609.776     4201659.06049   3309482.08044  24832608.480    24832620.239
  23343405.819    -5262627.48549  -3741665.06845  23343405.227    23343411.485
  22468242.113    -6804489.52949  -5285911.83046  22468241.360    22468247.641
 04  1 25  0 31  0.0000000  0  8G10G30G18G26G21G 6G29G17
  22683654.591    -8179214.40049  -6102541.93346  22683653.464    22683660.167
  22017746.802    -7800095.79149  -6066348.14147  22017746.961    22017753.522
  22890120.375    -5696744.21249  -4410117.85146  22890119.520    22890125.294
  23145034.743    -6213583.02249  -4795866.02545  23145034.626    23145041.373
  21473830.636   -13446274.45949 -10015324.91447  21473829.757    21473834.535
  20339940.181   -17399240.32749 -13348656.18348  20339939.693    20339945.078
  23335135.455    -5306087.30549  -3775529.80745  23335134.992    23335141.134
  22480268.764    -6741289.56449  -5236665.09346  22480267.944    22480274.208
 04  1 25  0 31 30.0000000  0  8G10G30G18G26G21G 6G29G17
  22700973.533    -8088202.58249  -6031623.62946  22700972.414    22700979.089
  22035147.963    -7708652.31049  -5995093.49847  22035148.154    22035154.660
  22871304.397    -5795622.18249  -4487165.51846  22871303.586    22871309.292
  23130266.275    -6291189.94149  -4856338.81345  23130266.201    23130272.692
  21465429.750   -13490421.18149 -10049724.91347  21465428.883    21465433.663
  20337606.899   -17411501.45449 -13358210.29148  20337606.418    20337611.824
  23326941.498    -5349145.61249  -3809081.68345  23326940.965    23326947.296
  22492312.780    -6677997.59949  -5187346.65646  22492311.987    22492318.291
 04  1 25  0 32  0.0000000  0  8G10G30G18G26G21G 6G29G17
  22718349.449    -7996891.25449  -5960471.94746  22718348.295    22718355.052
  22052601.307    -7616935.49849  -5923625.87447  22052601.401    22052607.817
  22852533.203    -5894265.36549  -4564030.23046  22852532.301    22852537.968
  23115552.831    -6368507.37949  -4916586.05845  23115552.627    23115559.138
  21457068.471   -13534359.72049 -10083962.68747  21457067.591    21457072.393
  20335345.492   -17423384.97849 -13367470.16548  20335345.014    20335350.467
  23318823.655    -5391804.57949  -3842322.37545  23318823.134    23318829.461
  22504373.317    -6614618.56649  -5137960.38146  22504372.537    22504378.879
 04  1 25  0 32 30.0000000  0  8G10G30G18G26G21G 6G29G17
  22735782.701    -7905278.51349  -5889085.41246  22735781.616    22735788.466
  22070106.772    -7524943.95049  -5851944.16747  22070106.863    22070113.209
  22833807.829    -5992666.72149  -4640706.51846  22833807.044    22833812.739
  23100896.037    -6445527.18549  -4976601.38245  23100896.014    23100902.631
  21448747.406   -13578086.57149 -10118035.50547  21448746.562    21448751.416
  20333157.029   -17434885.09349 -13376431.26948  20333156.539    20333162.092
  23310783.382    -5434056.97949  -3875246.25245  23310782.831    23310788.977
  22516451.124    -6551148.87749  -5088503.47046  22516450.316    22516456.693
 04  1 25  0 33  0.0000000  0  8G10G30G18G26G21G 6G29G17
  22753272.128    -7813370.72549  -5817468.96746  22753271.078    22753277.942
  22087663.428    -7432683.83349  -5780053.19447  22087663.439    22087669.755
  22815128.328    -6090827.47449  -4717195.31046  22815127.576    22815133.287
  23086296.394    -6522249.49349  -5036384.89345  23086296.249    23086303.039
  21440466.154   -13621604.47849 -10151945.51447  21440465.285    21440470.160
  20331041.104   -17446004.13749 -13385095.44348  20331040.594    20331046.202
  23302820.403    -5475904.30249  -3907854.46945  23302819.753    23302825.662
  22528545.476    -6487592.54249  -5038979.05146  22528544.653    22528551.078
 04  1 25  0 33 30.0000000  0  8G10G30G18G26G21G 6G29G17
  22770817.663    -7721168.54749  -5745623.11346  22770816.572    22770823.484
  22105270.959    -7340156.12049  -5707953.69947  22105270.919    22105277.161
  22796495.433    -6188743.73349  -4793493.59746  22796494.646    22796500.362
  23071754.567    -6598668.62349  -5095932.15845  23071754.337    23071761.282
  21432224.851   -13664912.01749 -10185691.60347  21432224.020    21432228.932
  20328998.342   -17456738.61649 -13393459.95048  20328997.858    20329003.571
  23294935.197    -5517341.87249  -3940143.41145  23294934.602    23294940.260
  22540656.582    -6423948.23549  -4989386.06646  22540655.739    22540662.287
 04  1 25  0 34  0.0000000  0  8G10G30G18G26G21G 6G29G17
  22788418.709    -7628674.83949  -5673550.09246  22788417.557    22788424.466
  22122928.810    -7247363.67149  -5635647.92247  22122928.775    22122934.969
  22777909.543    -6286413.02849  -4869599.43946  22777908.712    22777914.394
  23057270.927    -6674780.94949  -5155240.39145  23057270.664    23057277.751
  21424023.750   -13708008.93449 -10219273.56947  21424022.898    21424027.841
  20327029.074   -17467086.92749 -13401523.55248  20327028.601    20327034.378
  23287128.435    -5558367.52749  -3972111.37145  23287127.797    23287133.134
  22552784.284    -6360216.29849  -4939724.81146  22552783.433    22552790.155
 04  1 25  0 34 30.0000000  0  8G10G30G18G26G21G 6G29G17
  22806074.572    -7535892.73349  -5601252.35846  22806073.414    22806080.496
  22140636.384    -7154309.68249  -5563138.34547  22140636.416    22140642.611
  22759371.001    -6383833.69349  -4945511.55646  22759370.156    22759375.857
  23042846.011    -6750583.27049  -5214307.07045  23042845.750    23042853.007
  21415862.629   -13750895.40049 -10252691.55147  21415861.837    21415866.801
  20325133.492   -17477048.10449 -13409285.49148  20325133.023    20325138.855
  23279400.277    -5598978.97149  -4003756.57345  23279399.687    23279404.897
  22564928.534    -6296397.66049  -4889995.99746  22564927.666    22564934.611
 04  1 25  0 35  0.0000000  0  8G10G30G18G26G21G 6G29G17
  22823784.529    -7442825.40949  -5528732.39046  22823783.384    22823790.701
  22158393.153    -7060997.64349  -5490427.70947  22158393.164    22158399.346
  22740879.986    -6481003.81949  -5021228.44946  22740879.276    22740884.899
  23028480.760    -6826072.56349  -5273129.81945  23028480.505    23028487.595
  21407741.410   -13793572.39149 -10285946.30847  21407740.560    21407745.571
  20323311.765   -17486621.41749 -13416745.19948  20323311.294    20323317.137
  23271751.220    -5639174.65549  -4035077.80046  23271750.652    23271755.904
  22577089.008    -6232493.57249  -4840200.59146  22577088.097    22577095.260
 04  1 25  0 35 30.0000000  0  8G10G30G18G26G21G 6G29G17
  22841548.929    -7349472.96649  -5455990.22846  22841547.755    22841555.083
  22176199.009    -6967427.60149  -5417516.01847  22176198.977    22176205.198
  22722437.620    -6577918.79049  -5096746.51946  22722436.945    22722442.500
  23014176.382    -6901242.54949  -5331703.74445  23014176.138    23014182.523
  21399660.426   -13836037.22849 -10319035.74947  21399659.674    21399664.699
  20321564.612   -17495802.73749 -13423899.46048  20321564.114    20321570.006
  23264182.297    -5678949.42649  -4066071.05646  23264181.782    23264187.044
  22589266.074    -6168501.70049  -4790336.79346  22589265.168    22589272.533
 04  1 25  0 36  0.0000000  0  8G10G30G18G26G21G 6G29G17
  22859366.550    -7255841.17949  -5383030.39746  22859365.301    22859372.680
  22194052.791    -6873605.70949  -5344408.08647  22194052.737    22194058.949
  22704043.813    -6674579.18849  -5172066.22346  22704042.998    22704048.605
  22999932.903    -6976092.75849  -5390028.50745  22999932.628    22999938.371
  21391619.369   -13878293.35349 -10351962.56747  21391618.571    21391623.576
  20319891.704   -17504593.75049 -13430749.58648  20319891.212    20319897.124
  23256693.334    -5718304.09649  -4096736.95146  23256692.806    23256698.209
  22601459.120    -6104425.80149  -4740407.52246  22601458.266    22601465.815
 04  1 25  0 36 30.0000000  0  8G10G30G18G26G21G 6G29G17
  22877236.409    -7161933.80949  -5309855.82746  22877235.160    22877242.697
  22211953.842    -6779535.45949  -5271106.62447  22211953.774    22211959.940
  22685698.399    -6770984.33049  -5247187.02346  22685697.588    22685703.218
  22985750.654    -7050620.36749  -5448101.91445  22985750.416    22985755.897
  21383617.721   -13920341.76249 -10384727.53247  21383616.940    21383621.947
  20318293.178   -17512993.98049 -13437295.20648  20318292.659    20318298.597
  23249284.662    -5757237.05849  -4127074.24846  23249284.145    23249289.680
  22613667.903    -6040267.33849  -4690413.90746  22613667.114    22613674.841
 04  1 25  0 37  0.0000000  0  8G10G30G18G26G21G 6G29G17
  22895158.238    -7067753.54549  -5236468.61646  22895157.023    22895164.716
  22229901.586    -6685219.98949  -5197614.08647  22229901.469    22229907.611
  22667402.046    -6867131.65649  -5322106.93346  22667401.235    22667406.885
  22971630.609    -7124821.95749  -5505921.27845  22971630.371    22971635.810
  21375655.738   -13962182.03849 -10417330.31447  21375654.972    21375659.915
  20316769.269   -17521001.91349 -13443535.14448  20316768.764    20316774.770
  23241956.632    -5795746.19949  -4157081.30946  23241956.079    23241961.757
  22625892.383    -5976026.71949  -4640356.28246  22625891.591    22625899.369
 04  1 25  0 37 30.0000000  0  8G10G30G18G26G21G 6G29G17
  22913132.590    -6973297.60349  -5162866.57446  22913131.349    22913139.111
  22247896.540    -6590656.26049  -5123928.09747  22247896.422    22247902.528
  22649156.278    -6963013.05849  -5396819.63446  22649155.466    22649161.170
  22957574.321    -7198688.31349  -5563479.41345  22957574.093    22957579.604
  21367734.370   -14003809.04349 -10449766.90947  21367733.606    21367738.460
  20315321.272   -17528610.72949 -13449464.08248  20315320.786    20315326.837
  23234710.761    -5833823.60949  -4186751.96146  23234710.245    23234715.866
  22638133.531    -5911698.73949  -4590230.59346  22638132.737    22638140.528
 04  1 25  0 38  0.0000000  0  8G10G30G18G26G21G 6G29G17
  22931157.303    -6878576.78549  -5089058.15446  22931156.061    22931163.944
  22265936.498    -6495855.45749  -5050057.37447  22265936.453    22265942.544
  22630960.111    -7058634.65349  -5471329.88246  22630959.193    22630964.855
  22943580.881    -7272223.96649  -5620779.88245  22943580.610    22943586.257
  21359852.051   -14045230.91149 -10482043.65647  21359851.283    21359856.091
  20313947.954   -17535827.09449 -13455087.22048  20313947.487    20313953.631
  23227545.820    -5871475.12349  -4216090.75246  23227545.295    23227550.991
  22650389.673    -5847292.05649  -4540043.56946  22650388.862    22650396.639
 04  1 25  0 38 30.0000000  0  8G10G30G18G26G21G 6G29G17
  22949232.830    -6783589.64649  -5015042.18946  22949231.577    22949239.449
  22284021.891    -6400816.21349  -4976000.85747  22284021.843    22284027.935
  22612814.663    -7153989.56649  -5545632.32546  22612813.695    22612819.243
  22929651.722    -7345421.13049  -5677816.57545  22929651.543    22929657.268
  21352009.534   -14086443.37649 -10514157.23147  21352008.772    21352013.551
  20312650.418   -17542645.48249 -13460400.24648  20312649.965    20312656.100
  23220463.188    -5908694.27949  -4245092.62446  23220462.649    23220468.360
  22662661.447    -5782803.06649  -4489792.40046  22662660.656    22662668.384
 04  1 25  0 39  0.0000000  0  8G10G30G18G26G21G 6G29G17
  22967358.594    -6688337.75649  -4940819.94246  22967357.389    22967365.249
  22302152.361    -6305540.26149  -4901759.89447  22302152.271    22302158.332
  22594720.510    -7249074.93949  -5619724.75346  22594719.551    22594725.011
  22915787.984    -7418275.27149  -5734585.94445  22915787.730    22915793.415
  21344207.012   -14127445.76049 -10546107.10547  21344206.273    21344210.982
  20311429.123   -17549063.42749 -13465401.23548  20311428.670    20311434.792
  23213463.368    -5945477.59149  -4273754.88946  23213462.944    23213468.623
  22674949.036    -5718231.10449  -4439476.58346  22674948.230    22674956.069
 04  1 25  0 39 30.0000000  0  8G10G30G18G26G21G 6G29G17
  22985533.533    -6592827.79549  -4866396.58046  22985532.317    22985540.229
  22320326.558    -6210034.65949  -4827339.99147  22320326.400    22320332.418
  22576677.438    -7343892.80149  -5693608.74346  22576676.383    22576681.698
  22901989.580    -7490786.89649  -5791088.42045  22901989.233    22901994.788
  21336443.705   -14168242.08949 -10577896.42647  21336442.938    21336447.642
  20310283.546   -17555083.71149 -13470092.36548  20310283.064    20310289.152
  23206546.203    -5981827.03049  -4302079.07846  23206545.823    23206551.515
  22687251.734    -5653580.64849  -4389099.60946  22687250.883    22687258.671
 04  1 25  0 40  0.0000000  0  8G10G30G18G26G21G 6G29G17
  23003757.378    -6497060.22049  -4791772.49246  23003756.211    23003764.223
  22338544.327    -6114299.92749  -4752741.54147  22338544.118    22338550.127
  22558685.964    -7438438.81249  -5767280.88646  22558684.838    22558690.112
  22888257.338    -7562950.03549  -5847319.34345  22888257.050    22888262.438
  21328720.007   -14208829.90449 -10609523.25847  21328719.285    21328723.986
  20309214.294   -17560702.53849 -13474470.66648  20309213.824    20309219.903
  23199712.535    -6017738.09749  -4330061.67346  23199712.123    23199717.886
  22699569.759    -5588849.82749  -4338660.01746  22699568.806    22699576.542
 04  1 25  0 40 30.0000000  0  8G10G30G18G26G21G 6G29G17
  23022030.326    -6401035.93549  -4716948.37446  23022029.071    23022037.100
  22356805.477    -6018336.72949  -4677965.07046  22356805.286    22356811.313
  22540746.947    -7532708.44449  -5840737.69846  22540745.847    22540751.105
  22874592.428    -7634759.12449  -5903274.37746  22874592.179    22874597.629
  21321036.450   -14249207.36249 -10640986.18547  21321035.664    21321040.424
  20308222.137   -17565916.48049 -13478533.47948  20308221.651    20308227.725
  23192963.239    -6053206.37849  -4357699.24646  23192962.736    23192968.495
  22711903.125    -5524037.09749  -4288156.59546  22711902.247    22711909.995
 04  1 25  0 41  0.0000000  0  8G10G30G18G26G21G 6G29G17
  23040350.217    -6304764.51849  -4641931.68846  23040348.879    23040356.914
  22375108.232    -5922155.11249  -4603018.40846  22375108.015    22375114.076
  22522859.546    -7626706.61649  -5913982.97846  22522858.540    22522863.745
  22860994.241    -7706217.82649  -5958956.38646  22860993.974    22860999.566
  21313391.493   -14289381.69149 -10672290.83247  21313390.687    21313395.375
  20307305.853   -17570731.37049 -13482285.33748  20307305.395    20307311.472
  23186297.211    -6088236.77549  -4384995.60746  23186296.681    23186302.468
  22724250.507    -5459149.96749  -4237595.19846  22724249.680    22724257.470
 04  1 25  0 41 30.0000000  0  8G10G30G18G26G21G 6G29G17
  23058717.908    -6208240.84049  -4566718.44346  23058716.673    23058724.780
  22393453.526    -5825750.12349  -4527897.67946  22393453.265    22393459.349
  22505025.613    -7720423.34949  -5987008.96146  22505024.746    22505029.965
  22847464.865    -7777314.64149  -6014356.38446  22847464.699    22847470.286
  21305786.648   -14329345.03549 -10703431.06047  21305785.851    21305790.477
  20306467.287   -17575138.02549 -13485719.09048  20306466.826    20306472.869
  23179716.310    -6122819.31549  -4411942.98546  23179715.877    23179721.562
  22736613.632    -5394181.02049  -4186970.04746  22736612.850    22736620.597
 04  1 25  0 42  0.0000000  0  8G10G30G18G26G21G 6G29G17
  23077132.938    -6111468.97649  -4491311.80046  23077131.764    23077139.879
  22411840.492    -5729125.95649  -4452606.16546  22411840.206    22411846.314
  22487245.363    -7813858.27649  -6059815.35246  22487244.555    22487249.780
  22834004.746    -7848047.51449  -6069472.80446  22834004.608    22834010.360
  21298221.699   -14369098.86449 -10734408.04247  21298220.919    21298225.493
  20305706.419   -17579136.59249 -13488834.84848  20305705.972    20305711.986
  23173220.884    -6156953.36049  -4438540.88346  23173220.423    23173225.984
  22748992.188    -5329132.15849  -4136282.62846  22748991.311    22748998.959
 04  1 25  0 42 30.0000000  0  8G10G30G18G26G21G 6G29G17
  23095593.991    -6014456.10749  -4415717.35946  23095592.804    23095600.784
  22430267.786    -5632290.00849  -4377149.62146  22430267.469    22430273.591
  22469518.252    -7907013.62249  -6132403.90046  22469517.527    22469522.809
  22820613.853    -7918417.33849  -6124306.33246  22820613.688    22820619.443
  21290695.766   -14408647.86449 -10765225.41547  21290694.999    21290699.445
  20305022.594   -17582730.37149 -13491635.19248  20305022.136    20305028.050
  23166810.295    -6190640.99449  -4464790.93346  23166809.861    23166815.372
  22761384.980    -5264008.13049  -4085536.65146  22761384.111    22761391.553
 04  1 25  0 43  0.0000000  0  9G10G30G18G16G26G21G 6G29G17
  23114100.978    -5917201.38949  -4339934.48746  23114099.752    23114107.763
  22448735.415    -5535241.57349  -4301527.50146  22448735.154    22448741.293
  22451845.658    -7999883.27049  -6204769.82446  22451844.901    22451850.247
                   -714573.57349   -544852.98743
  22807293.165    -7988417.22349  -6178851.62346  22807293.060    22807298.978
  21283209.587   -14447988.38849 -10795880.33347  21283208.741    21283213.173
  20304416.676   -17585914.51749 -13494116.33848  20304416.215    20304422.051
  23160485.465    -6223876.94449  -4490689.00646  23160485.030    23160490.673
  22773792.679    -5198805.91049  -4034729.74846  22773791.822    22773799.194
 04  1 25  0 43 30.0000000  0  9G10G30G18G16G26G21G 6G29G17
  23132652.725    -5819712.09249  -4263968.80346  23132651.419    23132659.438
  22467242.072    -5437988.25049  -4225745.74446  22467241.832    22467248.006
  22434226.757    -8092469.85649  -6276915.17246  22434226.109    22434231.564
                   -786403.58049   -600824.30944                  24040936.991
  22794042.811    -8058048.31249  -6233109.50146  22794042.603    22794048.619
  21275762.100   -14487125.27249 -10826376.57447  21275761.267    21275765.692
  20303888.151   -17588692.33849 -13496280.86448  20303887.681    20303893.451
  23154246.330    -6256663.41849  -4516236.82946  23154245.899    23154251.534
  22786214.380    -5133530.57149  -3983865.84646  22786213.452    22786220.693
 04  1 25  0 44  0.0000000  0  9G10G30G18G16G26G21G 6G29G17
  23151249.280    -5721987.26649  -4187819.61746  23151247.924    23151255.850
  22485787.746    -5340528.93649  -4149803.46446  22485787.653    22485793.968
  22416662.981    -8184767.56449  -6348835.43646  22416662.348    22416667.925
  24027341.508     -857824.85949   -656477.21244  24027340.788    24027343.839
  22780864.107    -8127303.03449  -6287074.12446  22780863.826    22780869.826
  21268354.143   -14526054.53649 -10856711.03347  21268353.295    21268357.698
  20303437.946   -17591058.60749 -13498124.69948  20303437.463    20303443.133
  23148093.756    -6288994.46349  -4541429.80746  23148093.359    23148099.106
  22798650.541    -5068178.77049  -3932942.37546  22798649.554    22798656.858
 04  1 25  0 44 30.0000000  0  9G10G30G18G16G26G21G 6G29G17
  23169889.685    -5624031.63849  -4111490.58046  23169888.350    23169896.195
  22504371.877    -5242868.48149  -4073704.44846  22504371.748    22504378.188
  22399154.218    -8276776.40049  -6420530.58246  22399153.549    22399159.255
  24013828.563     -928837.07149   -711811.29844  24013829.662    24013831.731
  22767757.195    -8196180.16749  -6340744.51846  22767756.970    22767762.921
  21260985.329   -14564778.52049 -10886885.53247  21260984.407    21260988.742
  20303065.854   -17593014.05049 -13499648.41448  20303065.380    20303070.993
  23142027.955    -6320870.22749  -4566267.98446  23142027.528    23142033.336
  22811100.774    -5002752.54149  -3881960.90746  22811099.834    22811106.929
 04  1 25  0 45  0.0000000  0  9G10G30G18G16G26G21G 6G29G17
  23188572.940    -5525850.50349  -4034985.81946  23188571.636    23188579.447
  22522993.163    -5145012.72249  -3997453.25246  22522993.036    22522999.654
  22381700.302    -8368496.74249  -6492000.93746  22381699.732    22381705.502
  24000393.932     -999440.91749   -766827.24145  24000394.533    24000396.715
  22754722.384    -8264678.95349  -6394120.10846  22754722.064    22754728.166
  21253654.847   -14603300.07849 -10916902.29147  21253654.001    21253658.299
  20302771.616   -17594560.26649 -13500853.24648  20302771.144    20302776.683
  23136048.679    -6352291.23549  -4590751.80646  23136048.327    23136054.090
  22823564.683    -4937255.29549  -3830924.10446  22823563.705    22823570.509
 04  1 25  0 45 30.0000000  0  9G10G30G18G16G26G21G 6G29G17
  23207299.331    -5427442.76549  -3958304.48646  23207298.071    23207305.802
  22541651.675    -5046960.91449  -3921049.30046  22541651.579    22541658.330
  22364302.526    -8459922.96249  -6563242.10746  22364301.896    22364307.658
  23987037.587    -1069630.43549   -821520.32745  23987037.861    23987040.571
  22741760.691    -8332792.31949  -6447195.38646  22741760.457    22741766.778
  21246363.651   -14641615.38449 -10946758.33747  21246362.779    21246367.137
  20302556.164   -17595692.57949 -13501735.55448  20302555.703    20302561.186
  23130156.981    -6383252.16449  -4614877.13346  23130156.586    23130162.430
  22836042.663    -4871683.75649  -3779829.40246  22836041.707    22836048.306
 04  1 25  0 46  0.0000000  0  9G10G30G18G16G26G21G 6G29G17
  23226069.634    -5328804.27649  -3881443.34946  23226068.358    23226076.081
  22560348.186    -4948709.23149  -3844489.59546  22560348.156    22560355.163
  22346962.338    -8551046.56249  -6634247.47246  22346961.640    22346967.381
  23973760.719    -1139396.42549   -875883.30045  23973760.323    23973765.154
  22728874.114    -8400510.21649  -6499962.51546  22728874.008    22728880.662
  21239112.821   -14679717.92349 -10976448.59247  21239112.039    21239116.407
  20302421.036   -17596402.96349 -13502289.08848  20302420.557    20302425.961
  23124354.393    -6413744.09049  -4638637.00846  23124354.023    23124359.951
  22848535.835    -4806031.53349  -3728671.84846  22848534.908    22848541.588
 04  1 25  0 46 30.0000000  0  9G10G30G18G16G26G21G 6G29G17
  23244881.797    -5229945.30349  -3804410.41646  23244880.614    23244888.424
  22579080.866    -4850267.59149  -3767781.88146  22579080.878    22579088.080
  22329678.775    -8641872.65449  -6705020.99846  22329678.016    22329683.726
  23960563.548    -1208744.11149   -929920.35845  23960563.007    23960569.322
  22716062.256    -8467836.42249  -6552424.40546  22716062.088    22716068.958
  21231901.235   -14717615.05649 -11005978.78047  21231900.411    21231904.741
  20302364.982   -17596697.50649 -13502518.58348  20302364.525    20302369.867
  23118640.035    -6443772.29149  -4662035.54146  23118639.629    23118645.784
  22861042.797    -4740306.51349  -3677457.56746  22861041.951    22861048.623
 04  1 25  0 47  0.0000000  0  9G10G30G18G16G26G21G 6G29G17
  23263735.608    -5130867.41749  -3727206.89846  23263734.461    23263742.340
  22597849.308    -4751638.21049  -3690927.86346  22597849.364    22597856.706
  22312452.297    -8732398.27149  -6775560.39246  22312451.561    22312457.264
  23947446.128    -1277670.53449   -983629.13944  23947445.641    23947453.350
  22703325.726    -8534766.66549  -6604577.75346  22703325.615    22703332.560
  21224728.789   -14755306.24649 -11035348.49847  21224727.997    21224732.312
  20302388.463   -17596574.13349 -13502422.43348  20302387.999    20302393.313
  23113014.466    -6473334.07849  -4685070.64446  23113014.054    23113020.239
  22873563.846    -4674508.27149  -3626186.22146  22873562.992    22873569.550
 04  1 25  0 47 30.0000000  0  9G10G30G18G16G26G21G 6G29G17
  23282630.514    -5031575.00849  -3649836.20246  23282629.251    23282637.025
  22616652.979    -4652825.42349  -3613930.94746  22616652.867    22616660.289
  22295283.145    -8822622.83149  -6845865.19847  22295282.377    22295288.061
  23934409.824    -1346174.54849  -1037008.80244  23934409.273    23934417.308
  22690665.053    -8601298.87449  -6656420.95346  22690664.850    22690671.790
  21217595.285   -14792792.89149 -11064558.83447  21217594.505    21217598.850
  20302491.479   -17596033.13549 -13502000.86548  20302491.008    20302496.235
  23107477.702    -6502428.84449  -4707741.85246  23107477.337    23107483.619
  22886098.567    -4608638.25649  -3574858.94446  22886097.754    22886104.234
 04  1 25  0 48  0.0000000  0  9G10G30G18G16G26G21G 6G29G17
  23301565.913    -4932068.44949  -3572298.64946  23301564.702    23301572.421
  22635491.348    -4553829.84949  -3536791.58446  22635491.136    22635498.651
  22278172.095    -8912542.12349  -6915932.12447  22278171.323    22278177.031
  23921455.287    -1414251.97349  -1090056.13745  23921454.581    23921461.829
  22678080.961    -8667427.60149  -6707949.73146  22678080.702    22678087.784
  21210501.179   -14830072.56749 -11093607.89347  21210500.416    21210504.760
  20302674.586   -17595071.08649 -13501251.19748  20302674.101    20302679.288
  23102030.588    -6531052.57649  -4730046.01546  23102030.178    23102036.665
  22898647.164    -4542694.81849  -3523474.45646  22898646.367    22898652.894
 04  1 25  0 48 30.0000000  0  9G10G30G18G16G26G21G 6G29G17
  23320541.121    -4832352.84049  -3494598.19746  23320539.956    23320547.584
  22654363.240    -4454656.88349  -3459514.00546  22654363.150    22654370.671
  22261118.878    -9002156.56549  -6985761.50647  22261118.268    22261123.982
  23908581.763    -1481903.01849  -1142771.18445  23908581.133    23908588.074
  22665573.700    -8733151.98449  -6759163.46846  22665573.480    22665580.794
  21203446.039   -14867148.12049 -11122497.88847  21203445.220    21203449.535
  20302937.500   -17593689.43649 -13500174.56948  20302937.029    20302942.176
  23096672.941    -6559205.84649  -4751983.58246  23096672.567    23096679.231
  22911209.280    -4476680.68549  -3472034.87046  22911208.480    22911214.989
 04  1 25  0 49  0.0000000  0  9G10G30G18G16G26G21G 6G29G17
  23339555.643    -4732431.00149  -3416737.03446  23339554.493    23339561.973
  22673268.547    -4355309.62949  -3382100.61346  22673268.412    22673275.873
  22244124.363    -9091464.19849  -7055351.81147  22244123.614    22244129.363
  23895789.990    -1549125.82349  -1195152.55345  23895789.428    23895795.526
  22653144.140    -8798468.78849  -6810059.59646  22653143.865    22653151.363
  21196429.534   -14904019.80549 -11151229.03647  21196428.718    21196433.101
  20303280.454   -17591887.23449 -13498770.23748  20303279.972    20303285.084
  23091405.177    -6586886.80149  -4773553.11446  23091404.923    23091411.708
  22923784.657    -4410596.69549  -3420540.85546  22923783.874    22923790.249
 04  1 25  0 49 30.0000000  0  9G10G30G18G16G26G21G 6G29G17
  23358608.952    -4632305.73749  -3338717.36446  23358607.871    23358615.045
  22692206.753    -4255790.98649  -3304553.67346  22692206.402    22692213.655
  22227188.355    -9180462.98149  -7124701.45447  22227187.668    22227193.466
  23883079.469    -1615917.97149  -1247198.32145  23883078.771    23883085.222
  22640792.794    -8863374.59649  -6860635.45046  22640792.456    22640800.281
  21189451.791   -14940687.56749 -11179801.29047  21189451.028    21189455.421
  20303703.670   -17589663.27349 -13497037.27148  20303703.189    20303708.251
  23086228.032    -6614093.74449  -4794753.27046  23086227.657    23086234.317
  22936373.264    -4344442.90549  -3368992.44546  22936372.490    22936378.984
 04  1 25  0 50  0.0000000  0  9G10G30G18G16G26G21G 6G29G17
  23377701.126    -4531977.07949  -3260539.18146  23377700.024    23377706.767
  22711177.229    -4156101.46649  -3226873.57045  22711176.789    22711183.822
  22210312.056    -9269148.79149  -7193807.20947  22210311.272    22210317.127
  23870451.202    -1682275.14449  -1298905.11145  23870450.662    23870457.661
  22628520.654    -8927863.83649  -6910886.71946  22628520.242    22628528.380
  21182513.456   -14977149.22249 -11208212.93347  21182512.632    21182517.038
  20304207.778   -17587014.06749 -13494972.93748  20304207.310    20304212.353
  23081141.657    -6640822.19849  -4815580.57946  23081141.318    23081147.985
  22948975.647    -4278217.29849  -3317388.07546  22948974.865    22948981.340
 04  1 25  0 50 30.0000000  0  9G10G30G18G16G26G21G 6G29G17
  23396831.210    -4431449.96449  -3182206.36946  23396829.901    23396836.323
  22730179.119    -4056246.18249  -3149064.29745  22730178.655    22730185.644
  22193495.172    -9357521.81549  -7262669.24447  22193494.374    22193500.257
  23857906.022    -1748197.42149  -1350273.08745  23857905.606    23857913.104
  22616327.930    -8991935.30149  -6960812.44846  22616327.552    22616335.948
  21175613.807   -15013407.15449 -11236465.83747  21175612.998    21175617.316
  20304792.569   -17583940.78749 -13492578.16148  20304792.115    20304797.157
  23076146.393    -6667072.94849  -4836035.66446  23076145.957    23076152.600
  22961591.259    -4211922.64049  -3265729.90746  22961590.451    22961596.849
 04  1 25  0 51  0.0000000  0  9G10G30G18G16G26G21G 6G29G17
  23415998.378    -4330726.13349  -3103720.26446  23415997.143    23416003.305
  22749212.302    -3956227.16849  -3071127.43845  22749211.768    22749218.459
  22176738.343    -9445579.10849  -7331285.25247  22176737.574    22176743.480
  23845445.094    -1813681.58349  -1401299.62945  23845444.471    23845452.263
  22604215.623    -9055584.78349  -7010409.35446  22604215.258    22604223.770
  21168753.095   -15049460.29849 -11264559.17047  21168752.278    21168756.561
  20305458.483   -17580441.52449 -13489851.44848  20305458.014    20305463.053
  23071242.272    -6692843.11349  -4856116.27146  23071241.932    23071248.536
  22974220.228    -4145558.16549  -3214017.32846  22974219.279    22974225.523
 04  1 25  0 51 30.0000000  0  9G10G30G18G16G26G21G 6G29G17
  23435202.254    -4229808.99049  -3025083.53746  23435201.107    23435207.097
  22768275.648    -3856047.76349  -2993065.58045  22768275.371    22768281.828
  22160041.972    -9533319.05749  -7399653.98247  22160041.193    22160047.078
  23833068.204    -1878726.20249  -1451983.71745  23833067.530    23833074.642
  22592184.163    -9118809.52449  -7059675.29246  22592183.897    22592192.545
  21161931.224   -15085309.34049 -11292493.46447  21161930.420    21161934.733
  20306205.602   -17576515.49349 -13486792.19248  20306205.137    20306210.137
  23066429.933    -6718131.40449  -4875821.40146  23066429.703    23066436.372
  22986862.062    -4079124.74149  -3162251.02646  22986861.107    22986867.117
 04  1 25  0 52  0.0000000  0  9G10G30G18G16G26G21G 6G29G17
  23454442.359    -4128702.36849  -2946299.17546  23454441.108    23454446.827
  22787368.850    -3755712.23849  -2914882.07345  22787368.672    22787374.978
  22143406.105    -9620741.17849  -7467775.04847  22143405.290    22143411.189
  23820774.943    -1943330.49749  -1502324.69245  23820774.340    23820780.821
  22580234.156    -9181607.71749  -7108608.85046  22580233.710    22580242.333
  21155147.882   -15120955.98149 -11320270.05047  21155147.067    21155151.389
  20307033.896   -17572163.06149 -13483400.67448  20307033.403    20307038.396
  23061709.442    -6742937.46849  -4895150.76346  23061709.111    23061715.941
  22999516.693    -4012624.11549  -3110432.36146  22999515.707    22999521.528
 04  1 25  0 52 30.0000000  0  9G10G30G18G16G26G21G 6G29G17
  23473717.939    -4027408.82649  -2867369.13846  23473716.734    23473722.139
  22806491.308    -3655223.73349  -2836579.37645  22806491.154    22806497.340
  22126830.918    -9707844.14049  -7535647.42347  22126830.144    22126836.033
  23808565.314    -2007492.69749  -1552321.18045  23808564.604    23808570.823
  22568365.709    -9243976.22249  -7157207.60246  22568365.247    22568373.854
  21148403.011   -15156400.15749 -11347888.86547  21148402.196    21148406.558
  20307943.382   -17567383.52349 -13479676.34748  20307942.874    20307947.890
  23057080.905    -6767259.91949  -4914103.27546  23057080.665    23057087.564
  23012183.951    -3946056.95449  -3058561.83846  23012183.037    23012188.649
 04  1 25  0 53  0.0000000  0  9G10G30G18G16G26G21G 6G29G17
  23493028.923    -3925929.24049  -2788294.15346  23493027.666    23493032.778
  22825642.906    -3554583.04849  -2758158.08645  22825642.576    22825648.602
  22110317.265    -9794623.88049  -7603267.93147  22110316.506    22110322.378
  23796440.039    -2071208.65649  -1601969.91045  23796439.429    23796445.936
  22556579.959    -9305909.57549  -7205467.26646  22556579.515    22556588.045
  21141697.031   -15191640.16549 -11375348.59547  21141696.218    21141700.631
  20308934.720   -17562173.69549 -13475616.72948  20308934.227    20308939.260
  23052545.236    -6791094.80049  -4932675.86146  23052545.035    23052551.900
  23024864.282    -3879421.46449  -3006638.09246  23024863.309    23024868.836
 04  1 25  0 53 30.0000000  0  9G10G30G18G16G26G21G 6G29G17
  23512375.361    -3824262.96149  -2709073.68746  23512374.122    23512378.997
  22844822.987    -3453789.93149  -2679618.03045  22844822.799    22844828.881
  22093866.120    -9881075.11749  -7670632.46647  22093865.415    22093871.262
  23784400.660    -2134473.07749  -1651266.79745  23784400.103    23784406.929
  22544878.230    -9367401.54249  -7253383.00746  22544877.906    22544886.345
  21135030.566   -15226672.74249 -11402646.69747  21135029.743    21135034.194
  20310008.776   -17556529.44149 -13471218.60348  20310008.274    20310013.313
  23048103.249    -6814437.40649  -4950864.85446  23048103.080    23048109.923
  23037558.200    -3812714.62049  -2954658.73646  23037557.251    23037562.763
 04  1 25  0 54  0.0000000  0  9G10G30G18G16G26G21G 6G29G17
  23531755.610    -3722419.53249  -2629715.18446  23531754.286    23531758.962
  22864030.225    -3352854.24549  -2600966.86445  22864030.141    22864036.393
  22077476.471    -9967203.09849  -7737745.11047  22077475.782    22077481.632
  23772446.665    -2197291.04849  -1700215.79045  23772445.877    23772453.088
  22533259.944    -9428455.87749  -7300957.72846  22533259.569    22533268.066
  21128402.089   -15261505.22349 -11429788.87547  21128401.332    21128405.790
  20311164.275   -17550456.89249 -13466486.73148  20311163.804    20311168.874
  23043754.058    -6837293.06949  -4968674.40646  23043753.771    23043760.610
  23050264.108    -3745944.09349  -2902629.75446  23050263.175    23050268.768
 04  1 25  0 54 30.0000000  0  9G10G30G18G16G26G21G 6G29G17
  23551169.662    -3620398.70049  -2550218.44146  23551168.314    23551172.977
  22883264.850    -3251775.83149  -2522204.51945  22883264.616    22883271.016
  22061149.281   -10053002.83449  -7804601.97247  22061148.625    22061154.450
  23760579.647    -2259657.33249  -1748812.83645  23760578.642    23760585.314
  22521725.927    -9489066.33249  -7348186.58946  22521725.694    22521734.285
  21121812.434   -15296134.38549 -11456772.61447  21121811.634    21121816.076
  20312402.127   -17543951.72249 -13461417.76048  20312401.657    20312406.789
  23039498.250    -6859656.96149  -4986100.76246  23039498.067    23039504.962
  23062982.685    -3679106.84549  -2850548.77246  23062981.840    23062987.659
 04  1 25  0 55  0.0000000  0  9G10G30G18G16G26G21G 6G29G17
  23570616.293    -3518205.93949  -2470587.72546  23570614.942    23570619.602
  22902525.572    -3150560.47349  -2443335.44645  22902525.281    22902531.769
  22044884.296   -10138475.25349  -7871203.77747  22044883.705    22044889.527
  23748798.061    -2321572.78449  -1797058.60745  23748797.119    23748802.987
  22510276.457    -9549232.46949  -7395069.22746  22510276.440    22510285.007
  21115260.702   -15330563.87649 -11483600.77247  21115259.930    21115264.371
  20313721.893   -17537016.00149 -13456013.29148  20313721.443    20313726.601
  23035335.941    -6881530.54849  -5003145.05646  23035335.659    23035342.464
  23075713.398    -3612206.13049  -2798418.33946  23075712.487    23075718.362
 04  1 25  0 55 30.0000000  0  9G10G30G18G16G26G21G 6G29G17
  23590095.784    -3415839.64949  -2390821.82345  23590094.518    23590099.216
  22921812.599    -3049207.11649  -2364358.84045  22921812.159    22921818.822
  22028682.757   -10223614.23949  -7937545.76247  22028682.191    22028687.986
  23737103.238    -2383031.63849  -1844948.58545  23737102.206    23737107.690
  22498913.153    -9608947.25149  -7441600.15646  22498913.176    22498921.556
  21108747.959   -15364788.74749 -11510269.48147  21108747.178    21108751.590
  20315124.617   -17529644.72549 -13450269.43048  20315124.142    20315129.340
  23031267.931    -6902908.15649  -5019802.87846  23031267.685    23031274.442
  23088456.936    -3545238.10749  -2746235.45346  23088456.065    23088461.990
 04  1 25  0 56  0.0000000  0  9G10G30G18G16G26G21G 6G29G17
  23609607.800    -3313301.97649  -2310922.34145  23609606.629    23609611.456
  22941125.415    -2947718.10449  -2285276.53445  22941125.099    22941131.663
  22012545.119   -10308417.76349  -8003626.34247  22012544.553    22012550.320
  23725495.537    -2444031.18549  -1892480.65245  23725494.522    23725500.160
  22487636.545    -9668206.93049  -7487776.45446  22487636.593    22487644.512
  21102274.140   -15398808.96349 -11536778.70947  21102273.330    21102277.740
  20316610.472   -17521836.47449 -13444185.07348  20316609.984    20316615.160
  23027294.699    -6923787.65549  -5036072.56846  23027294.406    23027301.129
  23101213.329    -3478202.59449  -2693999.97846  23101212.434    23101218.338
 04  1 25  0 56 30.0000000  0  9G10G30G18G16G26G21G 6G29G17
  23629151.041    -3210599.85149  -2230894.72345  23629150.020    23629154.930
  22960462.790    -2846100.65949  -2206094.14945  22960462.483    22960469.007
  21996470.877   -10392888.28949  -8069447.44147  21996470.261    21996476.004
  23713974.093    -2504573.91349  -1939656.70545  23713973.419    23713979.298
  22476446.256    -9727012.69449  -7533599.03946  22476446.220    22476453.897
  21095838.432   -15432628.68349 -11563131.71447  21095837.655    21095842.037
  20318178.781   -17513594.67249 -13437762.87048  20318178.328    20318183.482
  23023415.754    -6944171.62549  -5051956.10646  23023415.431    23023422.213
  23113981.590    -3411104.34349  -2641715.62346  23113980.734    23113986.618
 04  1 25  0 57  0.0000000  0  9G10G30G18G16G26G21G 6G29G17
  23648726.222    -3107730.79749  -2150737.04145  23648725.298    23648730.244
  22979825.065    -2744352.64649  -2126810.01945  22979824.668    22979831.103
  21980461.221   -10477018.92049  -8135003.68647  21980460.664    21980466.353
  23702541.453    -2564652.71749  -1986471.27545  23702540.433    23702546.978
  22465343.761    -9785356.29849  -7579061.52746  22465343.776    22465351.309
  21089441.773   -15466243.41449 -11589324.98247  21089440.994    21089445.375
  20319830.822   -17504913.22249 -13430998.09748  20319830.354    20319835.478
  23019632.036    -6964053.80849  -5067448.66746  23019631.791    23019638.787
  23126762.709    -3343938.38649  -2589378.51546  23126761.916    23126768.053
 04  1 25  0 57 30.0000000  0  9G10G30G18G16G26G21G 6G29G17
  23668331.676    -3004702.17649  -2070455.01245  23668330.826    23668336.134
  22999210.543    -2642481.62549  -2047430.03345  22999210.198    22999216.565
  21964515.862   -10560812.71249  -8200297.45647  21964515.163    21964520.821
  23691196.708    -2624270.44149  -2032926.58545  23691195.756    23691202.175
  22454328.981    -9843239.48249  -7624165.25346  22454328.981    22454336.450
  21083083.145   -15499657.81449 -11615362.15747  21083082.396    21083086.827
  20321565.732   -17495796.02049 -13423893.77748  20321565.263    20321570.382
  23015943.336    -6983437.20749  -5082552.56646  23015943.105    23015950.271
  23139555.817    -3276709.98149  -2536992.73346  23139554.980    23139561.036
 04  1 25  0 58  0.0000000  0  9G10G30G18G16G26G21G 6G29G17
  23687967.238    -2901516.27949  -1990050.43845  23687966.432    23687971.767
  23018619.173    -2540490.26949  -1967956.29545  23018618.652    23018625.021
  21948634.860   -10644267.41649  -8265327.00147  21948634.167    21948639.823
  23679939.948    -2683424.84949  -2079020.89845  23679938.950    23679945.149
  22443402.485    -9900658.87249  -7668907.58146  22443402.475    22443409.872
  21076762.822   -15532871.53449 -11641242.94547  21076762.051    21076766.459
  20323383.819   -17486241.90249 -13416448.99348  20323383.344    20323388.427
  23012349.984    -7002320.31949  -5097266.62446  23012349.672    23012356.969
  23152360.702    -3209419.03649  -2484558.23246  23152359.914    23152366.090
 04  1 25  0 58 30.0000000  0  9G10G30G18G16G26G21G 6G29G17
  23707632.932    -2798173.00049  -1909523.21545  23707631.997    23707637.150
  23038050.455    -2438378.98249  -1888389.11845  23038049.780    23038056.139
  21932819.307   -10727378.50149  -8330088.80547  21932818.576    21932824.236
  23668771.790    -2742111.95149  -2124751.04745  23668770.871    23668776.797
  22432565.484    -9957608.94549  -7713284.19246  22432565.387    22432572.662
  21070481.085   -15565882.25249 -11666965.55747  21070480.260    21070484.716
  20325285.655   -17476247.59449 -13408661.21748  20325285.188    20325290.228
  23008852.532    -7020699.06249  -5111587.68246  23008852.133    23008859.632
  23165178.122    -3142063.45449  -2432073.34546  23165177.222    23165183.416
 04  1 25  0 59  0.0000000  0  9G10G30G18G16G26G21G 6G29G17
  23727328.021    -2694674.75049  -1828875.23645  23727327.053    23727332.237
  23057503.569    -2336150.15249  -1808730.30845  23057503.343    23057509.677
  21917069.499   -10810143.82749  -8394581.18347  21917068.799    21917074.447
  23657693.773    -2800329.25449  -2170115.16045  23657692.611    23657697.955
  22421818.316   -10014086.06749  -7757292.27946  22421818.208    22421825.323
  21064237.850   -15598690.14549 -11692530.11447  21064237.072    21064241.557
  20327271.548   -17465811.65949 -13400529.30948  20327271.073    20327276.078
  23005451.401    -7038571.74949  -5125514.40646  23005451.078    23005458.535
  23178007.634    -3074642.77449  -2379537.73746  23178006.879    23178013.310
 04  1 25  0 59 30.0000000  0  9G10G30G18G16G26G21G 6G29G17
  23747051.448    -2591027.70849  -1748111.30245  23747050.399    23747055.479
  23076978.281    -2233810.38749  -1728985.08345  23076978.140    23076984.205
  21901385.198   -10892565.26849  -8458805.59947  21901384.487    21901390.086
  23646704.159    -2858078.60349  -2215114.56945  23646703.079    23646708.784
  22411161.127   -10070090.91349  -7800932.35146  22411160.945    22411167.708
  21058032.752   -15631298.18349 -11717938.93647  21058031.948    21058036.426
  20329340.905   -17454936.87449 -13392055.44648  20329340.441    20329345.441
  23002146.207    -7055940.23949  -5139048.25746  23002145.847    23002153.357
  23190849.075    -3007161.03349  -2326954.55546  23190848.220    23190854.764
 04  1 25  1  0  0.0000000  0  9G10G30G18G16G26G21G 6G29G17
  23766803.102    -2487231.65049  -1667231.29645  23766802.135    23766807.128
  23096474.123    -2131360.13349  -1649153.75245  23096473.963    23096479.934
  21885767.114   -10974638.86049  -8522758.96347  21885766.409    21885771.946
  23635804.537    -2915355.44549  -2259745.82045  23635803.534    23635809.338
  22400594.703   -10125617.89649  -7844200.05846  22400594.511    22400601.061
  21051866.075   -15663704.06749 -11743190.23847  21051865.257    21051869.727
  20331494.422   -17443619.96549 -13383237.06448  20331493.950    20331498.943
  22998937.550    -7072800.94349  -5152186.41046  22998937.257    22998944.752
  23203702.336    -2939616.06749  -2274322.10346  23203701.622    23203707.980
 04  1 25  1  0 30.0000000  0  9G10G30G18G16G26G21G 6G29G17
  23786582.655    -2383289.34049  -1586237.29245  23786581.582    23786586.785
  23115990.465    -2028802.02949  -1569238.39545  23115990.363    23115996.166
  21870215.617   -11056362.57549  -8586439.70847  21870214.835    21870220.332
  23624995.292    -2972157.77149  -2304007.33545  23624994.207    23625000.054
  22390119.893   -10180663.92249  -7887093.00546  22390119.643    22390125.995
  21045737.754   -15695907.87549 -11768284.07647  21045737.009    21045741.462
  20333732.306   -17431859.91349 -13374073.38348  20333731.820    20333736.804
  22995826.011    -7089152.23349  -5164927.64446  22995825.611    22995833.115
  23216568.053    -2872007.88049  -2221640.39246  23216567.195    23216573.626
 04  1 25  1  1  0.0000000  0 10G10G30G18G16G26G21G 6G29G17G15
  23806389.084    -2279205.78149  -1505133.23045  23806387.851    23806393.328
  23135525.925    -1926141.81049  -1489243.43345  23135526.088    23135531.974
  21854730.469   -11137737.40549  -8649848.58847  21854729.666    21854735.112
  23614275.987    -3028486.74749  -2347899.94545  23614275.008    23614281.321
  22379736.576   -10235228.83449  -7929611.05246  22379736.261    22379742.559
  21039647.415   -15727912.58049 -11793222.76147  21039646.666    21039651.108
  20336054.049   -17419658.80549 -13364566.01648  20336053.563    20336058.575
  22992811.084    -7104995.68549  -5177273.14846  22992810.678    22992818.078
  23229444.814    -2804339.70349  -2168911.94546  23229444.061    23229450.484
                   -306694.28249   -221907.24843
 04  1 25  1  1 30.0000000  0 10G10G30G18G16G26G21G 6G29G17G15
  23826222.373    -2174980.26149  -1423918.56045  23826221.259    23826226.969
  23155080.852    -1823378.81849  -1409168.41845  23155081.281    23155087.127
  21839312.599   -11218758.68349  -8712981.98547  21839311.719    21839317.120
  23603647.674    -3084337.14849  -2391419.65845  23603646.865    23603653.787
  22369445.932   -10289306.17549  -7971749.19746  22369445.625    22369452.007
  21033595.620   -15759714.79349 -11818003.66347  21033594.855    21033599.238
  20338460.493   -17407012.55149 -13354711.78948  20338460.007    20338465.052
  22989893.763    -7120326.54949  -5189219.25346  22989893.328    22989900.594
  23242333.933    -2736608.24449  -2116134.18146  23242333.067    23242339.343
                   -384608.55649   -282618.73243
 04  1 25  1  2  0.0000000  0 10G10G30G18G16G26G21G 6G29G17G15
  23846082.329    -2070616.03349  -1342595.80445  23846081.152    23846086.900
  23174655.124    -1720516.76449  -1329016.21145  23174655.269    23174661.320
  21823962.168   -11299425.25249  -8775838.98147  21823961.296    21823966.679
  23593110.691    -3139707.78949  -2434565.55545  23593110.019    23593116.769
  22359248.471   -10342893.62249  -8013505.59846  22359248.304    22359254.603
  21027582.163   -15791315.07649 -11842627.22747  21027581.438    21027585.813
  20340951.694   -17393920.84649 -13344510.45448  20340951.233    20340956.321
  22987074.156    -7135144.06749  -5200765.33146  22987073.720    22987080.875
  23255234.697    -2668814.42749  -2063307.81846  23255233.936    23255240.049
                   -462439.69349   -343265.06043
 04  1 25  1  2 30.0000000  0 10G10G30G18G16G26G21G 6G29G17G15
  23865967.835    -1966116.77149  -1261167.81345  23865966.745    23865972.427
  23194247.360    -1617559.72549  -1248789.98745  23194247.397    23194253.319
  21808679.355   -11379736.39249  -8838419.02447  21808678.486    21808683.902
  23582665.427    -3194598.41149  -2477337.44345  23582664.721    23582671.086
  22349144.633   -10395989.66849  -8054879.08946  22349144.509    22349150.678
  21021606.948   -15822714.95349 -11867094.63347  21021606.235    21021610.619
  20343527.565   -17380384.41249 -13333962.57648  20343527.079    20343532.223
  22984352.276    -7149448.36849  -5211911.51646  22984351.824    22984358.843
  23268147.415    -2600959.56049  -2010433.87146  23268146.447    23268152.132
                   -540188.73749   -197476.89443
 04  1 25  1  3  0.0000000  0 10G10G30G18G16G26G21G 6G29G17G15
  23885877.618    -1861490.52149  -1179640.85845  23885876.463    23885882.274
  23213856.370    -1514516.14749  -1168496.31845  23213856.022    23213861.682
  21793463.421   -11459696.11349  -8900725.23047  21793462.550    21793468.022
  23572310.614    -3249012.76249  -2519738.15345  23572309.889    23572316.096
  22339133.916   -10448596.78849  -8095871.59846  22339133.799    22339139.779
  21015668.807   -15853920.13749 -11891410.33047  21015668.036    21015672.416
  20346187.127   -17366408.05849 -13323071.90348  20346186.648    20346191.808
  22981727.154    -7163243.71049  -5222661.11046  22981726.731    22981733.562
  23281070.095    -2533049.86949  -1957517.24446  23281069.250    23281074.955
                   -617861.20249   -258000.54943
 04  1 25  1  3 30.0000000  0 10G10G30G18G16G26G21G 6G29G17G15
  23905812.653    -1756731.32549  -1098010.33445  23905811.432    23905817.486
  23233482.421    -1411380.31349  -1088130.75745  23233482.215    23233487.883
  21778316.160   -11539294.26949  -8962749.70647  21778315.366    21778320.914
  23562048.687    -3302940.50349  -2561759.75345  23562048.083    23562053.309
  22329218.355   -10500703.59749  -8136474.24446  22329218.244    22329224.081
  21009769.307   -15884922.28049 -11915567.81047  21009768.520    21009772.906
  20348932.232   -17351982.45249 -13311831.16148  20348931.748    20348936.910
  22979200.835    -7176520.24449  -5233006.42346  22979200.410    22979207.073
  23294005.130    -2465076.66649  -1904551.09246  23294004.157    23294009.729
                   -695448.61549   -318457.42543
 04  1 25  1  4  0.0000000  0  9G10G30G18G16G26G21G 6G29G17
  23925770.202    -1651853.36049  -1016287.23645  23925769.154    23925775.320
  23253123.352    -1308166.61549  -1007704.50745  23253123.257    23253128.703
  21763235.908   -11618540.48549  -9024499.94647  21763235.176    21763240.800
  23551876.994    -3356391.75149  -2603410.00745  23551876.366    23551881.819
  22319396.344   -10552318.70849  -8176693.76746  22319396.184    22319401.952
  21003906.269   -15915732.52849 -11939575.77047  21003905.499    21003909.862
  20351760.771   -17337118.34349 -13300248.73648  20351760.290    20351765.488
  22976771.255    -7189288.28349  -5242955.52346  22976770.802    22976777.291
  23306949.603    -2397051.78349  -1851544.70546  23306948.745    23306954.514
 04  1 25  1  4 30.0000000  0  9G10G30G18G16G26G21G 6G29G17
  23945754.905    -1546831.12449   -934451.73545  23945754.140    23945760.525
  23272784.176    -1204850.24449   -927198.28445  23272783.776    23272789.057
  21748228.238   -11697405.58849  -9085953.21747  21748227.546    21748233.234
  23541801.481    -3409336.71349  -2644665.73645  23541801.070    23541807.501
  22309673.634   -10603411.68049  -8216506.41946  22309673.395    22309679.206
  20998085.043   -15946323.14049 -11963412.57747  20998084.239    20998088.604
  20354678.061   -17321787.38149 -13288302.52148  20354677.630    20354682.841
  22974443.771    -7201519.21149  -5252486.08746  22974443.314    22974449.730
  23319909.470    -2328947.83849  -1798476.67646  23319908.544    23319914.395
 04  1 25  1  5  0.0000000  0  9G10G30G18G16G26G21G 6G29G17
  23965762.291    -1441691.50949   -852524.74045  23965761.258    23965768.085
  23292458.819    -1101458.27049   -846633.10645  23292458.736    23292463.748
  21733288.851   -11775912.06049  -9147127.02947  21733288.168    21733293.912
  23531818.614    -3461798.10449  -2685544.65445  23531818.082    23531824.774
  22300046.064   -10654003.69649  -8255928.74946  22300045.900    22300051.804
  20992300.840   -15976718.65049 -11987097.35947  20992300.083    20992304.438
  20357679.865   -17306012.95349 -13276010.74948  20357679.412    20357684.637
  22972214.079    -7213235.73449  -5261615.81946  22972213.707    22972220.052
  23332879.399    -2260789.06349  -1745365.92246  23332878.564    23332884.340
 04  1 25  1  5 30.0000000  0  9G10G30G18G16G26G21G 6G29G17
  23985791.947    -1336432.82849   -770504.99844  23985790.954    23985798.392
  23312148.350     -997989.53149   -766008.14845  23312147.917    23312153.225
  21718418.900   -11854054.21549  -9208016.97447  21718418.212    21718423.985
  23521929.131    -3513770.31649  -2726042.44645  23521928.507    23521934.671
  22290515.339   -10704088.06949  -8294955.48646  22290515.058    22290521.034
  20986554.601   -16006915.35449 -12010627.23547  20986553.851    20986558.089
  20360766.903   -17289790.52849 -13263369.88848  20360766.455    20360771.676
  22970083.444    -7224432.93449  -5270340.85546  22970082.972    22970089.191
  23345860.969    -2192571.91249  -1692209.69646  23345860.027    23345865.799
 04  1 25  1  6  0.0000000  0  9G10G30G18G16G26G21G 6G29G17
  24005843.870    -1231054.89749   -688392.36144  24005843.331    24005851.473
  23331852.677     -894444.16449   -685323.49645  23331851.957    23331856.996
  21703619.075   -11931827.77849  -9268619.70247  21703618.358    21703624.149
  23512133.190    -3565248.78949  -2766155.46045  23512132.460    23512138.601
  22281082.254   -10753659.03049  -8333582.17746  22281082.008    22281087.935
  20980846.779   -16036910.57749 -12034000.12447  20980845.993    20980850.121
  20363939.808   -17273116.73049 -13250377.31548  20363939.368    20363944.622
  22968052.359    -7235106.83349  -5278658.16146  22968051.908    22968058.055
  23358853.797    -2124293.35649  -1639005.65445  23358852.854    23358858.724
 04  1 25  1  6 30.0000000  0  9G10G30G18G16G26G21G 6G29G17
  24025917.341    -1125567.25449   -606194.17844  24025916.754    24025925.353
  23351568.819     -790832.20349   -604586.93445  23351567.999    23351573.563
  21688888.423   -12009238.19049  -9328939.44947  21688887.675    21688893.435
  23502429.846    -3616239.15749  -2805888.18345  23502429.297    23502435.043
  22271746.025   -10802721.29149  -8371812.45846  22271745.692    22271751.576
  20975175.818   -16066711.37949 -12057221.50847  20975175.019    20975179.200
  20367197.403   -17255997.96649 -13237038.00648  20367196.973    20367202.258
  22966119.748    -7245263.67249  -5286572.53746  22966119.197    22966125.210
  23371856.927    -2055961.41949  -1585759.94545  23371855.931    23371861.510
 04  1 25  1  7  0.0000000  0  9G10G30G18G16G26G21G 6G29G17
  24046013.715    -1019962.42249   -523904.70844  24046012.852    24046021.019
  23371298.269     -687146.27149   -523792.74744  23371298.180    23371304.133
  21674229.096   -12086274.04449  -9388967.34347  21674228.274    21674234.024
  23492821.716    -3666730.07449  -2845231.68345  23492821.178    23492826.803
  22262508.962   -10851261.72049  -8409636.12746  22262508.647    22262514.632
  20969543.856   -16096307.45049 -12080283.36248  20969543.097    20969547.223
  20370541.744   -17238423.60949 -13223343.69348  20370541.288    20370546.567
  22964287.445    -7254892.23149  -5294075.28246  22964286.935    22964292.882
  23384872.040    -1987565.74649  -1532464.62045  23384871.121    23384876.733
 04  1 25  1  7 30.0000000  0  9G10G30G18G16G26G21G 6G29G17
  24066130.380     -914249.05449   -441530.65744  24066129.396    24066137.332
  23391040.701     -583395.56549   -442948.08644  23391040.838    23391046.866
  21659640.034   -12162939.94649  -9448706.96147  21659639.224    21659644.962
  23483307.827    -3716726.04049  -2884189.53845  23483307.254    23483312.815
  22253370.531   -10899283.86049  -8447055.92846  22253370.273    22253376.374
  20963949.655   -16125705.28849 -12103190.75148  20963948.860    20963952.967
  20373971.661   -17220399.22949 -13209298.71348  20373971.203    20373976.481
  22962554.758    -7263997.72949  -5301170.44046  22962554.215    22962559.923
  23397898.357    -1919112.93149  -1479124.73045  23397897.264    23397902.571
 04  1 25  1  8  0.0000000  0  9G10G30G18G16G26G21G 6G29G17
  24086267.428     -808429.07948   -359073.54044  24086265.877    24086274.318
  23410795.576     -479582.58548   -362054.90644  23410795.465    23410801.922
  21645121.673   -12239233.84849  -9508156.70147  21645120.925    21645126.657
  23473888.704    -3766225.01849  -2922760.10045  23473887.976    23473893.593
  22244331.403   -10946784.78049  -8484069.59346  22244331.070    22244337.320
  20958393.160   -16154904.88249 -12125943.66548  20958392.397    20958396.474
  20377487.413   -17201923.93149 -13194902.36848  20377486.949    20377492.239
  22960921.728    -7272578.63449  -5307856.82946  22960921.275    22960926.887
  23410935.139    -1850602.73649  -1425740.17045  23410934.158    23410939.526
 04  1 25  1  8 30.0000000  0  9G10G30G18G16G26G21G 6G29G17
  24106424.627     -702505.16649   -276535.42344  24106422.690    24106430.894
  23430560.740     -375710.03158   -281115.25744  23430561.105    23430567.438
  21630674.423   -12315154.17649  -9567315.34947  21630673.716    21630679.461
  23464564.239    -3815225.50149  -2960942.24345  23464563.560    23464569.356
  22235392.070   -10993761.73849  -8520674.96646  22235391.699    22235398.015
  20952874.448   -16183905.83949 -12148541.80148  20952873.707    20952877.756
  20381089.081   -17182997.24549 -13180154.29048  20381088.606    20381093.889
  22959388.912    -7280634.10449  -5314133.77246  22959388.366    22959393.765
  23423983.295    -1782035.50149  -1372311.14845  23423982.323    23423987.391
 04  1 25  1  9  0.0000000  0  9G10G30G18G16G26G21G 6G29G17
  24126601.525     -596475.33348   -193914.72144  24126599.852    24126607.356
  23450337.440     -271777.13448   -200128.63244  23450338.600    23450345.150
  21616299.281   -12390695.78449  -9626178.89547  21616298.568    21616304.289
  23455335.748    -3863721.99849  -2998731.69145  23455335.050    23455340.704
  22226553.632   -11040207.83149  -8556866.68846  22226553.277    22226559.654
  20947394.290   -16212704.32349 -12170982.16648  20947393.511    20947397.514
  20384777.476   -17163614.45749 -13165050.81548  20384777.012    20384782.332
  22957956.898    -7288159.14949  -5319997.42846  22957956.447    22957961.767
  23437042.883    -1713407.14849  -1318834.51045  23437041.834    23437046.535
 04  1 25  1  9 30.0000000  0 10G10G30G18G16G26G21G 6G29G17G15
  24146797.453     -490346.79948   -111217.15744  24146795.690    24146802.853
  23470125.524     -167790.63148   -119100.21344  23470125.720    23470133.352
  21601995.760   -12465861.34049  -9684749.40347  21601995.030    21602000.694
  23446202.588    -3911717.22249  -3036130.52945  23446201.843    23446207.516
  22217815.888   -11086125.02549  -8592646.26246  22217815.427    22217821.863
  20941951.747   -16241304.92849 -12193268.33948  20941950.969    20941954.967
  20388551.966   -17143779.41549 -13149594.92448  20388551.510    20388556.835
  22956625.284    -7295157.09349  -5325450.33146  22956624.839    22956630.058
  23450113.218    -1644722.33449  -1265313.85645  23450112.235    23450116.563
                   -172045.71749   -113412.94743
 04  1 25  1 10  0.0000000  0 10G10G30G18G16G26G21G 6G29G17G15
  24167011.543     -384121.24648    -28443.98544  24167010.354    24167016.945
  23489922.627      -63752.93548    -38031.92144  23489922.837    23489931.077
  21587764.231   -12540648.73449  -9743025.23947  21587763.442    21587769.060
  23437165.107    -3959209.41349  -3073137.39945  23437164.418    23437169.809
  22209179.027   -11131510.02849  -8628011.15646  22209178.736    22209185.357
  20936547.037   -16269706.97749 -12215399.79648  20936546.251    20936550.241
  20392412.711   -17123491.08049 -13133785.82448  20392412.277    20392417.574
  22955394.173    -7301626.61349  -5330491.47746  22955393.702    22955398.811
  23463194.270    -1575980.62249  -1211748.86045  23463193.199    23463197.363
                   -248555.47749   -173030.98143
 04  1 25  1 10 30.0000000  0 10G10G30G18G16G26G21G 6G29G17G15
  24187244.026     -277801.11548     54402.92444  24187242.641    24187249.118
  23509729.815       40332.99148     43073.98244  23509729.512    23509738.184
  21573604.896   -12615056.37849  -9801005.16647  21573604.105    21573609.703
  23428223.810    -4006197.31849  -3109751.30445  23428223.049    23428228.199
  22200644.139   -11176360.26749  -8662959.34246  22200643.834    22200650.641
  20931180.109   -16297910.62749 -12237376.64748  20931179.316    20931183.318
  20396359.852   -17102749.01049 -13117623.16248  20396359.404    20396364.683
  22954263.767    -7307567.00949  -5335120.31046  22954263.294    22954268.280
  23476286.124    -1507182.38549  -1158139.80645  23476285.165    23476289.081
                   -324983.07549   -232584.81844                  23883228.484
 04  1 25  1 11  0.0000000  0 10G10G30G18G16G26G21G 6G29G17G15
  24207494.724     -171387.30248    137322.79344  24207493.019    24207498.481
  23529546.318      144465.83448    124216.42544  23529544.877    23529553.484
  21559518.319   -12689081.47149  -9858687.00747  21559517.527    21559523.122
  23419378.768    -4052677.91449  -3145969.91245  23419378.082    23419383.050
  22192211.777   -11220671.82349  -8697487.78846  22192211.512    22192218.515
  20925851.116   -16325914.66249 -12259197.96148  20925850.365    20925854.370
  20400393.738   -17081551.28049 -13101105.44748  20400393.232    20400398.503
  22953234.542    -7312975.88549  -5339334.97946  22953234.037    22953238.872
  23489388.948    -1438326.33249  -1104485.71145  23489387.935    23489392.241
  23868700.451     -401327.20449   -292073.62645  23868696.885    23868701.022
 04  1 25  1 11 30.0000000  0 10G10G30G18G16G26G21G 6G29G17G15
  24227761.203      -64888.25249    220309.11244  24227759.781    24227764.836
  23549368.962      248636.51948    205388.37044                  23549367.843
  21545503.520   -12762728.87849  -9916074.54147  21545502.789    21545508.407
  23410629.568    -4098655.77549  -3181796.78345  23410628.809    23410633.612
  22183881.584   -11264448.17249  -8731599.17246  22183881.229    22183888.203
  20920559.017   -16353724.98749 -12280868.32748  20920558.279    20920562.255
  20404513.146   -17059903.60749 -13084237.12248  20404512.650    20404517.927
  22952305.462    -7317858.30149  -5343139.41846  22952305.039    22952309.755
  23502501.624    -1369418.67749  -1050791.41045  23502500.757    23502504.837
  23854185.996     -477593.92749   -351502.13145  23854183.932    23854187.487
 04  1 25  1 12  0.0000000  0 10G10G30G18G16G26G21G 6G29G17G15
  24248044.500       41700.59049    303365.35544  24248042.051    24248048.820
  23569200.104      352849.39848    286593.22644                  23569199.042
  21531562.280   -12835989.91149  -9973161.00547  21531561.630    21531567.225
  23401977.453    -4144122.50249  -3217225.38445  23401976.818    23401981.437
  22175654.891   -11307679.69049  -8765286.01246  22175654.583    22175661.500
  20915305.046   -16381334.66949 -12302382.34348  20915304.286    20915308.322
  20408719.669   -17037798.20649 -13067012.12748  20408719.188    20408724.493
  22951478.031    -7322206.51649  -5346527.59346  22951477.613    22951482.224
  23515625.397    -1300452.48549   -997051.47045  23515624.533    23515628.537
  23839688.146     -553775.94649   -410864.63345  23839686.778    23839690.892
 04  1 25  1 12 30.0000000  0 10G10G30G18G16G26G21G 6G29G17G15
  24268344.075      148373.79348    386487.35844  24268341.366    24268347.832
  23589038.169      457098.87448    367826.56944                  23589037.768
  21517694.404   -12908866.17849 -10029947.64447  21517693.721    21517699.234
  23393422.269    -4189079.70749  -3252256.93445  23393421.572    23393426.424
  22167531.934   -11350366.64549  -8798548.51546  22167531.597    22167538.427
  20910088.624   -16408746.76849 -12323742.39348  20910087.927    20910091.917
  20413012.824   -17015237.56249 -13049432.39948  20413012.336    20413017.655
  22950751.865    -7326022.75349  -5349501.22846  22950751.446    22950755.861
  23528759.747    -1231430.56049   -943268.11545  23528758.979    23528763.114
  23825206.763     -629876.00449   -470163.21445  23825205.723    23825209.863
 04  1 25  1 13  0.0000000  0 11G22G10G30G18G16G26G21G 6G29G17G15
  24353364.799     -380082.23149   -274451.75844  24353363.527    24353369.325
  24288659.157      255131.38548    469675.09044  24288656.593    24288662.383
  23608883.334      561383.98948    449087.68644                  23608882.601
  21503900.453   -12981353.94849 -10086431.57047  21503899.740    21503905.187
  23384964.887    -4233523.97549  -3286888.80945  23384964.266    23384968.959
  22159513.208   -11392504.51449  -8831383.17846  22159512.919    22159519.812
  20904910.390   -16435959.08649 -12344946.76848  20904909.642    20904913.552
  20417393.031   -16992219.28849 -13031496.07548  20417392.563    20417397.877
  22950127.483    -7329303.89749  -5352057.91346  22950126.978    22950131.338
  23541905.304    -1162351.33149   -889440.10545  23541904.249    23541908.613
  23810741.604     -705891.89249   -529396.23345  23810740.288    23810744.545
 04  1 25  1 13 30.0000000  0 11G22G10G30G18G16G26G21G 6G29G17G15
  24333341.475     -485292.14549   -356433.29244  24333341.648    24333348.457
  24308990.039      361968.69048    552924.98844  24308987.209    24308993.367
  23628733.642      665700.03748    530372.91244                  23628733.299
  21490180.215   -13053454.18449 -10142613.51447  21490179.478    21490184.928
  23376604.963    -4277455.93549  -3321121.46445  23376604.343    23376608.998
  22151598.981   -11434093.11649  -8863789.82846  22151598.727    22151605.712
  20899769.713   -16462973.69349 -12365997.07948  20899768.961    20899772.866
  20421860.072   -16968745.10349 -13013204.49048  20421859.591    20421864.894
  22949604.402    -7332051.58049  -5354198.92446  22949604.100    22949608.393
  23555060.707    -1093216.87349   -835569.05645  23555059.702    23555064.863
  23796291.635     -781825.95749   -588565.50745  23796290.172    23796294.861
 04  1 25  1 14  0.0000000  0 11G22G10G30G18G16G26G21G 6G29G17G15
  24313350.950     -590350.05349   -438296.37444  24313349.369    24313356.033
  24329336.898      468888.45448    636239.10744  24329332.913    24329340.115
                    770049.16748   2431133.42443
  21476535.055   -13125159.99049 -10198488.12547  21476534.315    21476539.757
  23368343.548    -4320869.50049  -3354950.20745  23368342.913    23368347.475
  22143790.745   -11475124.70749  -8895762.46546  22143790.513    22143797.608
  20894667.642   -16489785.56449 -12386889.42348  20894666.853    20894670.724
  20426414.836   -16944809.61049 -12994553.45648  20426414.378    20426419.675
  22949184.202    -7334259.97449  -5355919.71846  22949183.861    22949188.113
  23568227.771    -1024022.40449   -781651.25445  23568226.687    23568232.506
  23781857.974     -857672.82249   -647666.85545  23781856.853    23781861.485
 04  1 25  1 14 30.0000000  0 11G22G10G30G18G16G26G21G 6G29G17G15
  24293387.246     -695259.68849   -520043.94644  24293385.810    24293392.294
  24349696.880      575882.47448    719611.06144  24349694.246    24349701.121
                    874422.78348   2512459.54743
  21462963.920   -13196476.21349 -10254059.16347  21462963.240    21462968.737
  23360179.959    -4363768.88549  -3388378.26045  23360179.284    23360183.825
  22136087.767   -11515602.92049  -8927303.89346  22136087.606    22136094.844
  20889603.020   -16516400.42149 -12407628.24448  20889602.209    20889606.095
  20431056.371   -16920418.18249 -12975547.13948  20431055.914    20431061.225
  22948865.652    -7335934.21849  -5357224.28246  22948865.291    22948869.545
  23581404.771     -954773.81449   -727691.27945  23581403.754    23581410.231
  23767440.112     -933438.52949   -706704.93745  23767438.965    23767443.959
 04  1 25  1 15  0.0000000  0 11G22G10G30G18G16G26G21G 6G29G17G15
  24273451.961     -800019.52249   -601674.79044  24273450.810    24273456.727
  24370070.555      682947.91948    803038.77644                  24370067.360
                    978817.70748   2593784.12743
  21449467.146   -13267401.91449 -10309325.89547  21449466.503    21449471.983
  23352114.118    -4406153.42849  -3421405.17445  23352113.658    23352117.969
  22128490.640   -11555525.49549  -8958412.34846  22128490.465    22128497.801
  20884575.669   -16542819.17349 -12428214.25648  20884574.870    20884578.793
  20435784.684   -16895570.85849 -12956185.58348  20435784.211    20435789.514
  22948648.774    -7337073.86549  -5358112.27946  22948648.411    22948652.614
  23594592.054     -885471.50249   -673689.45945  23594591.215    23594598.306
  23753037.967    -1009123.40749   -765680.07545  23753036.705    23753042.051
 04  1 25  1 15 30.0000000  0 11G22G10G30G18G16G26G21G 6G29G17G15
  24253546.849     -904622.34749   -683183.33244  24253545.650    24253551.275
                    790088.41948    886524.91244
                   1083236.43848   2675127.32943
  21436046.087   -13337930.27149 -10364283.01447  21436045.454    21436050.862
  23344147.897    -4448016.62449  -3454025.82645  23344147.313    23344151.607
  22121000.743   -11594884.83449  -8989081.91846  22121000.580    22121008.009
  20879586.718   -16569036.29949 -12448643.16148  20879585.894    20879589.826
  20440600.825   -16870261.89549 -12936464.30048  20440600.367    20440605.660
  22948534.840    -7337673.08649  -5358579.16546  22948534.360    22948538.527
  23607790.677     -816110.45049   -619641.84945  23607789.958    23607797.606
  23738652.318    -1084721.88349   -824587.85645  23738650.893    23738656.436
 04  1 25  1 16  0.0000000  0 11G22G10G30G18G16G26G21G 6G29G17G15
  24233671.395    -1009072.33649   -764572.78544  24233669.561    24233674.798
                    897294.77458    970062.35344
                   1187670.22148   2525481.55443
  21422699.736   -13408066.24149 -10418934.37547  21422699.054    21422704.383
  23336280.007    -4489363.15449  -3486243.86945  23336279.359    23336283.595
  22113617.330   -11633684.75949  -9019315.58146  22113617.191    22113624.592
  20874634.931   -16595057.92949 -12468919.72948  20874634.102    20874638.071
  20445503.727   -16844497.20949 -12916387.91348  20445503.233    20445508.553
  22948522.521    -7337737.45349  -5358629.28446  22948522.049    22948526.245
  23620998.921     -746696.99149   -565553.38745  23620998.384    23621006.714
  23724281.996    -1160240.05049   -883433.05944  23724280.472    23724285.957
 04  1 25  1 16 30.0000000  0 11G22G10G30G18G16G26G21G 6G29G17G15
  24213826.309    -1113360.69949   -845836.31344  24213824.458    24213829.492
                   1004572.18057   2526272.12843
                   1292123.23448   2606895.74343
  21409429.626   -13477801.40449 -10473273.42247  21409428.871    21409434.155
  23328511.661    -4530184.96849  -3518053.05545  23328511.207    23328515.441
  22106342.284   -11671915.82449  -9049105.97546  22106342.177    22106349.448
  20869721.713   -16620876.93649 -12489038.40948  20869720.883    20869724.846
  20450494.674   -16818269.56949 -12895950.78248  20450494.168    20450499.522
  22948613.444    -7337259.25049  -5358256.60546  22948612.976    22948617.201
  23634219.103     -677223.81149   -511418.36645  23634218.541    23634227.107
  23709927.664    -1235670.84149   -942210.23944  23709926.459    23709932.005
 04  1 25  1 17  0.0000000  0 11G22G10G30G18G16G26G21G 6G29G17G15
  24194010.902    -1217492.12049   -926977.57944  24194008.907    24194013.662
                   1111911.55658   2610005.76143
                   1396585.93248   2688317.39843
  21396234.783   -13547141.11249 -10527304.32247  21396233.995    21396239.257
  23320842.385    -4570487.48649  -3549457.60745  23320841.778    23320846.099
  22099174.607   -11709582.41649  -9078456.52646  22099174.510    22099181.608
  20864845.755   -16646500.01049 -12509004.41648  20864844.929    20864848.929
  20455572.508   -16791585.11049 -12875157.68948  20455572.022    20455577.390
  22948806.524    -7336244.52349  -5357465.87246  22948806.052    22948810.225
  23647449.748     -607697.93049   -457242.34145  23647448.962    23647457.733
  23695589.533    -1311021.15649  -1000924.65744  23695588.354    23695593.497
 04  1 25  1 17 30.0000000  0 10G22G30G18G16G26G21G 6G29G17G15
  24174226.152    -1321459.48349  -1007991.02744  24174224.682    24174229.352
                   1501060.72148   2538689.85443
  21383116.294   -13616079.16949 -10581022.24547  21383115.477    21383120.733
  23313272.991    -4610264.37749  -3580452.54645  23313272.428    23313276.489
  22092115.808   -11746677.03949  -9107361.37346  22092115.686    22092122.666
  20860008.042   -16671921.99449 -12528813.72548  20860007.208    20860011.280
  20460738.308   -16764438.46549 -12854004.45348  20460737.816    20460743.193
  22949102.876    -7334687.74449  -5356252.76346  22949102.288    22949106.478
  23660690.834     -538114.40249   -403021.37045  23660690.185    23660699.291
  23681268.265    -1386285.55449  -1059572.12244  23681267.267    23681271.205
 04  1 25  1 18  0.0000000  0 10G22G30G18G16G26G21G 6G29G17G15
  24154471.961    -1425266.95449  -1088879.90744  24154470.498    24154475.493
                   1605538.84148   2620099.63343
  21370073.399   -13684619.94049 -10634430.60047  21370072.597    21370077.819
  23305802.444    -4649520.65549  -3611041.82545  23305801.920    23305805.878
  22085165.056   -11783203.38649  -9135823.41446  22085164.978    22085171.834
  20855207.392   -16697149.15849 -12548471.22948  20855206.561    20855210.683
  20465990.915   -16736835.40449 -12832495.56948  20465990.450    20465995.853
  22949501.145    -7332594.20449  -5354621.40646  22949500.562    22949504.871
  23673941.584     -468479.35849   -348760.22745  23673940.972    23673950.430
  23666961.512    -1461469.78449  -1118157.16244  23666960.853    23666964.222
 04  1 25  1 18 30.0000000  0 10G22G30G18G16G26G21G 6G29G17G15
  24134749.723    -1528903.64549  -1169635.75245  24134749.012    24134754.105
                   1710026.76648   2701517.08843
  21357108.042   -13752753.12749 -10687521.35847  21357107.252    21357112.437
                  -4688245.92649  -3641217.35645
  22078324.554   -11819150.40349  -9163834.03546  22078324.514    22078331.302
  20850445.511   -16722172.38449 -12567969.82448  20850444.718    20850448.888
  20471332.152   -16708766.67749 -12810623.83148  20471331.702    20471337.122
  22950003.203    -7329954.48949  -5352564.44046  22950002.714    22950007.198
  23687204.671     -398783.46449   -294451.69745  23687204.029    23687213.347
  23652671.526    -1536564.79349  -1176672.68844  23652670.728    23652674.112
 04  1 25  1 19  0.0000000  0 10G22G30G18G16G26G21G 6G29G17G15
  24115058.790    -1632378.49649  -1250265.50645  24115058.104    24115063.413
                   1814510.74349   2551942.64043
  21344218.393   -13820488.52449 -10740302.14647  21344217.626    21344222.749
  23291163.196    -4726450.15749  -3670986.85545  23291162.675    23291165.944
  22071592.769   -11854526.64349  -9191399.88246  22071592.694    22071599.352
  20845720.450   -16747002.26349 -12587317.75448  20845719.669    20845723.863
  20476759.972   -16680242.99349 -12788397.58148  20476759.514    20476764.953
  22950607.390    -7326779.00449  -5350090.00946  22950606.945    22950611.516
  23700477.059     -329038.02449   -240104.57045  23700476.093    23700485.508
  23638396.067    -1611581.57849  -1235127.28044  23638395.190    23638399.106
 04  1 25  1 19 30.0000000  0 10G22G30G18G16G26G21G 6G29G17G15
  24095400.198    -1735681.60849  -1330761.43145  24095399.982    24095405.640
                   1918996.04549   2633358.60243
  21331406.271   -13887816.69649 -10792765.61847  21331405.495    21331410.521
  23283993.827    -4764124.18549  -3700343.23245  23283993.308    23283996.561
  22064971.572   -11889321.64949  -9218512.82446  22064971.478    22064978.077
  20841033.803   -16771630.84349 -12606508.82848  20841032.963    20841037.176
  20482275.910   -16651256.09949 -12765810.38248  20482275.476    20482280.948
  22951315.293    -7323059.11249  -5347191.35646  22951314.855    22951319.277
  23713759.697     -259235.10249   -185712.61545  23713758.836    23713768.515
  23624136.913    -1686512.07949  -1293514.63744  23624136.401    23624139.930
 04  1 25  1 20  0.0000000  0 10G22G30G18G16G26G21G 6G29G17G15
  24075774.373    -1838813.10449  -1411123.65745  24075774.379    24075780.492
                   2023477.78749   2714771.65643
  21318671.463   -13954738.93149 -10844912.76647  21318670.612    21318675.583
  23276925.219    -4801269.37149  -3729287.49945  23276924.591    23276927.934
  22058460.888   -11923535.78149  -9245173.13246  22058460.756    22058467.272
  20836384.910   -16796060.45049 -12625544.86248  20836384.072    20836388.384
  20487879.674   -16621808.01149 -12742863.81648  20487879.217    20487884.707
  22952126.409    -7318796.50749  -5343869.80846  22952125.974    22952130.391
  23727053.321     -189376.86349   -131277.60745  23727052.454    23727062.265
  23609893.766    -1761358.24549  -1351836.27344  23609893.163    23609896.468
 04  1 25  1 20 30.0000000  0 10G22G30G18G16G26G21G 6G29G17G15
  24056181.811    -1941771.16049  -1491350.72745  24056182.012    24056188.254
                   2127953.18549   2565271.56743
  21306014.009   -14021253.77349 -10896742.47347  21306013.224    21306018.129
  23269957.329    -4837884.32549  -3757818.60145  23269956.784    23269960.247
  22052061.004   -11957166.59849  -9271378.91846  22052060.896    22052067.482
  20831773.765   -16820291.32849 -12644426.04948  20831772.994    20831777.374
  20493571.231   -16591898.37749 -12719557.60848  20493570.766    20493576.313
  22953040.754    -7313991.18949  -5340125.36846  22953040.301    22953044.825
  23740357.088     -119463.42149    -76799.56245  23740356.204    23740366.355
  23595665.877    -1836120.03749  -1410092.21044  23595665.422    23595670.077
 04  1 25  1 21  0.0000000  0 10G22G30G18G16G26G21G 6G29G17G15
  24036622.236    -2044557.69549  -1571444.12545  24036622.592    24036628.831
                   2232415.99448   2646672.89443
  21293433.701   -14087363.48549 -10948256.48747  21293432.923    21293437.802
  23263089.928    -4873971.62949  -3785938.56245  23263089.358    23263092.851
  22045771.791   -11990215.72549  -9297131.42446  22045771.730    22045778.375
  20827200.054   -16844326.51449 -12663154.74348  20827199.230    20827203.607
  20499349.948   -16561530.51949 -12695894.33148  20499349.486    20499355.107
  22954057.901    -7308646.04249  -5335960.28646  22954057.427    22954061.952
  23753670.723      -49498.41249    -22281.33945  23753669.987    23753680.220
  23581454.156    -1910801.08849  -1468285.14844  23581453.053    23581458.795
 04  1 25  1 21 30.0000000  0 10G22G30G18G16G26G21G 6G29G17G15
  24017097.066    -2147164.05149  -1651397.08745  24017097.239    24017103.426
                   2336869.98048   2728067.55343
  21280931.806   -14153060.95849 -10999449.28047  21280931.048    21280935.887
  23256324.788    -4909524.04249  -3813641.73645  23256324.172    23256327.301
  22039594.929   -12022674.71849  -9322424.10146  22039594.886    22039601.510
  20822664.650   -16868159.79449 -12681726.11448  20822663.820    20822668.256
  20505217.160   -16530697.94149 -12671868.94248  20505216.704    20505222.322
  22955178.933    -7302754.39149  -5331369.35146  22955178.471    22955183.060
  23766995.631       20524.53149     32282.04045  23766994.832    23767005.076
  23567258.268    -1985394.84748  -1526410.09144  23567257.110    23567263.845
 04  1 25  1 22  0.0000000  0 10G22G30G18G16G26G21G 6G29G17G15
  23997605.127    -2249594.48849  -1731212.94445  23997605.582    23997611.569
                   2441306.37348   2578918.30143
  21268507.593   -14218350.47449 -11050324.17647  21268506.849    21268511.615
  23249660.221    -4944546.65049  -3840932.06845  23249659.486    23249662.593
  22033529.782   -12054547.33649  -9347259.84546  22033529.695    22033536.259
  20818166.622   -16891797.13849 -12700144.80248  20818165.784    20818170.195
  20511171.656   -16499406.48749 -12647485.98448  20511171.202    20511176.851
  22956402.928    -7296321.76149  -5326356.86846  22956402.454    22956407.076
  23780330.535       90599.44949     86885.88545  23780329.700    23780339.966
  23553077.928    -2059907.06748  -1584471.48744  23553076.957    23553084.526
 04  1 25  1 22 30.0000000  0 10G22G30G18G16G26G21G 6G29G17G15
  23978147.799    -2351844.78849  -1810888.37045  23978148.193    23978154.003
                   2545724.95048   2660283.06643
  21256161.691   -14283228.70149 -11100878.58547  21256160.926    21256165.601
  23243097.065    -4979035.68649  -3867806.61945  23243096.349    23243099.626
  22027577.053   -12085829.20849  -9371635.27846  22027576.936    22027583.466
  20813706.244   -16915236.04249 -12718408.87248  20813705.422    20813709.868
  20517214.016   -16467653.71749 -12622743.56248  20517213.509    20517219.155
  22957730.283    -7289345.57649  -5320920.84246  22957729.885    22957734.470
  23793675.673      160728.50449    141531.93645  23793675.011    23793684.916
  23538913.744    -2134335.60449  -1642467.61544  23538912.621    23538921.249
 04  1 25  1 23  0.0000000  0 10G22G30G18G16G26G21G 6G29G17G15
  23958724.834    -2453911.86749  -1890421.00145  23958725.529    23958731.186
                   2650124.10649   2741633.21044                  24006371.207
  21243894.391   -14347693.31849 -11151110.70047  21243893.639    21243898.313
  23236635.798    -5012989.45749  -3894264.06045  23236635.202    23236638.223
  22021737.370   -12116517.09449  -9395547.85546  22021737.219    22021743.702
  20809283.846   -16938475.37149 -12736517.42548  20809283.033    20809287.556
  20523344.395   -16435438.24449 -12597640.59248  20523343.915    20523349.548
  22959161.648    -7281824.30249  -5315060.05146  22959161.114    22959165.637
  23807031.553      230912.94849    196221.17345  23807030.875    23807040.704
  23524765.883    -2208678.80848  -1700397.25345  23524764.846    23524774.461
 04  1 25  1 23 30.0000000  0 10G22G30G18G16G26G21G 6G29G17G15
  23939336.322    -2555799.26549  -1969813.57745  23939337.102    23939342.497
  24026219.961     2754496.04149   2822961.99044  24026224.592    24026231.716
  21231704.981   -14411748.42249 -11201023.71847  21231704.277    21231708.963
  23230275.962    -5046412.08849  -3920307.65745  23230275.335    23230278.289
  22016009.946   -12146614.28449  -9419000.16446  22016009.854    22016016.380
  20804898.465   -16961520.22249 -12754474.44348  20804897.699    20804902.227
  20529561.870   -16402765.26849 -12572181.12748  20529561.400    20529567.026
  22960695.410    -7273763.00049  -5308778.48546  22960694.961    22960699.646
  23820396.895      301147.35049    250949.29745  23820396.182    23820405.975
  23510632.180    -2282942.06748  -1758264.61945  23510631.711    23510642.866
 04  1 25  1 24  0.0000000  0 10G22G30G18G16G26G21G 6G29G17G15
  23919983.453    -2657498.97749  -2049059.87544  23919983.812    23919989.361
  24046077.488     2858843.99949   2904272.04544  24046075.298    24046088.910
  21219594.912   -14475386.82549 -11250612.03247  21219594.221    21219598.908
  23224018.298    -5079296.60749  -3945931.95445  23224017.617    23224020.491
  22010396.538   -12176112.74449  -9441985.92346  22010396.440    22010402.999
  20800551.279   -16984364.52249 -12772275.18248  20800550.519    20800555.080
  20535867.527   -16369628.66149 -12546360.38648  20535867.035    20535872.658
  22962333.398    -7265155.13249  -5302071.03346  22962332.858    22962337.636
  23833773.009      371437.72449    305721.05945  23833772.233    23833781.764
  23496516.081    -2357119.31248  -1816064.89145  23496515.443    23496527.497
 04  1 25  1 24 30.0000000  0 10G22G30G18G16G26G21G 6G29G17G15
  23900665.777    -2759011.70449  -2128160.47545  23900666.004    23900671.643
  24065928.887     2963162.67049   2985559.32244  24065928.523    24065940.229
  21207563.966   -14538610.08049 -11299876.84947  21207563.220    21207567.883
  23217862.645    -5111644.85249  -3971138.34845  23217861.999    23217864.827
  22004896.969   -12205013.20149  -9464505.70146  22004896.757    22004903.321
  20796241.735   -17007010.94149 -12789921.72748  20796241.032    20796245.571
  20542260.878   -16336031.08749 -12520180.45748  20542260.389    20542266.047
  22964074.823    -7256003.41949  -5294939.79046  22964074.292    22964079.175
  23847159.170      441781.73149    360534.62445  23847158.425    23847167.840
  23482415.749    -2431212.97449  -1873800.09045  23482415.322    23482427.898
 04  1 25  1 25  0.0000000  0 10G22G30G18G16G26G21G 6G29G17G15
  23881384.148    -2860336.75049  -2207114.82545  23881384.102    23881389.924
  24085773.587     3067448.57049   3066821.06344  24085773.827    24085785.133
  21195611.894   -14601418.06349 -11348818.07947  21195611.194    21195615.794
  23211808.852    -5143457.13049  -3995927.13445  23211808.429    23211811.123
  21999511.277   -12233314.69449  -9486558.76846  21999511.085    21999517.655
  20791969.984   -17029460.09849 -12807414.55848  20791969.219    20791973.651
  20548741.744   -16301973.35549 -12493641.95748  20548741.293    20548746.987
  22965919.553    -7246308.50449  -5287385.28246  22965919.016    22965924.048
  23860555.407      512178.01749    415388.90845  23860554.562    23860564.046
  23468331.668    -2505224.11348  -1931470.99345  23468331.223    23468343.801
 04  1 25  1 25 30.0000000  0 10G22G30G18G16G26G21G 6G29G17G15
  23862139.032    -2961469.72249  -2285919.49145  23862138.685    23862144.549
  24105612.697     3171701.53448   3148057.15744  24105613.101    24105623.557
  21183739.560   -14663807.15449 -11397432.90447  21183738.873    21183743.481
  23205857.994    -5174729.73549  -4020295.38745  23205857.399    23205860.357
  21994240.477   -12261012.66049  -9508141.54946  21994240.284    21994246.847
  20787735.989   -17051709.75349 -12824751.93948  20787735.220    20787739.668
  20555310.739   -16267452.84149 -12466742.85048  20555310.285    20555315.996
  22967868.131    -7236067.40949  -5279405.17346  22967867.677    22967872.820
  23873961.992      582629.26449    470286.04845  23873961.140    23873970.425
  23454263.090    -2579149.84249  -1989075.33945  23454263.142    23454276.077
 04  1 25  1 26  0.0000000  0 10G22G30G18G16G26G21G 6G29G17G15
  23842930.141    -3062410.66449  -2364574.55045  23842929.635    23842935.829
  24125443.816     3275917.02748   3229264.02844  24125444.233    24125454.838
  21171946.763   -14725778.23349 -11445721.99747  21171946.097    21171950.730
  23200009.223    -5205464.10449  -4044244.22145  23200008.729    23200011.979
  21989084.516   -12288107.38449  -9529254.27646  21989084.334    21989090.854
  20783539.625   -17073761.54549 -12841935.13348  20783538.885    20783543.270
  20561967.457   -16232471.64149 -12439484.76548  20561966.996    20561972.722
  22969920.244    -7225282.23149  -5271001.09346  22969919.975    22969925.126
  23887378.642      653133.35649    525224.32745  23887377.752    23887386.761
  23440211.348    -2652992.28549  -2046614.81545  23440211.439    23440224.168
 04  1 25  1 26 30.0000000  0 10G22G30G18G16G26G21G 6G29G17G15
  23823758.283    -3163157.39449  -2443078.24545  23823757.816    23823763.918
  24145267.028     3380092.71648   3310439.85844  24145268.319    24145278.378
  21160233.847   -14787329.85849 -11493684.26247  21160233.155    21160237.785
  23194263.488    -5235658.76749  -4067772.54245  23194262.886    23194265.979
  21984043.760   -12314596.45049  -9549895.06646  21984043.543    21984050.030
  20779381.087   -17095615.15249 -12858963.90248  20779380.304    20779384.662
  20568711.954   -16197029.20849 -12411867.28848  20568711.497    20568717.178
  22972076.334    -7213952.42049  -5262172.65146  22972076.033    22972081.111
  23900805.336      723690.77649    580204.20645  23900804.488    23900813.473
  23426176.391    -2726750.95749  -2104088.95145  23426175.756    23426188.261
 04  1 25  1 27  0.0000000  0 10G22G30G18G16G26G21G 6G29G17G15
  23804623.613    -3263707.28749  -2521428.60945  23804623.383    23804629.467
  24165083.088     3484226.86248   3391583.33544  24165083.952    24165094.283
  21148601.160   -14848460.27749 -11541318.29847  21148600.419    21148605.035
  23188620.483    -5265312.44549  -4090879.29545  23188619.933    23188623.466
  21979118.716   -12340477.25249  -9570061.86446  21979118.553    21979125.059
  20775260.435   -17117269.53549 -12875837.42748  20775259.707    20775263.956
  20575544.379   -16161124.72849 -12383889.76748  20575543.917    20575549.550
  22974336.183    -7202077.10449  -5252919.11346  22974335.808    22974340.943
  23914242.422      794302.46049    635226.36645  23914241.465    23914250.236
  23412156.815    -2800424.87249  -2161497.09845  23412156.201    23412168.384
 04  1 25  1 27 30.0000000  0 10G22G30G18G16G26G21G 6G29G17G15
  23785526.686    -3364061.50049  -2599626.45345  23785526.373    23785532.251
  24184890.106     3588313.93748   3472690.15544  24184890.937    24184901.055
  21137048.147   -14909171.43649 -11588625.65047  21137047.437    21137052.065
  23183080.165    -5294427.03149  -4113565.97445  23183079.559    23183083.231
  21974309.290   -12365750.81249  -9589755.50546  21974309.052    21974315.576
  20771177.251   -17138727.50049 -12892557.89548  20771176.424    20771180.611
  20582464.135   -16124761.17949 -12355554.53148  20582463.687    20582469.272
  22976699.270    -7189659.05449  -5243242.67346  22976698.832    22976704.070
  23927689.205      864965.31849    690288.34845  23927688.365    23927696.599
  23398152.678    -2874016.99449  -2218841.51445  23398152.176    23398163.881
 04  1 25  1 28  0.0000000  0 10G22G30G18G16G26G21G 6G29G17G15
  23766467.711    -3464214.74249  -2677667.73845  23766467.678    23766473.466
  24204688.455     3692354.72048   3553760.88744  24204689.244    24204699.635
  21125575.788   -14969458.99349 -11635602.92247  21125575.049    21125579.696
  23177642.870    -5322998.45449  -4135829.39945  23177642.472    23177646.479
  21969616.383   -12390412.07449  -9608972.02046  21969616.171    21969622.724
  20767131.924   -17159985.53249 -12909122.57748  20767131.154    20767135.299
  20589471.975   -16087935.08249 -12326858.86948  20589471.505    20589477.061
  22979166.240    -7176694.68749  -5233140.52846  22979165.795    22979171.222
  23941146.166      935682.84349    745392.98845  23941145.282    23941153.936
  23384165.327    -2947523.26449  -2276119.02045  23384164.678    23384175.861
 04  1 25  1 28 30.0000000  0 10G22G30G18G16G26G21G 6G29G17G15
  23747447.096    -3564168.92849  -2755553.88645  23747446.895    23747452.392
  24224477.062     3796342.88349   3634790.61644  24224477.374    24224488.198
  21114183.587   -15029325.19649 -11682251.86448  21114182.875    21114187.502
  23172308.649    -5351029.89849  -4157672.08745  23172308.205    23172312.220
  21965039.513   -12414463.05749  -9627713.00846  21965039.399    21965045.851
  20763123.976   -17181047.55249 -12925534.52248  20763123.179    20763127.299
  20596567.044   -16050650.22249 -12297805.72748  20596566.584    20596572.145
  22981736.540    -7163187.56549  -5222615.46146  22981736.066    22981741.620
  23954612.895     1006451.55349    800537.52644  23954612.007    23954620.496
  23370193.637    -3020947.48749  -2333332.63045  23370192.862    23370203.378
 04  1 25  1 29  0.0000000  0 10G22G30G18G16G26G21G 6G29G17G15
  23728465.460    -3663918.37949  -2833280.52445  23728464.956    23728470.276
  24244256.071     3900279.73549   3715780.37044  24244256.201    24244266.916
  21102872.407   -15088765.51649 -11728568.96748  21102871.696    21102876.336
  23167078.012    -5378516.81049  -4179090.44645  23167077.676    23167081.668
  21960580.004   -12437898.07049  -9645974.01547  21960579.837    21960586.302
  20759154.155   -17201909.30149 -12941790.41448  20759153.367    20759157.430
  20603750.161   -16012902.86349 -12268392.20448  20603749.711    20603755.275
  22984410.751    -7149133.91849  -5211664.53246  22984410.274    22984416.035
  23968090.285     1077275.00549    855724.63044  23968089.346    23968097.579
  23356238.185    -3094285.62749  -2390479.15345  23356237.213    23356247.726
 04  1 25  1 29 30.0000000  0 10G22G30G18G16G26G21G 6G29G17G15
  23709523.132    -3763463.07349  -2910847.60745  23709522.020    23709527.141
  24264024.008     4004160.90348   3796726.75344  24264024.195    24264034.704
  21091642.152   -15147780.69549 -11774554.77948  21091641.421    21091646.081
  23161950.963    -5405459.98049  -4200085.12045  23161950.455    23161954.692
  21956237.716   -12460717.15549  -9663755.06647  21956237.553    21956243.963
  20755222.163   -17222572.40749 -12957891.51348  20755221.369    20755225.344
  20611020.838   -15974695.04749 -12238619.87348  20611020.397    20611026.007
  22987188.622    -7134535.77749  -5200289.31146  22987188.171    22987193.948
  23981578.004     1148151.79749    910953.34944  23981576.997    23981585.030
  23342298.837    -3167539.57549  -2447560.12545  23342297.733    23342307.999
 04  1 25  1 30  0.0000000  0 10G22G30G18G16G26G21G 6G29G17G15
  23690619.020    -3862804.24149  -2988256.09645  23690617.916    23690622.788
  24283780.119     4107981.10649   3877625.59744  24283780.568    24283791.369
  21080492.380   -15206372.57449 -11820210.75148  21080491.719    21080496.355
  23156926.950    -5431861.79149  -4220657.94545  23156926.423    23156930.634
  21952012.485   -12482921.56449  -9681057.17447  21952012.288    21952018.611
  20751327.341   -17243039.74349 -12973840.06748  20751326.536    20751330.463
  20618378.680   -15936029.67249 -12208491.00848  20618378.234    20618383.823
  22990069.651    -7119395.72249  -5188491.82546  22990069.246    22990074.963
  23995074.585     1219078.72948    966221.16744  23995074.405    23995081.324
  23328375.159    -3240711.94249  -2504577.46445  23328373.982    23328383.721
 04  1 25  1 30 30.0000000  0 10G22G30G18G16G26G21G 6G29G17G15
  23671755.366    -3961932.46649  -3065498.69245  23671754.515    23671759.071
  24303526.250     4211744.92649   3958480.52144  24303525.969    24303536.601
  21069424.856   -15264532.87949 -11865530.43348  21069424.161    21069428.718
  23152007.294    -5457714.34349  -4240802.77945  23152006.839    23152011.332
  21947905.895   -12504502.47949  -9697873.43647  21947905.601    21947911.835
  20747471.187   -17263303.87649 -12989630.28248  20747470.375    20747474.276
  20625824.905   -15896899.55549 -12178000.00348  20625824.449    20625830.014
  22993055.160    -7103706.54949  -5176266.45946  22993054.719    22993060.357
  24008582.326     1290063.42849   1021533.91044  24008582.217    24008589.402
  23314467.879    -3313795.37849  -2561525.56945  23314466.850    23314476.459
 04  1 25  1 31  0.0000000  0 10G22G30G18G16G26G21G 6G29G17G15
  23652931.312    -4060853.29949  -3142579.66545  23652930.477    23652934.716
  24323260.216     4315442.72049   4039283.95644  24323258.690    24323269.293
  21058438.213   -15322268.05749 -11910518.84948  21058437.477    21058441.975
  23147191.321    -5483024.18149  -4260524.73646  23147190.753    23147195.283
  21943916.681   -12525465.30849  -9714208.06647  21943916.502    21943922.674
  20743652.438   -17283371.58149 -13005267.43348  20743651.649    20743655.493
  20633358.281   -15857311.96249 -12147152.52548  20633357.784    20633363.271
  22996143.784    -7087475.50249  -5163618.86046  22996143.361    22996149.042
  24022099.558     1361098.53748   1076885.88244  24022099.159    24022107.085
  23300576.398    -3386796.83649  -2618409.76645  23300575.357    23300584.589
 04  1 25  1 31 30.0000000  0 10G22G30G18G16G26G21G 6G29G17G15
  23634147.042    -4159563.56649  -3219496.60045  23634146.342    23634150.435
  24342979.706     4419073.36248   4120035.10844  24342978.826    24342989.215
  21047532.986   -15379575.28249 -11955173.79648  21047532.257    21047536.729
  23142478.749    -5507789.26249  -4279822.18646  23142478.076    23142482.784
  21940045.875   -12545807.04749  -9730058.73147  21940045.622    21940051.696
  20739871.395   -17303241.22849 -13020750.25948  20739870.527    20739874.420
  20640978.912   -15817265.27449 -12115947.31048  20640978.428    20640983.874
  22999335.791    -7070701.08249  -5150547.85146  22999335.362    22999340.985
  24035627.194     1432185.69249   1132278.50844  24035626.779    24035634.675
  23286700.757    -3459714.57249  -2675228.73045  23286699.773    23286708.803
 04  1 25  1 32  0.0000000  0 10G22G30G18G16G26G21G 6G29G17G15
  23615403.617    -4258059.30949  -3296246.35845  23615403.106    23615407.177
  24362685.972     4522636.41748   4200733.56344  24362685.726    24362696.681
  21036709.684   -15436451.87849 -11999493.18548  21036708.950    21036713.421
  23137870.301    -5532006.92549  -4298693.07446  23137869.636    23137874.569
  21936293.753   -12565524.03249  -9745422.57047  21936293.520    21936299.564
  20736128.243   -17322910.86549 -13036077.22848  20736127.478    20736131.402
  20648687.199   -15776757.87249 -12084383.09648  20648686.742    20648692.154
  23002631.582    -7053381.50649  -5137052.04446  23002631.210    23002636.836
  24049165.461     1503326.79449   1187713.25444  24049165.119    24049172.291
  23272841.209    -3532546.77849  -2731981.06245  23272840.328    23272849.243
 04  1 25  1 32 30.0000000  0 10G22G30G18G16G26G21G 6G29G17G15
  23596701.597    -4356338.83249  -3372827.65945  23596701.064    23596704.987
  24382379.555     4626129.48448   4281377.44544  24382379.150    24382390.442
  21025968.404   -15492897.09449 -12043476.43348  21025967.715    21025972.248
  23133366.038    -5555676.69849  -4317137.02546  23133365.424    23133370.532
  21932660.931   -12584614.66849  -9760298.34047  21932660.725    21932666.665
  20732423.428   -17342380.19049 -13051248.10848  20732422.613    20732426.482
  20656483.180   -15735789.81649 -12052459.93148  20656482.705    20656488.112
  23006031.231    -7035516.85149  -5123131.49546  23006030.826    23006036.401
  24062713.592     1574522.20649   1243190.12644  24062713.369    24062720.602
  23258998.100    -3605293.20649  -2788666.56145  23258997.251    23259006.054
 04  1 25  1 33  0.0000000  0 10G22G30G18G16G26G21G 6G29G17G15
  23578040.130    -4454401.72849  -3449240.20445  23578039.853    23578044.081
  24402058.822     4729546.50248   4361962.16244  24402058.894
  21015309.210   -15548911.38049 -12087123.90048  21015308.525    21015313.067
  23128966.108    -5578799.56649  -4335154.85846  23128965.400    23128970.523
  21929147.245   -12603079.01949  -9774686.11347  21929147.008    21929152.960
  20728756.307   -17361650.66249 -13066264.04648  20728755.511    20728759.402
  20664366.454   -15694362.71949 -12020179.08048  20664366.007    20664371.417
  23009534.322    -7017108.56849  -5108787.34846  23009533.921    23009539.448
  24076272.009     1645770.34249   1298708.16044  24076271.744    24076278.342
  23245171.219    -3677955.25649  -2845286.28945  23245170.203    23245178.617
 04  1 25  1 33 30.0000000  0 10G22G30G18G16G26G21G 6G29G17G15
  23559420.665    -4552246.73149  -3525482.95745  23559420.542    23559424.486
                   4832888.48258   4442488.39343
  21004732.088   -15604494.27249 -12130435.20748  21004731.417    21004735.930
  23124669.938    -5601375.33849  -4352746.32246  23124669.215    23124674.751
  21925752.920   -12620915.84849  -9788584.89347  21925752.757    21925758.674
  20725126.932   -17380722.47549 -13081125.18148  20725126.184    20725130.104
  20672337.016   -15652477.18949 -11987540.99548  20672336.569    20672341.965
  23013140.698    -6998157.37949  -5094020.16046  23013140.304    23013145.784
  24089840.208     1717070.82349   1354267.12544  24089839.620    24089846.066
  23231360.090    -3750532.79149  -2901840.17045  23231359.124    23231367.251
 04  1 25  1 34  0.0000000  0  9G22G18G16G26G21G 6G29G17G15
  23540843.623    -4649869.55049  -3601552.57145  23540843.534    23540847.409
  20994237.634   -15659642.65049 -12173407.92848  20994236.952    20994241.446
  23120478.446    -5623401.20449  -4369909.32146  23120477.797    23120483.564
  21922478.843   -12638121.36749  -9801991.74347  21922478.644    21922484.553
  20721536.032   -17399592.98049 -13095829.44748  20721535.250    20721539.126
  20680395.283   -15610131.00249 -11954543.96248  20680394.801    20680400.175
  23016850.916    -6978660.98149  -5078828.13246  23016850.446    23016855.688
  24103418.915     1788426.56949   1409868.98345  24103418.340    24103425.365
  23217565.790    -3823023.32349  -2958326.24345  23217564.685    23217572.479
 04  1 25  1 34 30.0000000  0  9G22G18G16G26G21G 6G29G17G15
  23522308.657    -4747269.36849  -3677448.47145  23522308.885    23522312.725
  20983825.984   -15714356.06049 -12216041.72548  20983825.320    20983829.815
  23116391.763    -5644877.39249  -4386643.99746  23116390.946    23116396.930
  21919324.933   -12654695.09249  -9814906.30147  21919324.697    21919330.633
  20717983.231   -17418262.87149 -13110377.40548  20717982.429    20717986.350
  20688540.927   -15567325.31349 -11921188.87948  20688540.441    20688545.777
  23020664.517    -6958620.55349  -5063212.18846  23020664.076    23020669.249
  24117008.071     1859836.53449   1465513.10545  24117007.373    24117013.951
  23203787.969    -3895427.60149  -3014745.11845  23203786.672    23203794.271
 04  1 25  1 35  0.0000000  0  9G22G18G16G26G21G 6G29G17G15
  23503816.182    -4844448.71849  -3753172.55445  23503816.057    23503820.210
  20973496.398   -15768638.45649 -12258339.65448  20973495.691    20973500.184
  23112408.716    -5665807.98349  -4402953.53546  23112407.973    23112413.967
  21916290.694   -12670639.74649  -9827330.67347  21916290.418    21916296.397
  20714467.808   -17436736.10349 -13124772.12048  20714467.023    20714471.004
  20696773.148   -15524064.68849 -11887479.29548  20696772.672    20696777.973
  23024580.781    -6938040.61849  -5047175.83346  23024580.355    23024585.439
  24130606.455     1931296.16149   1521196.00144  24130605.750    24130611.409
  23190025.461    -3967749.60749  -3071099.91445  23190024.281    23190031.782
 04  1 25  1 35 30.0000000  0  9G22G18G16G26G21G 6G29G17G15
  23485366.476    -4941402.59949  -3828720.94745  23485366.319    23485370.654
  20963249.606   -15822485.37849 -12300298.25348  20963248.925    20963253.426
  23108530.324    -5686189.12549  -4418834.90946  23108529.529    23108535.689
  21913377.049   -12685950.81849  -9839261.32647  21913376.745    21913382.807
  20710990.459   -17455009.58049 -13139011.17348  20710989.670    20710993.659
  20705092.544   -15480345.90249 -11853412.69648  20705092.083    20705097.370
  23028600.396    -6916917.97649  -5030716.60446  23028599.922    23028604.994
  24144215.027     2002809.35549   1576920.71944  24144214.329    24144220.068
  23176279.318    -4039985.87949  -3127387.88145  23176278.136    23176285.405
 04  1 25  1 36  0.0000000  0  9G22G18G16G26G21G 6G29G17G15
  23466960.159    -5038129.88149  -3904092.74445  23466959.613    23466963.886
  20953085.692   -15875896.92349 -12341917.60048  20953085.021    20953089.523
  23104756.371    -5706021.29849  -4434288.52946  23104755.620    23104761.752
  21910583.943   -12700627.79649  -9850697.89747  21910583.699    21910589.777
  20707551.008   -17473083.68449 -13153094.87548  20707550.211    20707554.197
  20713498.941   -15436170.17749 -11818990.05148  20713498.463    20713503.720
  23032722.877    -6895253.63749  -5013835.27346  23032722.448    23032727.615
  24157833.642     2074375.09649   1632686.21445  24157832.920    24157839.415
  23162549.615    -4112137.08749  -3183609.53545  23162548.481    23162555.305
 04  1 25  1 36 30.0000000  0  9G22G18G16G26G21G 6G29G17G15
  23448596.651    -5134631.04749  -3979288.34745  23448595.984    23448600.332
  20943004.437   -15928874.20149 -12383198.55548  20943003.750    20943008.212
  23101086.670    -5725306.07549  -4449315.59546  23101085.822    23101092.085
  21907911.549   -12714671.16049  -9861640.73747  21907911.309    21907917.427
  20704149.279   -17490959.80149 -13167024.30148  20704148.476    20704152.480
  20721991.827   -15391539.58449 -11784212.95948  20721991.384    20721996.637
  23036947.940    -6873050.22649  -4996533.88746  23036947.523    23036952.773
  24171461.877     2145991.75049   1688491.41145  24171461.075    24171467.407
  23148835.337    -4184205.05449  -3239766.37345  23148834.374    23148840.767
 04  1 25  1 37  0.0000000  0  9G22G18G16G26G21G 6G29G17G15
  23430277.396    -5230898.81749  -4054302.07945  23430276.658    23430281.161
  20933007.021   -15981411.29749 -12424136.51048  20933006.281    20933010.705
  23097522.046    -5744037.50749  -4463911.48646  23097521.339    23097527.490
  21905361.004   -12728074.26249  -9872084.66047  21905360.794    21905366.787
  20700786.175   -17508632.51049 -13180795.22348  20700785.395    20700789.480
  20730572.337   -15346449.02149 -11749077.44748  20730571.894    20730577.075
  23041276.696    -6850302.34149  -4978808.22946  23041276.247    23041281.582
  24185100.843     2217664.70049   1744340.61245  24185100.173    24185105.403
  23135138.331    -4256184.16049  -3295853.93345  23135137.179    23135143.793
 04  1 25  1 37 30.0000000  0  9G22G18G16G26G21G 6G29G17G15
  23412002.734    -5326934.25749  -4129134.74545  23412001.649    23412006.070
  20923092.937   -16033510.22349 -12464733.03748  20923092.155    20923096.586
  23094062.206    -5762218.39949  -4478078.36546  23094061.454    23094067.769
  21902932.050   -12740838.71849  -9882030.94247  21902931.786    21902937.740
  20697461.324   -17526104.72649 -13194409.92248  20697460.526    20697464.611
  20739239.645   -15300901.87449 -11713586.16548  20739239.253    20739244.401
  23045708.282    -6827013.29749  -4960660.89346  23045707.859    23045713.126
  24198750.087     2289391.24149   1800231.44045  24198749.265    24198754.792
  23121457.404    -4328077.28149  -3351874.51445  23121456.329    23121463.027
 04  1 25  1 38  0.0000000  0  9G22G18G16G26G21G 6G29G17G15
  23393771.741    -5422739.06149  -4203787.68945  23393770.470    23393774.988
  20913261.657   -16085173.54049 -12504990.13048  20913260.931    20913265.379
  23090706.910    -5779851.61849  -4491818.51346  23090706.068    23090712.253
  21900624.142   -12752966.51849  -9891481.13947  21900623.943    21900629.807
  20694173.960   -17543379.36249 -13207870.66348  20694173.202    20694177.314
  20747993.256   -15254901.65149 -11677741.82848  20747992.843    20747997.987
  23050242.151    -6803186.69849  -4942094.68946  23050241.830    23050246.964
  24212408.636     2361168.12849   1856161.44245  24212407.908    24212413.542
  23107792.637    -4399887.24249  -3407830.25345  23107791.459    23107797.822
 04  1 25  1 38 30.0000000  0  9G22G18G16G26G21G 6G29G17G15
  23375584.717    -5518308.75549  -4278257.44345  23375583.761    23375588.174
  20903514.022   -16136397.53949 -12544904.89848  20903513.329    20903517.742
  23087455.913    -5796934.35449  -4505129.69646  23087455.217    23087461.458
  21898438.225   -12764453.86049  -9900432.26747  21898437.947    21898443.744
  20690924.914   -17560453.30749 -13221175.01548  20690924.141    20690928.209
  20756833.457   -15208446.16949 -11641542.74448  20756833.053    20756838.200
  23054878.893    -6778820.22849  -4923107.79746  23054878.539    23054883.571
  24226077.540     2432998.29449   1912133.00745  24226076.836    24226082.157
  23094143.742    -4471611.27049  -3463719.08445  23094142.807    23094148.903
 04  1 25  1 39  0.0000000  0  9G22G18G16G26G21G 6G29G17G15
  23357443.234    -5613640.09049  -4352541.46145  23357442.470    23357446.940
  20893850.432   -16187180.20949 -12584475.77148  20893849.729    20893854.117
  23084310.363    -5813464.63449  -4518010.40345  23084309.555    23084315.817
  21896374.568   -12775298.10549  -9908882.28647  21896374.365    21896380.133
  20687714.343   -17577324.84349 -13234321.64748  20687713.564    20687717.642
  20765760.530   -15161534.21249 -11604987.96448  20765760.113    20765765.232
  23059618.693    -6753912.80449  -4903699.36246  23059618.308    23059623.165
  24239757.177     2504883.40949   1968147.52045  24239756.316    24239761.327
  23080511.716    -4543247.64949  -3519539.57645  23080510.885    23080516.557
 04  1 25  1 39 30.0000000  0  9G22G18G16G26G21G 6G29G17G15
  23339347.291    -5708732.67849  -4426639.41845  23339346.567    23339351.278
  20884270.674   -16237522.32749 -12623703.36148  20884269.921    20884274.306
  23081269.505    -5829443.70549  -4530461.57945  23081268.800    23081275.111
  21894433.383   -12785499.32849  -9916831.25947  21894433.120    21894438.854
  20684542.128   -17593994.97549 -13247311.34648  20684541.330    20684545.414
  20774774.103   -15114167.53049 -11568078.85748  20774773.693    20774778.802
  23064461.130    -6728466.25449  -4883870.85446  23064460.706    23064465.364
  24253446.778     2576821.95249   2024203.49145  24253445.759    24253450.892
  23066896.478    -4614797.74949  -3575292.85245  23066895.351    23066900.962
 04  1 25  1 40  0.0000000  0  9G22G18G16G26G21G 6G29G17G15
  23321296.417    -5803588.68349  -4500553.03045  23321295.714    23321300.622
  20874774.100   -16287426.62949 -12662589.79648  20874773.405    20874777.816
  23078332.978    -5844875.04349  -4542485.95545  23078332.073    23078338.489
  21892614.034   -12795060.18249  -9924281.22347  21892613.769    21892619.427
  20681407.491   -17610467.46449 -13260147.02948  20681406.700    20681410.807
  20783873.517   -15066350.05349 -11530818.47248  20783873.074    20783878.164
  23069405.431    -6702484.64949  -4863625.41646  23069404.943    23069409.391
  24267145.734     2648810.67649   2080298.59745  24267144.636    24267150.013
  23053296.473    -4686264.64449  -3630981.28645  23053295.535    23053301.195
 04  1 25  1 40 30.0000000  0  9G22G18G16G26G21G 6G29G17G15
  23303292.503    -5898197.93449  -4574274.37745  23303291.917    23303297.032
  20865362.785   -16336883.69849 -12701127.74848  20865362.040    20865366.447
  23075502.410    -5859749.82449  -4554076.66045  23075501.573    23075507.904
  21890918.314   -12803971.01749  -9931224.69847  21890918.033    21890923.679
  20678312.117   -17626733.66449 -13272821.97648  20678311.333    20678315.455
  20793060.154   -15018073.84549 -11493200.64648  20793059.694    20793064.780
  23074452.968    -6675959.96249  -4842956.81246  23074452.549    23074456.857
  24280855.962     2720858.24049   2136439.59145  24280854.825    24280860.082
  23039714.168    -4757639.66549  -3686598.14245  23039713.248    23039718.550
 04  1 25  1 41  0.0000000  0  9G22G18G16G26G21G 6G29G17G15
  23285334.179    -5992568.31849  -4647809.57745  23285333.749    23285338.738
  20856034.684   -16385903.00849 -12739324.58148  20856033.948    20856038.365
  23072775.854    -5874077.71649  -4565241.22445  23072774.980    23072781.234
  21889344.554   -12812240.48949  -9937668.40547  21889344.323    21889349.966
  20675254.200   -17642802.78549 -13285343.35348  20675253.450    20675257.615
  20802332.220   -14969348.84549 -11455233.10647  20802331.755    20802336.819
  23079601.928    -6648902.26449  -4821872.86846  23079601.524    23079605.787
  24294575.413     2792954.98449   2192618.94544  24294574.207    24294578.761
  23026147.581    -4828932.40749  -3742150.85145  23026146.601    23026151.846
 04  1 25  1 41 30.0000000  0  9G22G18G16G26G21G 6G29G17G15
  23267422.544    -6086694.17149  -4721154.25445  23267422.038    23267427.058
  20846790.889   -16434479.56549 -12777176.41848  20846790.088    20846794.511
  23070154.291    -5887854.41349  -4575976.27845  23070153.405    23070159.588
  21887893.848   -12819863.47949  -9943608.36747  21887893.696    21887899.264
  20672234.683   -17658670.31949 -13297707.64948  20672233.930    20672238.092
  20811690.368   -14920171.33249 -11416912.95847  20811689.907    20811694.934
  23084853.002    -6621308.14349  -4800370.93846  23084852.579    23084856.714
  24308305.124     2865105.12649   2248839.81045  24308303.901    24308308.708
  23012597.414    -4900138.51349  -3797636.06445  23012596.501    23012601.783
 04  1 25  1 42  0.0000000  0  9G22G18G16G26G21G 6G29G17G15
  23249557.878    -6180573.89149  -4794307.13345  23249557.406    23249562.257
  20837631.272   -16482613.15349 -12814683.08848  20837630.529    20837634.956
  23067637.280    -5901080.08949  -4586281.96045  23067636.538    23067642.757
  21886566.502   -12826839.17549  -9949043.92747  21886566.295    21886571.731
  20669253.420   -17674336.62949 -13309915.14248  20669252.684    20669256.831
  20821134.466   -14870542.00149 -11378240.74947  20821134.019    20821139.014
  23090206.016    -6593178.02949  -4778451.35146  23090205.603    23090209.526
  24322045.210     2937308.64649   2305102.31945  24322043.910    24322048.576
  22999063.722    -4971258.03349  -3853053.81845  22999062.840    22999068.585
 04  1 25  1 42 30.0000000  0  9G22G18G16G26G21G 6G29G17G15
  23231740.236    -6274206.85549  -4867267.74545  23231739.691    23231744.390
  20828555.969   -16530303.99049 -12851844.74948  20828555.211    20828559.653
  23065225.379    -5913755.34349  -4596158.76045  23065224.457    23065230.738
  21885362.332   -12833167.60549  -9953975.13347  21885362.059    21885367.330
  20666310.558   -17689801.71049 -13321965.83048  20666309.831    20666313.933
  20830664.314   -14820462.36849 -11339217.65047  20830663.832    20830668.779
  23095660.583    -6564513.90149  -4756115.64246  23095660.157    23095664.107
  24335794.537     3009564.67049   2361405.78844  24335793.503    24335797.966
  22985546.920    -5042291.68149  -3908404.62445  22985545.858    22985551.427
 04  1 25  1 43  0.0000000  0  9G22G18G16G26G21G 6G29G17G15
  23213969.906    -6367589.84149  -4940033.58845  23213969.403    23213974.130
  20819565.247   -16577550.14749 -12888659.91348  20819564.545    20819568.988
  23062918.596    -5925878.80849  -4605605.59745  23062917.635    23062923.581
  21884281.665   -12838846.15149  -9958399.93547  21884281.398    21884286.686
  20663406.292   -17705063.95449 -13333858.46548  20663405.532    20663409.614
  20840279.982   -14769931.36749 -11299842.83547  20840279.535    20840284.509
  23101216.959    -6535314.42149  -4733362.78946  23101216.560    23101220.598
  24349554.810     3081875.26249   2417751.68344  24349553.245    24349557.656
  22972046.474    -5113237.71949  -3963687.17745  22972045.414    22972051.086
 04  1 25  1 43 30.0000000  0  8G22G18G16G26G21G 6G29G15
  23196247.446    -6460721.75949  -5012603.79645  23196247.002    23196251.665
  20810659.293   -16624351.58249 -12925128.54248  20810658.531    20810662.993
  23060716.199    -5937451.01849  -4614622.86745  23060715.409    23060721.400
  21883324.601   -12843874.63249  -9962318.19847  21883324.410    21883329.789
  20660540.463   -17720123.88249 -13345593.44648  20660539.686    20660543.814
  20849981.423   -14718950.06449 -11260117.14147  20849980.949    20849985.927
  23106875.133    -6505580.92249  -4710193.82146  23106874.654    23106878.686
  22958562.570    -5184096.38749  -4018901.66345  22958561.518    22958567.418
 04  1 25  1 44  0.0000000  0  8G22G18G16G26G21G 6G29G15
  23178573.428    -6553598.99449  -5084975.57045  23178573.088    23178577.708
  20801838.335   -16670705.70049 -12961248.61248  20801837.608    20801842.062
  23058619.268    -5948469.74649  -4623208.86345  23058618.580    23058624.726
  21882491.911   -12848250.05549  -9965727.58747  21882491.766    21882497.158
  20657713.635   -17734978.89249 -13357168.75948  20657712.853    20657717.021
  20859768.759   -14667516.97649 -11220039.39747  20859768.303    20859773.289
  23112635.161    -6475311.94449  -4686607.57946  23112634.586    23112638.735
  22945095.773    -5254865.26749  -4074046.18045  22945094.811    22945100.785
 04  1 25  1 44 30.0000000  0  8G22G18G16G26G21G 6G29G15
  23160947.225    -6646225.38649  -5157151.89145  23160946.970    23160951.339
  20793101.622   -16716617.17149 -12997023.76148  20793100.916    20793105.336
  23056626.919    -5958940.57949  -4631367.94545  23056626.139    23056632.182
  21881782.740   -12851977.28849  -9968631.87947  21881782.527    21881787.931
  20654924.776   -17749634.30749 -13368588.53848  20654924.014    20654928.188
  20869641.026   -14615638.23449 -11179614.40447  20869640.509    20869645.488
  23118495.716    -6444513.79549  -4662609.00746  23118495.289    23118499.533
  22931645.142    -5325549.70649  -4129124.89245  22931644.043    22931650.128
 04  1 25  1 45  0.0000000  0  8G22G18G16G26G21G 6G29G15
  23143369.989    -6738594.70549  -5229127.90245  23143369.729    23143373.961
  20784450.180   -16762080.55149 -13032449.74948  20784449.505    20784453.900
  23054739.694    -5968858.78449  -4639096.38945  23054738.836    23054744.801
  21881197.910   -12855050.36549  -9971026.45547  21881197.712    21881203.125
  20652174.949   -17764084.92349 -13379848.73548  20652174.157    20652178.301
  20879598.833   -14563309.47249 -11138838.73847  20879598.335    20879603.332
  23124457.919    -6413182.00549  -4638194.62146  23124457.501    23124461.867
  22918211.647    -5396144.44249  -4184133.72045  22918210.414    22918216.582
 04  1 25  1 45 30.0000000  0  8G22G18G16G26G21G 6G29G15
  23125841.459    -6830708.31449  -5300904.64046  23125841.103    23125845.289
  20775883.563   -16807098.56049 -13067528.68548  20775882.816    20775887.232
  23052957.030    -5978227.48349  -4646396.66346  23052956.290    23052961.943
  21880737.010   -12857471.83249  -9972913.28247  21880736.841    21880742.265
  20649463.433   -17778333.93349 -13390951.82948  20649462.664    20649466.829
  20889641.701   -14510534.34549 -11097715.25047  20889641.142    20889646.114
  23130520.897    -6381320.53049  -4613367.47246  23130520.484    23130525.030
  22904794.182    -5466652.58449  -4239075.07746  22904793.141    22904799.553
 04  1 25  1 46  0.0000000  0  8G22G18G16G26G21G 6G29G15
  23108361.789    -6922565.29949  -5372481.43746  23108361.264    23108365.393
  20767401.466   -16851671.88849 -13102261.12448  20767400.758    20767405.200
  23051278.742    -5987047.41249  -4653269.31246  23051278.012    23051283.590
  21880400.172   -12859241.66049  -9974292.34247  21880400.014    21880405.386
  20646790.267   -17792381.72449 -13401898.13548  20646789.475    20646793.623
  20899769.099   -14457314.22949 -11056245.02647  20899768.541    20899773.556
  23136684.359    -6348930.90849  -4588128.78746  23136683.967    23136688.608
  22891393.500    -5537074.67849  -4293949.38946  22891392.338    22891398.629
 04  1 25  1 46 30.0000000  0  8G22G18G16G26G21G 6G29G15
  23090931.222    -7014162.48149  -5443855.80446  23090930.822    23090934.964
  20759004.344   -16895798.51149 -13136645.48048  20759003.661    20759008.116
  23049705.456    -5995317.09049  -4659713.19646  23049704.462    23049709.919
  21880187.869   -12860357.56849  -9975161.84547  21880187.651    21880193.007
  20644155.808   -17806225.86649 -13412685.75348  20644155.009    20644159.167
  20909981.291   -14403648.21949 -11014427.34947  20909980.782    20909985.861
  23142948.540    -6316012.19649  -4562477.82346  23142948.111    23142952.853
  22878009.389    -5607408.86449  -4348755.19646  22878008.145    22878014.479
 04  1 25  1 47  0.0000000  0  8G22G18G16G26G21G 6G29G15
  23073550.103    -7105500.49549  -5515028.19746  23073549.624    23073553.850
  20750692.029   -16939479.60549 -13170682.67248  20750691.375    20750695.835
  23048236.032    -6003039.06749  -4665730.29846  23048235.208    23048240.498
  21880099.679   -12860821.01949  -9975522.95147  21880099.472    21880104.815
  20641559.651   -17819868.55649 -13423316.39948  20641558.866    20641562.998
  20920277.896   -14349538.94249 -10972264.27447  20920277.393    20920282.552
  23149312.796    -6282567.34149  -4536416.88346  23149312.415    23149317.226
  22864641.289    -5677657.01049  -4403493.97446  22864640.198    22864646.718
 04  1 25  1 47 30.0000000  0  8G22G18G16G26G21G 6G29G15
  23056219.614    -7196572.01749  -5585992.94946  23056219.192    23056223.413
  20742465.753   -16982708.77249 -13204367.70448  20742465.070    20742469.506
  23046872.097    -6010207.55049  -4671316.11146  23046871.243    23046876.333
  21880136.938   -12860625.58849  -9975370.63447  21880136.657    21880141.967
  20639002.969   -17833303.70649 -13433785.32248  20639002.196    20639006.318
  20930659.816   -14294981.31249 -10929751.82747  20930659.326    20930664.545
  23155778.202    -6248591.39449  -4509942.09346  23155777.839    23155782.586
  22851291.153    -5747813.10349  -4458161.01546  22851289.912    22851296.390
 04  1 25  1 48  0.0000000  0  8G22G18G16G26G21G 6G29G15
  23038938.817    -7287383.39849  -5656754.97846  23038938.305    23038942.506
  20734324.059   -17025493.71949 -13237706.59048  20734323.337    20734327.766
  23045612.061    -6016830.35249  -4676476.71546  23045611.205    23045616.035
  21880298.038   -12859778.30449  -9974710.37647  21880297.815    21880303.182
  20636484.428   -17846538.72349 -13444098.29948  20636483.670    20636487.748
  20941125.562   -14239983.57449 -10886896.44147  20941125.051    20941130.268
  23162343.123    -6214092.78949  -4483060.03846  23162342.763    23162347.393
  22837956.765    -5817884.41149  -4512761.99146  22837955.702    22837962.139
 04  1 25  1 48 30.0000000  0  8G22G18G16G26G21G 6G29G15
  23021708.958    -7377926.43749  -5727307.91046  23021708.483    23021712.764
  20726268.147   -17067827.48449 -13270693.90948  20726267.454    20726271.895
  23044456.738    -6022901.43949  -4681207.41746  23044455.945    23044460.733
  21880584.531   -12858272.33249  -9973536.87447  21880584.327    21880589.723
  20634005.280   -17859566.75549 -13454249.99448  20634004.476    20634008.560
  20951676.024   -14184540.16649 -10843693.78347  20951675.587    20951680.779
  23169008.576    -6179066.05449  -4455766.45746  23169008.149    23169012.740
  22824639.972    -5887864.37649  -4567291.79446  22824638.971    22824645.318
 04  1 25  1 49  0.0000000  0  8G22G18G16G26G21G 6G29G15
  23004529.813    -7468203.20849  -5797653.33446  23004529.286    23004533.648
  20718297.409   -17109713.26949 -13303332.15248  20718296.742    20718301.274
  23043405.456    -6028424.66549  -4685511.19146  23043404.823    23043409.670
  21880995.861   -12856110.61749  -9971852.38647  21880995.682    21881001.015
  20631564.865   -17872391.17349 -13464243.02548  20631564.055    20631568.169
  20962310.525   -14128655.41349 -10800147.21847  20962310.095    20962315.283
  23175773.513    -6143515.50049  -4428064.71146  23175773.116    23175777.736
  22811340.083    -5957756.42249  -4621753.09046  22811338.909    22811345.198
 04  1 25  1 49 30.0000000  0  8G22G18G16G26G21G 6G29G15
  22987401.571    -7558211.37149  -5867789.47846  22987401.224    22987405.646
  20710412.193   -17151149.97549 -13335620.46248  20710411.531    20710416.142
  23042459.100    -6033399.31449  -4689387.54546  23042458.258    23042463.056
  21881532.244   -12853291.89849  -9969655.94947  21881532.081    21881537.375
  20629163.426   -17885010.87149 -13474076.53648  20629162.598    20629166.689
  20973029.029   -14072329.27949 -10756256.71947  20973028.565    20973033.758
  23182638.130    -6107441.43849  -4399955.02646  23182637.734    23182642.414
  22798056.811    -6027559.44649  -4676145.02046  22798055.765    22798061.991
 04  1 25  1 50  0.0000000  0  8G22G18G16G26G21G 6G29G15
  22970324.897    -7647949.55949  -5937715.23946  22970324.555    22970329.027
  20702612.569   -17192137.13549 -13367558.48348  20702611.900    20702616.519
  23041616.785    -6037825.67449  -4692836.63346  23041615.911    23041620.672
  21882193.736   -12849815.77849  -9966947.26347  21882193.552    21882198.818
  20626801.106   -17897425.34549 -13483750.13048  20626800.223    20626804.279
  20983831.421   -14015562.28549 -10712022.69247  20983830.976    20983836.150
  23189602.183    -6070844.54449  -4371437.93446  23189601.803    23189606.480
  22784790.798    -6097272.92749  -4730467.15846  22784789.698    22784795.877
 04  1 25  1 50 30.0000000  0  8G22G18G16G26G21G 6G29G15
  22953299.802    -7737416.97549  -6007430.01846  22953299.402    22953303.916
  20694898.392   -17232675.35149 -13399146.67148  20694897.701    20694902.324
  23040878.414    -6041705.04649  -4695859.50846  23040877.603    23040882.447
  21882980.314   -12845682.39249  -9963726.40647  21882980.108    21882985.353
  20624477.607   -17909635.17049 -13493264.26048  20624476.742    20624480.806
  20994717.333   -13958356.03849 -10667446.39447  20994716.920    20994722.127
  23196665.494    -6033726.58949  -4342514.82446  23196665.063    23196669.647
  22771541.683    -6166897.64649  -4784720.13046  22771540.480    22771546.678
 04  1 25  1 51  0.0000000  0  8G22G18G16G26G21G 6G29G15
  22936326.549    -7826611.67949  -6076932.29346  22936326.142    22936330.674
  20687269.811   -17272763.68449 -13430384.30048  20687269.112    20687273.733
  23040244.019    -6045037.33249  -4698456.06346  23040243.441    23040248.452
  21883892.061   -12840890.87449  -9959992.72647  21883891.817    21883897.083
  20622193.209   -17921639.43649 -13502618.20448  20622192.363    20622196.435
  21005686.861   -13900710.89649 -10622528.08947  21005686.406    21005691.659
  23203827.784    -5996087.87449  -4313185.93646  23203827.444    23203832.087
  22758309.214    -6236432.80949  -4838903.31646  22758308.172    22758314.453
 04  1 25  1 51 30.0000000  0  8G22G18G16G26G21G 6G29G15
  22919405.697    -7915532.42049  -6146221.08846  22919405.046    22919409.537
  20679726.818   -17312402.17449 -13461271.41048  20679726.124    20679730.751
  23039714.123    -6047822.92549  -4700626.64846  23039713.249    23039718.377
  21884929.033   -12835441.28449  -9955746.28047  21884928.789    21884934.002
  20619948.004   -17933438.26449 -13511812.08448  20619947.138    20619951.194
  21016739.617   -13842627.90849 -10577268.62047  21016739.194    21016744.464
  23211089.061    -5957929.88149  -4283452.40946  23211088.678    23211093.254
  22745094.099    -6305878.33849  -4893016.66846  22745092.950    22745099.413
 04  1 25  1 52  0.0000000  0  8G22G18G16G26G21G 6G29G15
  22902536.946    -8004178.47549  -6215295.85546  22902536.264    22902540.655
  20672269.326   -17351591.22849 -13491808.30648  20672268.676    20672273.297
  23039287.956    -6050062.88549  -4702372.04046  23039287.014    23039292.140
  21886091.199   -12829333.78949  -9950987.16847  21886091.014    21886096.174
  20617741.824   -17945031.89249 -13520846.06048  20617740.975    20617744.989
  21027875.490   -13784108.60949 -10531669.15647  21027875.065    21027880.332
  23218448.816    -5919254.28849  -4253315.55646  23218448.392    23218452.931
  22731895.750    -6375234.88649  -4947060.67746  22731894.577    22731901.283
 04  1 25  1 52 30.0000000  0  8G22G18G16G26G21G 6G29G15
  22885720.749    -8092548.48849  -6284155.51446  22885719.976    22885724.259
  20664897.451   -17390330.75449 -13521994.92548  20664896.770    20664901.398
  23038965.099    -6051757.95749  -4703692.85846  23038964.476    23038969.547
  21887378.542   -12822568.28449  -9945715.32147  21887378.333    21887383.512
  20615574.701   -17956420.02649 -13529719.91548  20615573.855    20615577.846
  21039094.273   -13725153.93949 -10485730.45347  21039093.828    21039099.011
  23225906.814    -5880061.97849  -4222776.08646  23225906.350    23225910.933
  22718714.168    -6444501.96749  -5001034.97946  22718713.173    22718720.156
 04  1 25  1 53  0.0000000  0  8G22G18G16G26G21G 6G29G15
  22868957.796    -8180638.73749  -6352797.18246  22868956.991    22868961.143
  20657611.628   -17428617.93549 -13551829.06348  20657610.944    20657615.556
  23038746.652    -6052906.22849  -4704587.57546  23038745.968    23038751.103
  21888791.707   -12815142.17449  -9939928.72047  21888791.436    21888796.641
  20613447.134   -17967600.12049 -13538431.66248  20613446.318    20613450.339
  21050396.170   -13665762.42349 -10439451.35147  21050395.704    21050400.810
  23233463.326    -5840351.87049  -4191833.13146  23233462.878    23233467.544
  22705550.453    -6513677.23749  -5054937.73446  22705549.446    22705556.527
 04  1 25  1 53 30.0000000  0  8G22G18G16G26G21G 6G29G15
  22852247.606    -8268450.96149  -6421222.21946  22852246.849    22852250.902
  20650411.283   -17466456.12749 -13581313.34548  20650410.568    20650415.183
  23038631.772    -6053511.24749  -4705059.00846  23038630.987    23038636.027
  21890329.749   -12807058.54749  -9933629.76846  21890329.600    21890334.737
  20611358.638   -17978574.92649 -13546983.44648  20611357.844    20611361.879
  21061780.416   -13605938.22549 -10392835.09047  21061779.953    21061784.979
  23241117.577    -5800128.28149  -4160490.06646  23241117.129    23241121.959
  22692403.611    -6582763.58649  -5108771.19946  22692402.617    22692409.692
 04  1 25  1 54  0.0000000  0  8G22G18G16G26G21G 6G29G15
  22835591.242    -8355980.36249  -6489426.87546  22835590.440    22835594.521
  20643296.973   -17503841.88749 -13610445.07648  20643296.283    20643300.896
  23038620.391    -6053570.18649  -4705104.89846  23038619.685    23038624.949
  21891993.811   -12798313.72449  -9926815.60546  21891993.608    21891998.774
  20609309.973   -17989340.59449 -13555372.26348  20609309.162    20609313.242
  21073247.572   -13545678.63949 -10345879.56347  21073247.064    21073251.997
  23248869.985    -5759388.75749  -4128744.95746  23248869.553    23248874.444
  22679274.282    -6651757.41249  -5162532.56146  22679273.376    22679280.629
 04  1 25  1 54 30.0000000  0  8G22G18G16G26G21G 6G29G15
  22818987.913    -8443229.56449  -6557413.20646  22818987.374    22818991.467
  20636268.085   -17540778.54249 -13639226.85748  20636267.399    20636272.042
  23038712.201    -6053087.55149  -4704728.78446  23038711.572    23038716.859
  21893782.905   -12788911.44249  -9919489.13046  21893782.740    21893787.795
  20607300.357   -17999900.93249 -13563601.08748  20607299.573    20607303.659
  21084796.548   -13484988.60249 -10298588.62647  21084796.059    21084800.934
  23256719.582    -5718138.49849  -4096601.88246  23256719.148    23256724.057
  22666162.039    -6720662.06449  -5216224.45846  22666161.133    22666168.368
 04  1 25  1 55  0.0000000  0  8G22G18G16G26G21G 6G29G15
  22802438.916    -8530194.43949  -6625177.97646  22802438.341    22802442.522
  20629325.392   -17577262.79749 -13667656.12448  20629324.706    20629329.340
  23038907.772    -6052061.10849  -4703928.95346  23038907.007    23038912.163
  21895697.671   -12778848.75649  -9911648.06746  21895697.505    21895702.615
  20605330.420   -18010252.84549 -13571667.49948  20605329.647    20605333.763
  21096427.797   -13423866.11849 -10250960.71047  21096427.327    21096432.141
  23264666.579    -5676375.75349  -4064059.47246  23264666.127    23264671.129
  22653067.385    -6789474.67549  -5269844.61646  22653066.399    22653073.537
 04  1 25  1 55 30.0000000  0  8G22G18G16G26G21G 6G29G15
  22785944.059    -8616874.10349  -6692720.50546  22785943.570    22785947.843
  20622468.543   -17613295.67849 -13695733.66548  20622467.873    20622472.511
  23039206.468    -6050492.21449  -4702706.42746  23039205.670    23039210.640
  21897737.971   -12768126.33749  -9903292.91046  21897737.912    21897742.859
  20603400.087   -18020396.58149 -13579571.69548  20603399.334    20603403.488
  21108141.026   -13362312.89849 -10202997.15747  21108140.528    21108145.315
  23272710.595    -5634102.26349  -4031119.07546  23272710.198    23272715.554
  22639989.940    -6858195.74349  -5323393.46446  22639989.062    22639996.087
 04  1 25  1 56  0.0000000  0  8G22G18G16G26G21G 6G29G15
  22769503.643    -8703267.72449  -6760040.15446  22769503.191    22769507.588
  20615697.543   -17648877.44349 -13723459.69948  20615696.900    20615701.517
  23039607.886    -6048382.01849  -4701062.09345  23039607.132    23039612.229
  21899903.877   -12756744.50149  -9894423.93746  21899903.822    21899908.634
  20601509.316   -18030332.22849 -13587313.75148  20601508.592    20601512.808
  21119935.882   -13300330.33849 -10154699.06047  21119935.393    21119940.215
  23280851.587    -5591319.90049  -3997782.15246  23280851.223    23280856.764
  22626930.245    -6926825.28449  -5376870.98646  22626929.203    22626936.162
 04  1 25  1 56 30.0000000  0  8G22G18G16G26G21G 6G29G15
  22753118.157    -8789373.82949  -6827135.75246  22753117.545    22753122.057
  20609012.442   -17684007.97749 -13750834.11648  20609011.778    20609016.382
  23040112.354    -6045730.77249  -4698996.17345  23040111.742    23040116.723
  21902195.282   -12744703.17649  -9885041.06646  21902195.186    21902199.826
  20599658.219   -18040059.32449 -13594893.28648  20599657.514    20599661.760
  21131812.242   -13237919.24149 -10106067.02947  21131811.781    21131816.674
  23289089.250    -5548029.65149  -3964049.45946  23289088.889    23289094.605
  22613887.712    -6995363.05849  -5430277.00946  22613886.742    22613893.614
 04  1 25  1 57  0.0000000  0  8G22G18G16G26G21G 6G29G15
  22736786.935    -8875193.82949  -6894008.42546  22736786.411    22736790.995
  20602412.720   -17718689.62949 -13777858.75448  20602412.057    20602416.664
  23040719.346    -6042541.77449  -4696511.25245  23040718.653    23040723.557
  21904611.656   -12732005.01149  -9875146.37446  21904611.543    21904616.029
  20597846.459   -18049580.23149 -13602312.16248  20597845.748    20597849.994
  21143769.411   -13175083.48349 -10057104.10347  21143768.984    21143773.964
  23297423.054    -5504235.31149  -3929923.98046  23297422.660    23297428.374
  22600862.298    -7063811.32649  -5483613.29246  22600861.349    22600868.093
 04  1 25  1 57 30.0000000  0  8G22G18G16G26G21G 6G29G15
  22720511.681    -8960720.88349  -6960652.83046  22720511.148    22720515.690
  20595899.430   -17752916.98649 -13804529.40548  20595898.796    20595903.398
  23041429.454    -6038810.41449  -4693603.67045  23041428.651    23041433.670
  21907154.011   -12718644.42449  -9864735.50746  21907153.983    21907158.291
  20596075.082   -18058888.87049 -13609565.63748  20596074.374    20596078.606
  21155808.306   -13111818.34849 -10007806.59647  21155807.879    21155812.952
  23305853.435    -5459932.64749  -3895402.40146  23305853.084    23305858.849
  22587855.180    -7132164.00949  -5536875.08546  22587854.245    22587860.824
 04  1 25  1 58  0.0000000  0  8G22G18G16G26G21G 6G29G15
  22704291.480    -9045958.92949  -7027072.04146  22704290.946    22704295.349
  20589471.642   -17786695.35849 -13830850.19148  20589470.986    20589475.598
  23042241.498    -6034542.70249  -4690278.20545  23042240.738    23042245.620
  21909821.565   -12704626.98849  -9853812.80746  21909821.476    21909825.653
  20594343.107   -18067990.38849 -13616657.71448  20594342.404    20594346.645
  21167927.653   -13048130.42649  -9958179.64847  21167927.239    21167932.424
  23314379.415    -5415128.34449  -3860489.94946  23314379.001    23314384.792
  22574865.352    -7200426.49649  -5590066.60046  22574864.426    22574870.736
 04  1 25  1 58 30.0000000  0  8G22G18G16G26G21G 6G29G15
  22688126.579    -9130906.62949  -7093265.00046  22688125.997    22688130.341
  20583129.326   -17820024.56149 -13856820.97248  20583128.647    20583133.262
  23043155.413    -6029739.25849  -4686535.23745  23043154.696    23043159.578
  21912613.971   -12689952.78749  -9842378.34146  21912613.873    21912617.952
  20592650.598   -18076884.48949 -13623588.16348  20592649.885    20592654.124
  21180127.342   -12984020.61549  -9908223.95047  21180126.913    21180132.164
  23323000.718    -5369823.57849  -3825187.50246  23323000.273    23323006.055
  22561892.811    -7268598.46049  -5643187.57646  22561891.777    22561898.013
 04  1 25  1 59  0.0000000  0  8G22G18G16G26G21G 6G29G15
  22672018.139    -9215556.93749  -7159226.23246  22672017.599    22672021.940
  20576873.599   -17852898.49549 -13882436.99648  20576872.937    20576877.570
  23044172.120    -6024395.13349  -4682370.99845  23044171.402    23044176.376
  21915532.413   -12674616.01449  -9830427.57746  21915532.343    21915536.416
  20590998.800   -18085564.89249 -13630352.09348  20590998.039    20591002.299
  21192408.190   -12919484.16949  -9857935.80947  21192407.762    21192413.093
  23331717.920    -5324013.90249  -3789491.63946  23331717.408    23331723.347
  22548938.344    -7336673.77249  -5696233.24046  22548937.475    22548943.736
 04  1 25  1 59 30.0000000  0  8G22G18G16G26G21G 6G29G15
  22655965.339    -9299914.38049  -7224959.27446  22655964.862    22655969.269
  20570703.343   -17885323.01249 -13907702.83348  20570702.709    20570707.361
  23045290.577    -6018516.99849  -4677790.61745  23045289.838    23045294.891
  21918575.879   -12658622.66849  -9817965.20246  21918575.786    21918579.771
  20589386.553   -18094036.96849 -13636953.69448  20589385.815    20589390.087
  21204768.853   -12854527.91949  -9807320.54947  21204768.454    21204773.928
  23340529.907    -5277706.34049  -3753407.81346  23340529.527    23340535.407
  22536001.559    -7404657.67749  -5749207.67846  22536000.601    22536006.886
 04  1 25  2  0  0.0000000  0  8G22G18G16G26G21G 6G29G15
  22639968.871    -9383975.34349  -7290461.27346  22639968.497    22639973.027
  20564619.167   -17917295.94049 -13932616.77148  20564618.481    20564623.120
  23046511.086    -6012103.08949  -4672792.75345  23046510.284    23046515.369
  21921744.646   -12641970.78349  -9804989.67746  21921744.532    21921748.592
  20587814.511   -18102297.97749 -13643390.81948  20587813.803    20587818.034
  21217209.666   -12789150.70649  -9756377.27147  21217209.252    21217214.871
  23349436.889    -5230900.11149  -3716935.39546  23349436.352    23349442.345
  22523082.503    -7472547.90149  -5802109.12446  22523081.525    22523087.923
 04  1 25  2  0 30.0000000  0  8G22G18G16G26G21G 6G29G15
  22624029.219    -9467738.13349  -7355730.93446  22624028.831    22624033.490
  20558620.845   -17948817.18449 -13957178.75448  20558620.154    20558624.809
  23047833.290    -6005153.86149  -4667377.77745  23047832.697    23047837.810
  21925038.813   -12624659.99349  -9791500.73446  21925038.701    21925042.793
  20586282.822   -18110347.37449 -13649663.06148  20586282.113    20586286.254
  21229730.461   -12723353.10849  -9705106.41447  21229730.074    21229735.790
  23358438.413    -5183595.90549  -3680074.96446  23358437.990    23358443.953
  22510181.391    -7540343.50449  -5854936.84246  22510180.456    22510186.868
 04  1 25  2  1  0.0000000  0  8G22G18G16G26G21G 6G29G15
  22608146.078    -9551203.83949  -7420769.10446  22608145.747    22608150.529
  20552707.964   -17979888.84149 -13981390.41048  20552707.317    20552712.032
  23049257.051    -5997672.56449  -4661548.19645  23049256.232    23049261.094
  21928457.924   -12606692.83449  -9777500.31846  21928457.775    21928461.846
  20584791.161   -18118186.73449 -13655771.62948  20584790.406    20584794.404
  21242330.644   -12657138.62149  -9653510.71247  21242330.251    21242335.979
  23367534.389    -5135797.49349  -3642829.41746  23367533.803    23367539.700
  22497298.103    -7608046.47549  -5907692.35646  22497297.046    22497303.356
 04  1 25  2  1 30.0000000  0  8G22G18G16G26G21G 6G29G15
  22592319.953    -9634370.30449  -7485574.10246  22592319.613    22592324.483
  20546880.921   -18010510.13649 -14005251.13048  20546880.271    20546884.961
  23050781.824    -5989659.18149  -4655304.00445  23050781.116    23050785.752
  21932001.910   -12588068.88049  -9762988.12346  21932001.811    21932005.849
  20583339.564   -18125815.00449 -13661715.71548  20583338.791    20583342.712
  21255010.133   -12590507.49749  -9601590.35347  21255009.743    21255015.470
  23376723.858    -5087505.41549  -3605199.20146  23376723.491    23376729.300
  22484432.377    -7675655.48049  -5960374.66546  22484431.442    22484437.759
 04  1 25  2  2  0.0000000  0  8G22G18G16G26G21G 6G29G15
  22576551.301    -9717234.78649  -7550143.76946  22576550.879    22576555.890
  20541139.941   -18040679.51849 -14028759.70848  20541139.265    20541143.902
  23052407.907    -5981113.47649  -4648645.00845  23052407.221    23052411.703
  21935671.237   -12568786.80549  -9747963.10546  21935671.111    21935674.969
  20581928.464   -18133230.26649 -13667493.82348  20581927.718    20581931.601
  21267769.010   -12523459.46349  -9549345.13047  21267768.610    21267774.277
  23386007.739    -5038719.48449  -3567184.17546  23386007.243    23386012.990
  22471585.061    -7743168.89749  -6012982.49046  22471584.106    22471590.344
 04  1 25  2  2 30.0000000  0  8G22G18G16G26G21G 6G29G15
  22560839.793    -9799797.82449  -7614478.55446  22560839.446    22560844.610
  20535484.496   -18070398.80049 -14051917.56248  20535483.810    20535488.462
  23054134.898    -5972037.49049  -4641572.83445  23054134.365    23054138.527
  21939465.394   -12548848.59849  -9732426.81947  21939465.274    21939469.111
  20580557.727   -18140433.53449 -13673106.74248  20580556.957    20580560.877
  21280606.733   -12455997.14849  -9496777.09647  21280606.313    21280611.886
  23395384.949    -4989443.04449  -3528786.92446  23395384.383    23395389.966
  22458755.716    -7810588.12949  -6065516.91546  22458754.688    22458760.742
 04  1 25  2  3  0.0000000  0  8G22G18G16G26G21G 6G29G15
  22545186.127    -9882058.11949  -7678577.42346  22545185.623    22545190.914
  20529914.654   -18099668.29249 -14074724.93548  20529913.986    20529918.630
  23055962.674    -5962432.44049  -4634088.37045  23055962.050    23055966.125
  21943384.300   -12528254.89249  -9716379.74947  21943384.131    21943387.912
  20579227.340   -18147424.57949 -13678554.30048  20579226.608    20579230.527
  21293523.009   -12388121.90749  -9443887.29047  21293522.611    21293528.134
  23404855.109    -4939677.32749  -3490008.43546  23404854.666    23404860.221
  22445944.332    -7877912.64749  -6117977.53646  22445943.377    22445949.242
 04  1 25  2  3 30.0000000  0  8G22G18G16G26G21G 6G29G15
  22529590.057    -9964014.19949  -7742439.24746  22529589.740    22529595.043
  20524430.604   -18128487.19249 -14097181.19048  20524429.943    20524434.531
  23057891.003    -5952298.75749  -4626191.98645  23057890.305    23057894.144
  21947427.899   -12507005.60349  -9699821.83647  21947427.732    21947431.655
  20577937.499   -18154202.73849 -13683835.96748  20577936.791    20577940.681
  21306517.791   -12319834.35149  -9390676.21647  21306517.335    21306522.787
  23414418.328    -4889423.49149  -3450849.57546  23414417.765    23414423.385
  22433151.083    -7945141.59949  -6170363.68146  22433150.143    22433155.860
 04  1 25  2  4  0.0000000  0  8G22G18G16G26G21G 6G29G15
  22514052.624   -10045663.31249  -7806061.87746  22514052.356    22514057.555
  20519032.552   -18156854.34649 -14119285.43948  20519031.890    20519036.406
  23059919.863    -5941636.26949  -4617883.58445  23059919.230    23059922.706
  21951596.449   -12485099.66249  -9682752.24947  21951596.296    21951600.377
  20576688.600   -18160766.00049 -13688950.18448  20576687.855    20576691.696
  21319590.953   -12251134.38049  -9337143.76247  21319590.525    21319595.954
  23424074.261    -4838681.48749  -3411310.32746  23424073.791    23424079.379
  22420376.315    -8012273.25649  -6222674.03046  22420375.367    22420381.092
 04  1 25  2  4 30.0000000  0  8G22G18G16G26G21G 6G29G15
  22498573.441   -10127006.74049  -7869446.29646  22498573.202    22498578.258
  20513719.814   -18184772.70649 -14141039.98048  20513719.168    20513723.697
  23062048.852    -5930448.33249  -4609165.70645  23062048.276    23062051.353
  21955889.396   -12462540.10549  -9665173.35447  21955889.264    21955893.544
  20575480.201   -18167116.45549 -13693898.57448  20575479.452    20575483.234
  21332741.897   -12182025.83449  -9283292.94847  21332741.410    21332746.799
  23433822.338    -4787455.39149  -3371393.86446  23433821.882    23433827.449
  22407619.570    -8079309.86449  -6274910.29846  22407618.658    22407624.398
 04  1 25  2  5  0.0000000  0  8G22G18G16G26G21G 6G29G15
  22483152.916   -10208042.19049  -7932590.74546  22483152.707    22483157.577
  20508492.721   -18212241.01949 -14162443.84048  20508492.076    20508496.614
  23064277.874    -5918734.69549  -4600038.20045  23064277.264    23064280.290
  21960306.899   -12439326.06449  -9647084.47547  21960306.736    21960311.226
  20574312.603   -18173252.33049 -13698679.76648  20574311.850    20574315.594
  21345970.620   -12112508.58049  -9229123.66047  21345970.122    21345975.457
  23443662.443    -4735745.44949  -3331100.39246  23443661.951    23443667.502
  22394881.248    -8146249.78549  -6327071.23146  22394880.277    22394885.998
 04  1 25  2  5 30.0000000  0  9G22G23G18G16G26G21G 6G29G15
  22467791.296   -10288768.63649  -7995494.42846  22467791.042    22467795.755
                   -981090.49449   -752756.51743
  20503351.267   -18239259.62949 -14183497.28248  20503350.606    20503355.094
  23066606.603    -5906496.64049  -4590502.05445  23066606.001    23066608.985
  21964848.722   -12415458.39849  -9628486.27047  21964848.592    21964853.104
  20573185.765   -18179173.83749 -13703293.91948  20573185.010    20573188.722
  21359276.809   -12042584.06449  -9174637.02047  21359276.311    21359281.624
  23453594.171    -4683553.40049  -3290431.23446  23453593.775    23453599.216
  22382161.295    -8213092.93249  -6379156.75146  22382160.333    22382166.115
 04  1 25  2  6  0.0000000  0  9G22G23G18G16G26G21G 6G29G15
  22452488.445   -10369186.64249  -8058157.74846  22452488.066    22452492.624
  23684290.592    -1068510.69249   -820876.04144  23684287.139    23684294.256
  20498294.986   -18265830.37749 -14204201.74148  20498294.336    20498298.818
  23069034.718    -5893736.90749  -4580559.41245  23069034.100    23069037.028
  21969514.580   -12390939.20549  -9609380.37447  21969514.402    21969518.971
  20572099.636   -18184881.57649 -13707741.49348  20572098.842    20572102.538
  21372659.945   -11972255.23949  -9119835.33847  21372659.446    21372664.774
  23463617.132    -4630882.46149  -3249388.91546  23463616.697    23463622.110
  22369459.547    -8279840.48349  -6431167.80046  22369458.546    22369464.331
 04  1 25  2  6 30.0000000  0  9G22G23G18G16G26G21G 6G29G15
  22437244.021   -10449296.66449  -8120581.08146  22437243.609    22437248.110
  23667699.358    -1155693.08849   -888810.28045  23667697.794    23667704.371
  20493323.649   -18291955.02749 -14224558.59548  20493322.968    20493327.481
                  -5880458.33049  -4570212.50445                  23071563.649
  21974303.795   -12365770.91349  -9589768.70247  21974303.626    21974308.291
  20571053.795   -18190377.17949 -13712023.77348  20571053.017    20571056.726
  21386119.431   -11901525.10049  -9064720.94047  21386118.918    21386124.260
  23473730.425    -4577735.91049  -3207975.99346  23473730.035    23473735.548
  22356775.878    -8346493.76149  -6483105.36646  22356774.837    22356780.597
 04  1 25  2  7  0.0000000  0  9G22G23G18G16G26G21G 6G29G15
  22422059.105   -10529094.43149  -8182761.10646  22422058.532    22422063.045
  23651154.589    -1242633.26449   -956555.78445  23651152.778    23651160.513
  20488437.734   -18317630.61049 -14244565.52648  20488437.060    20488441.605
  23074187.645    -5866658.90149  -4559459.69445  23074187.003    23074189.475
  21979217.010   -12339951.02749  -9569649.29446  21979216.835    21979221.592
  20570049.013   -18195657.12049 -13716138.00048  20570048.212    20570051.970
  21399655.644   -11830391.73749  -9009292.34747  21399655.137    21399660.495
  23483934.662    -4524112.21349  -3166191.27446  23483934.301    23483939.843
  22344110.724    -8413049.26349  -6534966.75446  22344109.685    22344115.412
 04  1 25  2  7 30.0000000  0  9G22G23G18G16G26G21G 6G29G15
  22406933.426   -10608579.83749  -8244697.73146  22406932.903    22406937.430
  23634656.216    -1329331.02349  -1024112.39345  23634654.380    23634662.456
  20483636.978   -18342858.62549 -14264223.70748  20483636.314    20483640.854
  23076912.244    -5852340.82949  -4548302.77845  23076911.647    23076914.201
  21984253.971   -12313481.14149  -9549023.38946  21984253.808    21984258.594
  20569085.226   -18200721.58649 -13720084.33648  20569084.429    20569088.228
  21413268.166   -11758857.47849  -8953551.36947  21413267.663    21413273.000
  23494229.338    -4470013.86649  -3124036.69746  23494228.864    23494234.451
  22331464.100    -8479507.82949  -6586752.59246  22331463.060    22331468.753
 04  1 25  2  8  0.0000000  0  9G22G23G18G16G26G21G 6G29G15
  22391867.583   -10687750.74849  -8306389.29746  22391867.173    22391871.635
  23618204.695    -1415784.11649  -1091478.30944  23618203.019    23618210.594
  20478921.609   -18367638.25849 -14283532.49348  20478920.898    20478925.454
  23079735.700    -5837504.12349  -4536741.71745  23079735.011    23079737.749
  21989414.751   -12286360.93449  -9527890.74246  21989414.535    21989419.398
  20568162.687   -18205569.46349 -13723861.88848  20568161.878    20568165.724
  21426956.919   -11686922.64049  -8897498.24647  21426956.427    21426961.735
  23504614.161    -4415441.48349  -3081512.74446  23504613.705    23504619.329
  22318836.187    -8545867.95049  -6638461.72446  22318835.092    22318840.824
 04  1 25  2  8 30.0000000  0  9G22G23G18G16G26G21G 6G29G15
  22376862.478   -10766602.46549  -8367832.15147  22376862.161    22376866.568
  23601800.359    -1501987.58349  -1158649.75544  23601799.115    23601806.580
  20474292.133   -18391965.92449 -14302489.10548  20474291.433    20474296.005
  23082658.220    -5822146.30649  -4524774.59645  23082657.508    23082660.567
  21994699.845   -12258587.31049  -9506248.93647  21994699.636    21994704.472
  20567282.211   -18210196.33149 -13727467.22948  20567281.377    20567285.280
  21440722.440   -11614584.68949  -8841131.01647  21440721.907    21440727.217
  23515089.483    -4360392.86549  -3038617.69746  23515089.122    23515094.682
  22306227.800    -8612125.13649  -6690090.64446  22306226.750    22306232.456
 04  1 25  2  9  0.0000000  0  9G22G23G18G16G26G21G 6G29G15
  22361917.381   -10845139.74049  -8429029.96747  22361917.057    22361921.388
  23585442.601    -1587946.08449  -1225630.32544  23585441.619    23585449.143
  20469747.538   -18415847.80849 -14321098.34948  20469746.849    20469751.412
  23085678.628    -5806274.55449  -4512407.00745  23085677.828    23085681.046
  22000108.004   -12230166.95149  -9484103.18147  22000107.803    22000112.699
  20566442.782   -18214607.57449 -13730904.54448  20566441.968    20566445.888
  21454563.130   -11541850.94849  -8784455.37347  21454562.695    21454568.004
  23525654.075    -4304875.69749  -2995357.55046  23525653.639    23525659.288
  22293637.982    -8678284.88549  -6741643.63446  22293636.887    22293642.824
 04  1 25  2  9 30.0000000  0  9G22G23G18G16G26G21G 6G29G15
  22347032.899   -10923358.17349  -8489979.35547  22347032.561    22347036.878
  23569132.511    -1673655.48349  -1292416.77844  23569131.551    23569139.518
  20465288.227   -18439281.39449 -14339358.26948  20465287.546    20465292.120
  23088797.005    -5789887.06349  -4499637.53145  23088796.279    23088799.589
  22005639.593   -12201097.60649  -9461451.72047  22005639.423    22005644.365
  20565645.058   -18218799.78649 -13734171.19048  20565644.241    20565648.173
  21468479.585   -11468719.77749  -8727470.04847  21468479.141    21468484.486
  23536307.971    -4248888.52449  -2951731.15746  23536307.544    23536313.108
  22281067.369    -8744343.75749  -6793118.03346  22281066.349    22281072.368
 04  1 25  2 10  0.0000000  0  9G22G23G18G16G26G21G 6G29G15
  22332209.255   -11001257.16649  -8550679.81847  22332208.903    22332213.168
  23552870.224    -1759114.66649  -1359008.24044  23552868.807    23552877.615
  20460914.243   -18462266.64149 -14357268.83348  20460913.584    20460918.180
  23092013.507    -5772985.10649  -4486467.19745  23092012.733    23092015.989
  22011294.657   -12171380.12949  -9438295.23147  22011294.418    22011299.430
  20564889.019   -18222772.53549 -13737266.82948  20564888.214    20564892.214
  21482471.333   -11395192.76049  -8670176.26947  21482470.885    21482476.285
  23547051.158    -4192433.14149  -2907739.92446  23547050.666    23547056.015
  22268515.994    -8810301.51449  -6844513.62746  22268514.908    22268521.046
 04  1 25  2 10 30.0000000  0  9G22G23G18G16G26G21G 6G29G15
  22317446.146   -11078838.08449  -8611132.43647  22317445.754    22317450.023
  23536654.610    -1844324.75949  -1425405.66244  23536653.724    23536662.851
  20456625.030   -18484806.45649 -14374832.31248  20456624.374    20456628.973
  23095327.116    -5755572.47749  -4472898.92745  23095326.257    23095329.796
  22017072.434   -12141017.77049  -9414636.23647  22017072.238    22017077.233
  20564174.422   -18226527.76249 -13740192.96548  20564173.609    20564177.606
  21496537.652   -11321273.73749  -8612577.03147  21496537.177    21496542.646
  23557882.481    -4135513.74749  -2863387.13246  23557882.008    23557887.285
  22255983.446    -8876160.23049  -6895832.05046  22255982.434    22255988.643
 04  1 25  2 11  0.0000000  0  9G22G23G18G16G26G21G 6G29G15
  22302744.184   -11156097.39049  -8671334.44947  22302743.752    22302748.033
  23520487.761    -1929282.42549  -1491606.36044  23520486.705    23520495.718
  20452421.061   -18506898.55549 -14392046.91248  20452420.414    20452424.956
  23098738.153    -5737647.96649  -4458931.78545  23098737.246    23098741.103
  22022973.239   -12110009.01649  -9390473.55347  22022973.073    22022978.041
  20563501.701   -18230062.98949 -13742947.67148  20563500.894    20563504.872
  21510678.815   -11246961.50549  -8554671.39447  21510678.387    21510683.862
  23568802.335    -4078129.67749  -2818672.24946  23568801.768    23568806.996
  22243470.367    -8941917.12949  -6947071.13546  22243469.307    22243475.509
 04  1 25  2 11 30.0000000  0  9G22G23G18G16G26G21G 6G29G15
  22288102.978   -11233036.91749  -8731287.29047  22288102.608    22288106.872
  23504368.390    -2013989.29449  -1557611.62445  23504367.375    23504376.474
  20448301.631   -18528546.34849 -14408915.30348  20448300.966    20448305.469
  23102245.567    -5719215.93249  -4444569.17345  23102244.700    23102248.875
  22028996.325   -12078357.94249  -9365810.36647  22028996.163    22029001.102
  20562870.408   -18233380.45649 -13745532.69148  20562869.582    20562873.525
  21524893.988   -11172260.41849  -8496462.75847  21524893.546    21524899.024
  23579809.595    -4020285.57549  -2773598.89646  23579809.068    23579814.149
  22230976.013    -9007574.74149  -6998232.84946  22230974.977    22230981.068
 04  1 25  2 12  0.0000000  0  9G22G23G18G16G26G21G 6G29G15
  22273523.173   -11309654.36849  -8790989.16747  22273522.821    22273527.029
  23488297.502    -2098442.94349  -1623419.59045  23488296.490    23488305.494
  20444266.859   -18549749.23849 -14425437.02348  20444266.169    20444270.669
  23105849.491    -5700276.23349  -4429810.95945  23105848.654    23105853.014
  22035141.822   -12046063.77149  -9340646.05847  22035141.669    22035146.414
  20562280.938   -18236478.06249 -13747946.39448  20562280.110    20562284.035
  21539183.161   -11097170.50749  -8437951.14547  21539182.724    21539188.159
  23590904.274    -3961981.64549  -2728167.23646  23590903.906    23590908.864
  22218500.821    -9073131.06149  -7049315.65046  22218499.843    22218506.057
 04  1 25  2 12 30.0000000  0 10G22G23G18G16G26G21G 6G 2G29G15
  22259004.888   -11385948.47849  -8850439.07447  22259004.522    22259008.673
  23472274.968    -2182641.97949  -1689029.16345  23472274.062    23472282.792
  20440316.738   -18570507.02349 -14441611.90248  20440316.094    20440320.605
  23109549.942    -5680829.99149  -4414658.05145  23109549.172    23109553.511
  22041409.507   -12013127.29649  -9314981.25047  22041409.350    22041414.010
  20561733.451   -18239355.02349 -13750188.16148  20561732.639    20561736.554
  21553546.074   -11021692.90849  -8379137.43247  21553545.651    21553551.037
                   -624728.73149   -482165.13043
  23602086.389    -3903219.46249  -2682378.46746  23602086.066    23602090.799
  22206045.164    -9138585.50449  -7100319.06146  22206044.226    22206050.490
 04  1 25  2 13  0.0000000  0  9G22G23G18G16G26G21G 6G29G15
  22244548.635   -11461917.05349  -8909635.33747  22244548.220    22244552.256
  23456301.464    -2266584.25349  -1754438.65245  23456300.361    23456308.912
  20436451.489   -18590819.04149 -14457439.43148  20436450.859    20436455.334
  23113346.696    -5660877.77549  -4399110.88045  23113345.993    23113350.367
  22047799.333   -11979548.51149  -9288815.93947  22047799.196    22047803.765
  20561228.183   -18242010.28849 -13752257.17748  20561227.379    20561231.279
  21567982.642   -10945828.21349  -8320022.08847  21567982.227    21567987.577
  23613355.381    -3843999.84649  -2636233.30446  23613355.075    23613359.934
  22193609.232    -9203936.64149  -7151241.99346  22193608.255    22193614.617
 04  1 25  2 13 30.0000000  0  9G22G23G18G16G26G21G 6G29G15
  22230154.107   -11537561.49549  -8968579.01547  22230153.565    22230157.504
  23440376.506    -2350270.87949  -1819648.94645  23440375.256    23440383.526
  20432670.535   -18610688.34349 -14472921.98648  20432669.847    20432674.313
  23117238.969    -5640423.16949  -4383172.23745  23117238.300    23117242.822
  22054310.818   -11945330.75649  -9262152.73247  22054310.718    22054315.173
  20560764.785   -18244445.21749 -13754154.50248  20560763.989    20560767.895
  21582492.217   -10869580.06749  -8260607.95347  21582491.792    21582497.129
  23624710.808    -3784326.86849  -2589734.86246  23624710.443    23624715.284
  22181192.511    -9269186.22149  -7202085.77546  22181191.591    22181197.905
 04  1 25  2 14  0.0000000  0 10G22G23G18G16G26G21G 6G 2G29G15
  22215821.485   -11612879.61049  -9027268.41647  22215820.977    22215824.860
  23424500.624    -2433699.42049  -1884658.15245  23424499.286    23424507.383
  20428974.006   -18630113.68649 -14488058.59848  20428973.316    20428977.811
  23121226.792    -5619466.08349  -4366842.01545  23121226.219    23121230.968
  22060944.067   -11910473.56249  -9234991.25647  22060943.896    22060948.203
  20560343.675   -18246657.92649 -13755878.66748  20560342.881    20560346.808
  21597074.725   -10792948.50749  -8200895.05247  21597074.287    21597079.584
                   -686725.59649   -459883.98443
  23636152.609    -3724200.66649  -2542883.25646  23636152.172    23636156.865
  22168795.621    -9334332.40249  -7252848.99146  22168794.663    22168800.861
 04  1 25  2 14 30.0000000  0  9G22G23G18G16G26G21G 6G29G15
  22201550.021   -11687876.06049  -9085707.17247  22201549.577    22201553.424
  23408673.033    -2516874.61149  -1949469.92345  23408671.734    23408679.204
  20425360.777   -18649101.18649 -14502854.03848  20425360.117    20425364.596
  23125308.761    -5598014.09249  -4350126.20145  23125308.221    23125313.281
  22067697.503   -11874983.80049  -9207336.87947  22067697.381    22067701.646
  20559963.733   -18248654.09649 -13757434.10248  20559962.954    20559966.925
  21611728.852   -10715940.89349  -8140889.12747  21611728.422    21611733.641
  23647679.242    -3663629.24249  -2495684.71246  23647678.673    23647683.056
  22156417.434    -9399380.59849  -7303535.86047  22156416.512    22156422.551
 04  1 25  2 15  0.0000000  0  9G22G23G18G16G26G21G 6G29G15
  22187342.149   -11762538.27249  -9143885.49047  22187341.803    22187345.617
  23392895.965    -2599783.57549  -2014074.24645  23392894.617    23392901.704
  20421833.154   -18667639.29849 -14517299.30548  20421832.440    20421836.866
  23129487.251    -5576056.71849  -4333016.54645  23129486.491    23129491.485
  22074573.382   -11838850.80849  -9179181.28147  22074573.261    22074577.470
  20559627.406   -18250421.01449 -13758810.90548  20559626.657    20559630.690
  21626456.497   -10638547.04649  -8080582.24147  21626456.086    21626461.187
  23659292.297    -3602602.49149  -2448131.39546  23659291.793    23659295.988
  22144060.223    -9464318.44749  -7354136.75847  22144059.297    22144065.273
 04  1 25  2 15 30.0000000  0  9G22G23G18G16G26G21G 6G29G15
  22173196.503   -11836874.27649  -9201809.60347  22173196.176    22173199.898
  23377167.975    -2682434.13849  -2078477.21945  23377166.535    23377173.786
  20418389.095   -18685737.76349 -14531401.98648  20418388.374    20418392.836
  23133759.535    -5553604.53149  -4315521.32945  23133758.932    23133763.783
  22081569.759   -11802084.63449  -9150532.27647  22081569.657    22081573.805
  20559333.141   -18251967.27849 -13760015.75848  20559332.371    20559336.414
  21641255.667   -10560777.31449  -8019982.44647  21641255.201    21641260.213
  23670989.759    -3541131.18449  -2400231.65846  23670989.305    23670993.722
  22131722.385    -9529154.35249  -7404658.19847  22131721.458    22131727.379
 04  1 25  2 16  0.0000000  0  9G22G23G18G16G26G21G 6G29G15
  22159114.074   -11910879.12649  -9259475.69047  22159113.575    22159117.197
  23361489.882    -2764821.51549  -2142675.12845  23361488.668    23361495.798
  20415029.381   -18703393.14549 -14545159.41948  20415028.670    20415033.115
  23138126.540    -5530654.95749  -4297638.54545  23138126.028    23138130.881
  22088687.202   -11764682.81549  -9121387.98647  22088686.960    22088691.100
  20559081.700   -18253288.59349 -13761045.33448  20559080.904    20559084.953
  21656126.718   -10482629.53449  -7959088.07947  21656126.246    21656131.207
  23682772.477    -3479213.45149  -2351984.06546  23682771.898    23682776.424
  22119404.822    -9593884.17449  -7455096.98947  22119403.785    22119409.779
 04  1 25  2 16 30.0000000  0  9G22G23G18G16G26G21G 6G29G15
  22145094.268   -11984553.99049  -9316884.64547  22145093.691    22145097.233
  23345861.733    -2846946.77849  -2206668.78245  23345860.798    23345867.581
  20411753.481   -18720608.38049 -14558573.87748  20411752.748    20411757.128
  23142587.585    -5507211.80049  -4279371.12045  23142586.962    23142591.858
  22095924.832   -11726648.48349  -9091750.82647  22095924.630    22095928.811
  20558872.767   -18254386.55849 -13761900.87348  20558871.969    20558875.978
  21671069.016   -10404107.35049  -7897901.97147  21671068.512    21671073.424
  23694639.121    -3416853.12049  -2303391.58446  23694638.574    23694643.200
  22107106.785    -9658509.33049  -7505454.22047  22107105.860    22107112.000
 04  1 25  2 17  0.0000000  0  9G22G23G18G16G26G21G 6G29G15
  22131137.191   -12057898.57249  -9374036.22947  22131136.663    22131140.139
  23330283.346    -2928809.24049  -2270457.67745  23330282.732    23330289.430
  20408561.205   -18737383.86449 -14571645.67348  20408560.468    20408564.822
  23147142.074    -5483277.01049  -4260720.65745  23147141.587    23147146.271
  22103282.688   -11687983.19349  -9061621.99546  22103282.436    22103286.639
  20558706.330   -18255261.17249 -13762582.36748  20558705.514    20558709.504
  21686082.087   -10325212.80049  -7836425.69747  21686081.608    21686086.551
  23706589.549    -3354052.66649  -2254456.14046  23706589.060    23706593.810
  22094828.752    -9723029.79449  -7555729.87147  22094827.909    22094834.204
 04  1 25  2 17 30.0000000  0  9G22G23G18G16G26G21G 6G29G15
  22117243.311   -12130910.85149  -9430928.87847  22117242.871    22117246.295
  23314755.582    -3010406.99249  -2334040.26345  23314754.972    23314761.615
  20405452.650   -18753719.23149 -14584374.51348  20405451.950    20405456.303
  23151789.830    -5458851.27949  -4241687.58645  23151789.419    23151794.211
  22110760.341   -11648687.31949  -9031001.81246  22110760.070    22110764.462
  20558582.678   -18255910.72049 -13763088.48048  20558581.880    20558585.869
  21701165.924   -10245946.32349  -7774659.61047  21701165.476    21701170.473
  23718623.620    -3290812.96049  -2205178.41746  23718623.119    23718627.972
  22082571.214    -9787444.15149  -7605922.84247  22082570.285    22082576.656
 04  1 25  2 18  0.0000000  0  9G22G23G18G16G26G21G 6G29G15
  22103413.011   -12203588.77149  -9487561.00547  22103412.746    22103416.081
  23299278.457    -3091737.50949  -2397414.63545  23299278.137    23299284.405
  20402427.985   -18769613.94949 -14596759.99948  20402427.293    20402431.606
  23156531.424    -5433934.68549  -4222272.08045  23156530.647    23156535.485
  22118357.967   -11608760.73649  -8999890.17446  22118357.740    22118362.221
  20558502.261   -18256333.10549 -13763417.60548  20558501.486    20558505.470
  21716320.555   -10166308.03049  -7712603.80947  21716320.095    21716325.131
  23730741.201    -3227134.35449  -2155558.72846  23730740.690    23730745.621
  22070334.143    -9851750.53849  -7656031.68047  22070333.216    22070339.489
 04  1 25  2 18 30.0000000  0  9G22G23G18G16G26G21G 6G29G15
  22089646.058   -12275935.22749  -9543934.83047  22089645.726    22089648.964
  23283851.769    -3172803.88249  -2460583.19245  23283851.725    23283857.816
  20399486.371   -18785072.27449 -14608805.43548  20399485.660    20399489.955
  23161365.050    -5408532.93549  -4202478.49745  23161364.351    23161369.053
  22126074.596   -11568208.61449  -8968291.09546  22126074.398    22126079.096
  20558464.337   -18256532.29049 -13763572.79448  20558463.572    20558467.521
  21731544.742   -10086303.67649  -7650262.74847  21731544.315    21731549.444
  23742941.181    -3163022.85649  -2105601.69046  23742940.645    23742945.625
  22058116.777    -9915952.38049  -7706059.04647  22058115.884    22058122.284
 04  1 25  2 19  0.0000000  0  9G22G23G18G16G26G21G 6G29G15
  22075942.906   -12347946.16149  -9600047.20647  22075942.563    22075945.739
  23268476.462    -3253601.95649  -2523542.65745  23268476.300    23268482.298
  20396628.332   -18800091.42849 -14620508.65848  20396627.619    20396631.883
  23166291.347    -5382644.52549  -4182305.69845  23166290.720    23166295.431
  22133910.635   -11527029.32049  -8936203.31646  22133910.423    22133915.327
  20558469.741   -18256504.32349 -13763550.98048  20558468.948    20558472.838
  21746838.771   -10005931.69149  -7587635.22447  21746838.398    21746843.723
  23755223.693    -3098477.41649  -2055306.51146  23755223.221    23755228.274
  22045920.093    -9980045.85749  -7756001.97047  22045919.238    22045925.716
 04  1 25  2 19 30.0000000  0  9G22G23G18G16G26G21G 6G29G15
  22062304.133   -12419619.18749  -9655896.28247  22062303.715    22062306.886
  23253152.538    -3334128.92749  -2586290.89845  23253152.397    23253158.649
  20393853.982   -18814670.74849 -14631869.16348  20393853.289    20393857.546
  23171309.995    -5356269.46849  -4161753.70145  23171309.456    23171314.434
  22141866.095   -11485222.22049  -8903626.34046  22141865.916    22141870.971
  20558518.809   -18256246.76449 -13763350.27948  20558517.994    20558521.843
  21762202.751    -9925191.89349  -7524721.09847  21762202.491    21762207.959
  23767588.494    -3033498.04849  -2004673.25246  23767588.261    23767593.500
  22033744.543   -10044028.78849  -7805858.75747  22033743.617    22033750.103
 04  1 25  2 20  0.0000000  0  9G22G23G18G16G26G21G 6G29G15
  22048728.607   -12490959.44849  -9711486.05247  22048728.173    22048731.296
  23237879.495    -3414389.86649  -2648831.79245  23237879.401    23237885.291
  20391162.094   -18828816.57949 -14642891.87848  20391161.393    20391165.671
  23176419.875    -5329415.26349  -4140828.31345  23176419.509    23176424.569
  22149939.582   -11442794.86349  -8870566.03246  22149939.446    22149944.650
  20558610.445   -18255765.24649 -13762975.05248  20558609.631    20558613.449
  21777635.430    -9844091.86249  -7461526.27147  21777635.167    21777640.777
  23780034.706    -2968092.74549  -1953708.06246  23780034.455    23780039.904
  22021588.930   -10107906.66549  -7855633.68347  22021588.092    22021594.523
 04  1 25  2 20 30.0000000  0  9G22G23G18G16G26G21G 6G29G15
  22035217.335   -12561962.09449  -9766812.74547  22035216.896    22035219.918
  23222657.856    -3494380.04849  -2711161.72845  23222657.749    23222663.663
  20388553.325   -18842525.69649 -14653574.28848  20388552.649    20388556.881
  23181621.688    -5302079.93149  -4119528.04245  23181621.307    23181626.419
  22158131.669   -11399744.68349  -8837020.41046  22158131.645    22158136.852
  20558745.560   -18255055.51749 -13762422.00048  20558744.727    20558748.522
  21793137.169    -9762629.46949  -7398049.08547  21793136.866    21793142.518
  23792562.521    -2902259.50049  -1902409.40846  23792562.162    23792567.662
  22009454.327   -10171675.11849  -7905323.33147  22009453.422    22009459.767
 04  1 25  2 21  0.0000000  0  9G22G23G18G16G26G21G 6G29G15
  22021770.558   -12632625.52549  -9821875.11547  22021770.126    22021773.079
  23207487.960    -3574097.35249  -2773279.01845  23207487.851    23207493.809
  20386027.768   -18855797.72049 -14663916.11848  20386027.077    20386031.285
  23186914.949    -5274263.93249  -4097853.21345  23186914.503    23186919.323
  22166442.312   -11356072.04849  -8802989.76746  22166442.251    22166447.501
  20558924.360   -18254115.66749 -13761689.63848  20558923.544    20558927.368
  21808707.777    -9680805.23349  -7334289.94747  21808707.486    21808713.084
  23805171.416    -2835999.49749  -1850778.23446  23805171.073    23805176.625
  21997340.767   -10235332.36249  -7954926.35447  21997339.928    21997346.093
 04  1 25  2 21 30.0000000  0  9G22G23G18G16G26G21G 6G29G15
  22008387.901   -12702952.03649  -9876674.94247  22008387.431    22008390.384
  23192369.808    -3653544.17049  -2835185.53345  23192369.498    23192375.535
  20383584.643   -18868636.33249 -14673920.21648  20383583.928    20383588.169
  23192298.537    -5245972.26249  -4075807.76345  23192298.076    23192303.206
  22174870.476   -11311781.68749  -8768477.76846  22174870.387    22174875.742
  20559146.363   -18252948.47849 -13760780.12548  20559145.580    20559149.441
  21824346.369    -9598624.32449  -7270252.88047  21824346.040    21824351.573
  23817860.471    -2769317.81949  -1798818.47946  23817860.119    23817865.781
  21985247.864   -10298881.22649  -8004444.90047  21985247.030    21985253.129
 04  1 25  2 22  0.0000000  0  9G22G23G18G16G26G21G 6G29G15
  21995068.656   -12772944.76349  -9931214.68047  21995068.181    21995071.194
  23177302.375    -3732723.36049  -2896883.51545  23177301.929    23177308.118
  20381223.092   -18881046.22749 -14683590.25148  20381222.413    20381226.627
  23197771.583    -5217210.59849  -4053396.05945  23197771.008    23197776.321
  22183415.110   -11266878.91149  -8733488.57746  22183415.052    22183420.500
  20559411.001   -18251557.38249 -13759696.14248  20559410.276    20559414.116
  21840051.760    -9516092.16849  -7205942.11447  21840051.427    21840056.902
  23830628.554    -2702220.56449  -1746534.90146  23830628.210    23830633.970
  21973174.981   -10362324.96349  -8053881.53747  21973174.098    21973180.205
 04  1 25  2 22 30.0000000  0  9G22G23G18G16G26G21G 6G29G15
  21981815.214   -12842591.73249  -9985484.99247  21981814.736    21981817.779
  23162287.949    -3811622.84249  -2958363.54745  23162287.522    23162293.997
  20378945.227   -18893016.41649 -14692917.65648  20378944.580    20378948.761
  23203335.802    -5187969.59249  -4030610.84345  23203335.146    23203340.741
  22192078.116   -11221354.08549  -8698014.65246  22192078.094    22192083.528
  20559720.683   -18249930.23149 -13758428.21848  20559719.892    20559723.701
  21855825.921    -9433199.07049  -7141350.08947  21855825.517    21855830.930
  23843477.524    -2634698.21649  -1693920.07546  23843477.164    23843483.060
  21961124.165   -10425651.58349  -8103226.92747  21961123.351    21961129.523
 04  1 25  2 23  0.0000000  0  9G22G23G18G16G26G21G 6G29G15
  21968626.118   -12911900.34949 -10039491.66247  21968625.647    21968628.656
  23147325.885    -3890250.15949  -3019631.49745  23147325.250    23147331.661
  20376749.270   -18904556.23049 -14701909.70748  20376748.601    20376752.791
  23208989.185    -5158259.32649  -4007459.97245  23208988.672    23208994.405
  22200857.633   -11175217.05249  -8662063.71346  22200857.596    22200863.128
  20560073.715   -18248075.08949 -13756982.63948  20560072.908    20560076.730
  21871666.799    -9349955.20349  -7076484.75047  21871666.390    21871671.753
  23856405.602    -2566761.37649  -1640982.25046  23856405.204    23856410.888
  21949094.321   -10488869.28049  -8152487.44047  21949093.439    21949099.603
 04  1 25  2 23 30.0000000  0  9G22G23G18G16G26G21G 6G29G15
  21955502.191   -12980866.69949 -10093231.62647  21955501.733    21955504.758
  23132416.129    -3968600.93149  -3080683.97345  23132415.472    23132421.937
  20374635.681   -18915662.94649 -14710564.27948  20374635.034    20374639.262
  23214732.199    -5128078.55549  -3983942.45745  23214731.855    23214737.849
  22209754.158   -11128466.18549  -8625634.44946  22209754.018    22209759.515
  20560470.735   -18245988.29249 -13755356.55248  20560469.933    20560473.777
  21887574.746    -9266358.85749  -7011344.74947  21887574.288    21887579.648
  23869412.672    -2498408.79949  -1587720.48846  23869412.309    23869417.883
  21937085.739   -10551974.27649  -8201660.12047  21937084.862    21937091.054
 04  1 25  2 24  0.0000000  0  9G22G23G18G16G26G21G 6G29G15
  21942443.124   -13049492.37549 -10146706.13747  21942442.673    21942445.690
  23117558.660    -4046676.74549  -3141522.20945  23117558.157    23117564.481
  20372603.959   -18926339.80749 -14718883.89948  20372603.290    20372607.478
  23220564.339    -5097431.13449  -3960061.35945  23220563.808    23220569.939
  22218766.531   -11081105.29749  -8588729.85546  22218766.458    22218772.034
  20560911.544   -18243671.58649 -13753551.31448  20560910.788    20560914.617
  21903548.784    -9182414.28049  -6945933.40147  21903548.389    21903553.721
  23882497.902    -2429645.01449  -1534138.32645  23882497.432    23882503.198
  21925098.390   -10614968.24949  -8250746.27647  21925097.531    21925103.675
 04  1 25  2 24 30.0000000  0  9G22G23G18G16G26G21G 6G29G15
  21929449.164   -13117775.70049 -10199913.87247  21929448.739    21929451.798
  23102754.072    -4124475.74249  -3202144.73945  23102753.447    23102759.782
  20370654.065   -18936586.54149 -14726868.34148  20370653.380    20370657.548
  23226485.306    -5066318.00149  -3935817.34945  23226484.678    23226490.501
  22227894.998   -11033134.89449  -8551350.29746  22227895.028    22227900.516
  20561396.567   -18241123.19049 -13751565.52748  20561395.792    20561399.563
  21919589.029    -9098122.06849  -6880251.16247  21919588.625    21919593.946
  23895661.012    -2360470.84349  -1480236.38945  23895660.728    23895666.336
  21913132.486   -10677849.40849  -8299744.52947  21913131.565    21913137.724
 04  1 25  2 25  0.0000000  0  9G22G23G18G16G26G21G 6G29G15
  21916520.415   -13185716.51649 -10252854.72047  21916519.989    21916523.078
  23088002.170    -4201997.66849  -3262551.36945  23088001.489    23088007.671
  20368785.864   -18946403.94749 -14734518.25248  20368785.213    20368789.319
  23232494.278    -5034741.75449  -3911212.48045  23232493.530    23232499.302
  22237139.104   -10984557.29549  -8513497.61446  22237139.009    22237144.465
  20561925.690   -18238342.93449 -13749399.08048  20561924.896    20561928.605
  21935694.914    -9013484.71649  -6814299.99147  21935694.555    21935699.801
  23908902.104    -2290889.02749  -1426016.78145  23908901.762    23908907.053
  21901187.877   -10740617.78149  -8348654.90147  21901187.064    21901193.217
 04  1 25  2 25 30.0000000  0  9G22G23G18G16G26G21G 6G29G15
  21903657.417   -13253311.55849 -10305526.13447  21903657.024    21903660.156
  23073303.587    -4279238.85349  -3322739.25945  23073302.975    23073309.199
  20366999.665   -18955790.81149 -14741832.67148  20366998.980    20367003.075
  23238591.063    -5002701.41149  -3886245.95345  23238590.808    23238596.361
  22246498.895   -10935371.50749  -8475171.01246  22246498.759    22246504.196
  20562499.496   -18235327.75249 -13747049.57248  20562498.688    20562502.372
  21951866.843    -8928501.08249  -6748078.99547  21951866.479    21951871.494
  23922220.696    -2220899.02949  -1371479.12045  23922220.362    23922225.698
  21889265.733   -10803269.85549  -8397474.65247  21889264.788    21889270.830
 04  1 25  2 26  0.0000000  0  9G22G23G18G16G26G21G 6G29G15
  21890859.440   -13320564.96449 -10357931.33747  21890859.074    21890862.242
  23058657.695    -4356203.50749  -3382711.65545  23058657.114    23058663.450
  20365294.383   -18964752.10249 -14748815.47548  20365293.701    20365297.784
  23244775.546    -4970203.87449  -3860923.18845  23244775.246    23244780.589
  22255972.944   -10885584.19149  -8436375.69046  22255972.841    22255978.366
  20563117.091   -18232082.14549 -13744520.51148  20563116.291    20563119.988
  21968103.436    -8843177.87349  -6681593.38347  21968103.039    21968107.755
  23935615.609    -2150507.69749  -1316628.73345  23935615.259    23935620.811
  21877364.674   -10865810.23749  -8446207.37147  21877363.756    21877369.724
 04  1 25  2 26 30.0000000  0  9G22G23G18G16G26G21G 6G29G15
  21878127.657   -13387470.61449 -10410065.56647  21878127.258    21878130.449
  23044065.653    -4432885.39049  -3442463.72645  23044065.086    23044071.583
  20363670.906   -18973283.35049 -14755463.18648  20363670.224    20363674.317
  23251047.933    -4937245.53249  -3835241.35345  23251047.344    23251052.581
  22265562.238   -10835191.57349  -8397108.71246  22265562.122    22265567.666
  20563779.669   -18228600.12849 -13741807.23648  20563778.852    20563782.559
  21984405.367    -8757511.73449  -6614840.56247  21984404.913    21984409.307
  23949087.420    -2079711.98849  -1261463.25345  23949087.102    23949092.500
  21865486.073   -10928232.86449  -8494848.34147  21865485.150    21865490.968
 04  1 25  2 27  0.0000000  0 10G22G23G 3G18G16G26G21G 6G29G15
  21865461.274   -13454032.69449 -10461932.08247  21865460.897    21865464.081
  23029526.871    -4509288.64949  -3501998.68445  23029526.021    23029532.730
                   -617427.33949   -458249.11743
  20362128.161   -18981390.77349 -14761780.64248  20362127.453    20362131.549
  23257406.510    -4903833.64249  -3809206.13445  23257405.602    23257410.611
  22275265.470   -10784200.26549  -8357375.21846  22275265.415    22275270.919
  20564486.422   -18224885.84249 -13738912.96948  20564485.633    20564489.364
  22000771.217    -8671509.45149  -6547825.81447  22000770.753    22000774.898
  23962635.276    -2008518.97949  -1205988.16445  23962634.863    23962639.744
  21853629.059   -10990542.01949  -8543400.89847  21853628.118    21853633.880
 04  1 25  2 27 30.0000000  0 10G22G23G 3G18G16G26G21G 6G29G15
  21852860.734   -13520248.79249 -10513529.00547  21852860.390    21852863.553
  23015041.407    -4585410.63349  -3561314.47945  23015040.360    23015047.200
                   -712773.88849   -281924.78943
  20360666.265   -18989073.00749 -14767766.78048  20360665.565    20360669.688
  23263851.234    -4869968.13049  -3782817.40845  23263850.350    23263855.039
  22285082.840   -10732610.21049  -8317175.17246  22285082.689    22285088.186
  20565237.832   -18220936.83049 -13735835.80748  20565237.063    20565240.819
  22017201.128    -8585170.65849  -6480548.84147  22017200.589    22017204.505
  23976258.697    -1936928.76049  -1150203.55845  23976258.262    23976262.698
  21841794.049   -11052735.18449  -8591863.07147  21841793.111    21841798.864
 04  1 25  2 28  0.0000000  0 10G22G23G 3G18G16G26G21G 6G29G15
  21840326.100   -13586118.80649 -10564856.24047  21840325.737    21840328.904
  23000609.360    -4661251.03549  -3620410.85245  23000608.360    23000615.286
                   -807919.21249   -356064.02643
  20359285.043   -18996331.15049 -14773422.45448  20359284.351    20359288.470
  23270381.671    -4835651.57549  -3756077.24545  23270380.830    23270385.057
  22295013.596   -10680423.77349  -8276510.39646  22295013.453    22295018.917
  20566033.882   -18216753.21449 -13732575.82148  20566033.132    20566036.884
  22033694.492    -8498497.73949  -6413011.49947  22033693.971    22033697.689
  23989956.770    -1864944.10649  -1094111.63345  23989956.338    23989960.644
  21829981.099   -11114812.26949  -8640234.79447  21829980.189    21829985.884
 04  1 25  2 28 30.0000000  0 10G22G23G 3G18G16G26G21G 6G29G15
  21827857.418   -13651641.97549 -10615913.21247  21827857.069    21827860.238
  22986231.115    -4736808.92649  -3679287.07445  22986229.855    22986237.074
                   -902860.66249   -430044.18943
  20357984.485   -19003165.85649 -14778748.17848  20357983.751    20357987.853
  23276997.653    -4800885.75749  -3728987.00545  23276996.890    23277000.712
  22305057.524   -10627642.48349  -8235382.10946  22305057.420    22305062.791
  20566874.734   -18212334.20149 -13729132.41648  20566874.009    20566877.731
  22050251.146    -8411492.38549  -6345215.12947  22050250.609    22050254.194
  24003729.255    -1792566.99649  -1037713.89245  24003729.094    24003733.381
  21818190.451   -11176772.48149  -8688515.44547  21818189.502    21818195.196
 04  1 25  2 29  0.0000000  0 10G22G23G 3G18G16G26G21G 6G29G15
  21815454.865   -13716817.70649 -10666699.46047  21815454.515    21815457.639
  22971906.379    -4812083.62249  -3737942.63645  22971905.322    22971912.814
                   -997595.83749   -503863.65744                  23856595.913
  20356764.203   -19009578.04349 -14783744.67648  20356763.506    20356767.657
  23283698.438    -4765672.84749  -3701548.36445  23283697.811    23283701.367
  22315214.154   -10574268.32049  -8193791.85646  22315214.098    22315219.568
  20567760.555   -18207679.48449 -13725505.35148  20567759.786    20567763.483
  22066870.580    -8324156.73849  -6277161.38347  22066870.044    22066873.574
  24017576.303    -1719799.89349   -981012.26045  24017576.247    24017579.972
  21806422.105   -11238615.36549  -8736704.67747  21806421.159    21806426.856
 04  1 25  2 29 30.0000000  0 10G22G23G 3G18G16G26G21G 6G29G15
  21803118.847   -13781643.96249 -10717213.38447  21803118.465    21803121.537
  22957636.079    -4887072.75249  -3796375.67945  22957635.080    22957642.908
  23838607.453    -1092120.45349   -577519.15445  23838605.907    23838610.478
  20355624.538   -19015566.48949 -14788410.97848  20355623.875    20355628.034
  23290484.520    -4730012.99349  -3673761.48145  23290483.753    23290487.395
  22325483.819   -10520301.52449  -8151739.79746  22325483.719    22325489.123
  20568691.716   -18202786.42349 -13721692.56548  20568690.931    20568694.608
  22083552.892    -8236490.77249  -6208850.24947  22083552.295    22083555.849
  24031497.734    -1646642.83349   -924006.73345  24031497.610    24031500.709
  21794676.621   -11300338.37149  -8784800.48847  21794675.650    21794681.320
 04  1 25  2 30  0.0000000  0 10G22G23G 3G18G16G26G21G 6G29G15
  21790849.517   -13846119.58449 -10767454.09147  21790849.129    21790852.139
  22943420.619    -4961775.13249  -3854585.27245  22943419.591    22943427.484
  23820660.746    -1186431.24049   -651008.00745  23820660.060    23820662.454
  20354565.373   -19021132.48649 -14792748.10348  20354564.688    20354568.828
  23297355.200    -4693907.88249  -3645627.63245  23297354.497    23297358.062
  22335865.814   -10465743.48949  -8109227.03846  22335865.742    22335871.135
  20569668.429   -18197654.05749 -13717693.31248  20569667.645    20569671.287
  22100297.736    -8148495.88849  -6140282.81747  22100297.192    22100300.749
  24045493.092    -1573097.93449   -866699.04145  24045492.782    24045495.618
  21782954.121   -11361940.37649  -8832802.01347  21782953.086    21782958.779
 04  1 25  2 30 30.0000000  0 10G22G23G 3G18G16G26G21G 6G29G15
  21778646.772   -13910245.34449 -10817422.17847  21778646.397    21778649.404
  22929259.385    -5036191.40249  -3912571.92245  22929258.734    22929266.680
  23802754.568    -1280527.56649   -724329.73445  23802753.618    23802756.897
  20353586.271   -19026277.69749 -14796757.34548  20353585.586    20353589.709
  23304309.797    -4657361.30049  -3617149.75945  23304309.113    23304312.560
  22346359.752   -10410597.61049  -8066256.22846  22346359.677    22346365.108
  20570690.490   -18192283.54849 -13713508.49448  20570689.678    20570693.215
  22117104.563    -8060175.53549  -6071461.78747  22117103.968    22117107.577
  24059561.141    -1499168.76649   -809091.93645  24059561.122    24059564.076
  21771254.202   -11423422.20149  -8880709.90847  21771253.265    21771259.018
 04  1 25  2 31  0.0000000  0 11G22G23G 3G18G16G26G21G 6G 2G29G15
  21766511.114   -13974019.07749 -10867115.95047  21766510.678    21766513.650
  22915153.350    -5110319.30149  -3970333.85845  22915152.699    22915160.657
  23784890.063    -1374405.28949   -797481.10045  23784888.845    23784892.918
  20352687.359   -19031001.57349 -14800438.26448  20352686.658    20352690.752
  23311348.540    -4620373.46449  -3588328.08145  23311347.789    23311351.098
  22356965.649   -10354864.22249  -8022827.59646  22356965.505    22356970.779
  20571758.232   -18186672.49549 -13709136.22648  20571757.419    20571760.983
  22133973.205    -7971529.99549  -6002387.34547  22133972.640    22133976.313
                   -307235.12449   -237462.37943
  24073702.279    -1424855.89749   -751185.83544  24073702.014    24073705.300
  21759577.796   -11484781.63749  -8928522.40547  21759576.888    21759582.621
 04  1 25  2 31 30.0000000  0 11G22G23G 3G18G16G26G21G 6G 2G29G15
  21754441.365   -14037445.69749 -10916539.25847  21754440.944    21754443.881
  22901101.207    -5184163.49049  -4027874.71945  22901100.718    22901108.599
  23767066.567    -1468067.08049   -870464.24745  23767065.343    23767069.710
  20351867.303   -19035310.59249 -14803795.93248  20351866.626    20351870.695
  23318469.767    -4582951.87449  -3559168.42445  23318468.890    23318472.210
  22367681.828   -10298550.45249  -7978946.73346  22367681.676    22367686.865
  20572870.865   -18180825.32849 -13704579.98448  20572870.059    20572873.673
  22150902.236    -7882566.43449  -5933065.10447  22150901.800    22150905.536
                   -312719.59649   -241722.96443
  24087915.081    -1350167.07949   -692986.77444  24087914.694    24087918.159
  21747923.842   -11546023.44649  -8976243.26547  21747922.926    21747928.656
 04  1 25  2 32  0.0000000  0 11G22G23G 3G18G16G26G21G 6G 2G29G15
  21742438.764   -14100519.54449 -10965687.67547  21742438.333    21742441.249
  22887104.272    -5257718.17649  -4085190.01345  22887103.798    22887111.602
  23749285.554    -1561505.63349   -943273.44645  23749284.274    23749288.875
  20351127.092   -19039200.42749 -14806826.95948  20351126.398    20351130.452
  23325674.082    -4545093.83749  -3529668.65545  23325673.003    23325676.360
  22378509.113   -10241653.43749  -7934611.37546  22378508.931    22378513.947
  20574029.383   -18174736.99149 -13699835.81248  20574028.596    20574032.245
  22167892.623    -7793281.72549  -5863492.62347  22167892.078    22167895.940
                   -317787.18849   -210549.62243
  24102200.501    -1275099.29349   -634492.39345  24102199.814    24102203.583
  21736293.484   -11607142.02549  -9023868.07647  21736292.528    21736298.113
 04  1 25  2 32 30.0000000  0 11G22G23G 3G18G16G26G21G 6G 2G29G15
  21730502.865   -14163242.96549 -11014563.04147  21730502.396    21730505.359
  22873162.037    -5330985.51449  -4142281.39145  22873161.510    22873169.289
  23731546.879    -1654721.13149  -1015908.82145  23731545.534    23731550.744
  20350465.916   -19042674.80149 -14809534.25848  20350465.246    20350469.242
  23332960.417    -4506804.16249  -3499832.55145  23332959.179    23332962.773
  22389446.348   -10184177.93049  -7889825.26446  22389446.179    22389451.214
  20575233.541   -18168409.16049 -13694905.02748  20575232.753    20575236.362
  22184943.133    -7703680.41749  -5793673.45347  22184942.624    22184946.603
                   -322441.23549   -214177.01943
  24116556.465    -1199657.74149   -575706.80845  24116555.675    24116560.258
  21724686.053   -11668139.23049  -9071398.33347  21724685.054    21724690.711
 04  1 25  2 33  0.0000000  0 11G22G23G 3G18G16G26G21G 6G 2G29G15
  21718634.017   -14225613.53849 -11063163.45547  21718633.593    21718636.656
  22859275.142    -5403962.97149  -4199146.87846  22859274.354    22859281.987
  23713851.261    -1747709.13049  -1088366.92745  23713850.094    23713855.851
  20349884.057   -19045732.38349 -14811916.77848  20349883.399    20349887.349
  23340328.778    -4468082.85949  -3469660.12545  23340327.648    23340331.220
  22400493.668   -10126123.87649  -7844588.32846  22400493.571    22400498.576
  20576483.692   -18161839.61249 -13689785.89248  20576482.937    20576486.479
  22202053.859    -7613762.50349  -5723607.56947  22202053.428    22202057.518
                   -326680.36249   -217481.15943
  24130983.415    -1123842.46349   -516629.99145  24130982.988    24130987.144
  21713102.079   -11729012.59649  -9118832.09347  21713101.153    21713106.801
 04  1 25  2 33 30.0000000  0 11G22G23G 3G18G16G26G21G 6G 2G29G15
  21706831.711   -14287634.48849 -11111491.44747  21706831.304    21706834.451
  22845442.539    -5476653.63549  -4255788.90746  22845441.850    22845449.335
  23696198.957    -1840471.12849  -1160648.93245  23696197.834    23696203.965
  20349380.629   -19048378.21349 -14813978.45248  20349379.927    20349383.845
  23347777.881    -4428936.13049  -3439156.15445  23347777.021    23347780.390
  22411650.062   -10067497.21149  -7798905.20346  22411649.937    22411654.819
  20577779.271   -18155031.38749 -13684480.77648  20577778.500    20577781.993
  22219223.765    -7523533.76649  -5653299.47647  22219223.342    22219227.540
                   -330508.96749   -187836.70043
  24145480.550    -1047659.79749   -457266.88245  24145480.121    24145484.518
  21701541.351   -11789765.21449  -9166171.75747  21701540.356    21701545.839
 04  1 25  2 34  0.0000000  0 11G22G23G 3G18G16G26G21G 6G 2G29G15
  21695097.320   -14349299.02949 -11159541.71047  21695096.877    21695100.093
  22831666.093    -5549050.47549  -4312201.97246  22831665.167    22831672.558
  23678591.520    -1932998.11249  -1232747.83445  23678590.523    23678596.580
  20348956.582   -19050606.58349 -14815714.83248  20348955.881    20348959.776
  23355308.855    -4389359.64849  -3408317.35545  23355307.976    23355311.265
  22422916.282   -10008293.63449  -7752772.52046  22422916.118    22422920.827
  20579121.619   -18147977.56349 -13678984.27848  20579120.821    20579124.274
  22236453.714    -7432989.77449  -5582745.73847  22236453.254    22236457.583
                   -333921.19249   -190492.53543
  24160048.559     -971105.59249   -397614.23144  24160048.096    24160052.578
  21690004.830   -11850389.83749  -9213411.68647  21690003.823    21690009.267
 04  1 25  2 34 30.0000000  0 11G22G23G 3G18G16G26G21G 6G 2G29G15
  21683430.167   -14410610.00449 -11207316.46747  21683429.724    21683432.988
  22817944.747    -5621156.17949  -4368388.17946  22817943.866    22817951.304
  23661028.606    -2025290.76049  -1304664.11745  23661027.722    23661033.740
  20348611.129   -19052421.92949 -14817129.37548  20348610.440    20348614.273
  23362920.804    -4349359.11249  -3377148.09745  23362919.767    23362923.167
  22434291.179    -9948518.44949  -7706194.44746  22434291.023    22434295.611
  20580510.127   -18140680.79749 -13673298.46248  20580509.370    20580512.808
  22253742.504    -7342135.97749  -5511950.58246  22253742.065    22253746.508
                   -336921.15049   -192825.78743
  24174685.528     -894185.28649   -337676.34744  24174685.334    24174689.944
  21678492.130   -11910889.29649  -9260554.08747  21678491.133    21678496.612
 04  1 25  2 35  0.0000000  0 11G22G23G 3G18G16G26G21G 6G 2G29G15
  21671830.285   -14471567.48649 -11254815.78947  21671829.855    21671833.138
  22804278.895    -5692970.79349  -4424347.57046  22804278.067    22804285.448
  23643510.530    -2117347.41449  -1376396.49645  23643509.699    23643515.725
  20348344.006   -19053825.70149 -14818223.22248  20348343.295    20348347.111
  23370613.078    -4308937.38649  -3345650.67145  23370611.663    23370615.193
  22445774.331    -9888174.54349  -7659173.21546  22445774.194    22445778.726
  20581944.864   -18133141.18649 -13667423.43148  20581944.087    20581947.581
  22271089.917    -7250974.88949  -5440915.99746  22271089.446    22271093.856
                   -339509.85049   -165377.33943
  24189391.533     -816902.07449   -277455.67444  24189391.602    24189396.452
  21667003.239   -11971263.46149  -9307598.86847  21667002.217    21667007.836
 04  1 25  2 35 30.0000000  0 11G22G23G 3G18G16G26G21G 6G 2G29G15
  21660297.686   -14532171.06349 -11302039.33547  21660297.298    21660300.647
  22790668.624    -5764493.53549  -4480079.52246  22790667.819    22790675.086
  23626037.749    -2209165.43149  -1447942.93145  23626037.065    23626043.205
  20348154.983   -19054819.00149 -14818997.21348  20348154.256    20348158.046
  23378384.981    -4268096.64749  -3313826.73745  23378383.512    23378387.100
  22457365.403    -9827263.80649  -7611710.28946  22457365.219    22457369.743
  20583425.954   -18125358.05349 -13661358.63248  20583425.151    20583428.707
  22288495.377    -7159508.40249  -5369643.41746  22288494.966    22288499.286
                   -341687.87149   -167076.04843
  24204166.705     -739257.99749   -216953.80944  24204166.685    24204171.714
  21655538.153   -12031511.44349  -9354545.31647  21655537.254    21655542.990
 04  1 25  2 36  0.0000000  0 11G22G23G 3G18G16G26G21G 6G 2G29G15
  21648832.851   -14592419.27249 -11348985.96947  21648832.425    21648835.792
  22777114.301    -5835722.96849  -4535582.90846  22777113.492    22777120.515
  23608611.122    -2300741.17949  -1519300.57745  23608610.490    23608617.152
  20348044.055   -19055401.74949 -14819451.29048  20348043.353    20348047.103
  23386235.795    -4226838.07749  -3281677.20345  23386234.637    23386238.740
  22469063.926    -9765787.60049  -7563806.74746  22469063.761    22469068.306
  20584953.629   -18117329.82249 -13655102.85348  20584952.874    20584956.411
  22305958.737    -7067737.51149  -5298133.64646  22305958.336    22305962.659
                   -343455.03449   -168455.19143
  24219010.646     -661254.38849   -156171.80444  24219010.467    24219015.426
  21644097.810   -12091631.50549  -9401392.08747  21644096.873    21644102.566
 04  1 25  2 36 30.0000000  0 11G22G23G 3G18G16G26G21G 6G 2G29G15
  21637435.325   -14652314.10749 -11395657.25347  21637434.846    21637438.196
  22763615.389    -5906660.87749  -4590859.13646  22763614.577    22763621.326
  23591230.416    -2392074.79749  -1590469.53645  23591229.873    23591236.980
  20348010.604   -19055577.35049 -14819588.11548  20348009.916    20348013.658
  23394165.342    -4185166.21349  -3249205.61045  23394164.527    23394168.737
  22480869.212    -9703750.39949  -7515466.05546  22480869.048    22480873.584
  20586527.680   -18109058.25649 -13648657.46148  20586526.924    20586530.434
  22323479.176    -6975666.51749  -5226390.03346  22323478.817    22323483.219
                   -344814.36549   -143093.69943
  24233922.409     -582895.87449    -95113.18844  24233922.173    24233926.193
  21632681.393   -12151625.50549  -9448140.62947  21632680.387    21632686.035
 04  1 25  2 37  0.0000000  0 11G22G23G 3G18G16G26G21G 6G 2G29G15
  21626105.931   -14711850.23949 -11442049.02647  21626105.449    21626108.829
  22750172.890    -5977301.83649  -4645903.97846  22750172.024    22750178.585
  23573897.145    -2483158.90749  -1661444.07745  23573896.672    23573903.913
  20348055.322   -19055342.32949 -14819404.96748  20348054.625    20348058.324
  23402174.237    -4143078.66549  -3216410.10245  23402173.482    23402177.843
  22492781.754    -9641149.43549  -7466686.07746  22492781.552    22492786.106
  20588149.112   -18100537.66849 -13642018.02248  20588148.332    20588151.813
  22341057.369    -6883292.57449  -5154410.33746  22341056.959    22341061.483
                   -345761.63349   -143832.58943
  24248901.445     -504179.96549    -33776.14244  24248901.106    24248905.097
  21621289.969   -12211487.62149  -9494786.41247  21621288.963    21621294.560
 04  1 25  2 37 30.0000000  0 11G22G23G 3G18G16G26G21G 6G 2G29G15
  21614843.273   -14771035.50449 -11488167.40047  21614842.846    21614846.230
  22736785.174    -6047653.46649  -4700723.36246  22736784.452    22736790.978
  23556610.708    -2573999.03349  -1732228.52045  23556610.188    23556617.330
  20348176.546   -19054704.95449 -14818908.30248  20348175.861    20348179.511
  23410260.667    -4100586.05549  -3183299.00445  23410259.654    23410263.978
  22504799.454    -9577995.27549  -7417475.04946  22504799.282    22504803.926
  20589816.521   -18091775.65849 -13635190.46648  20589815.717    20589819.174
  22358690.961    -6790626.04249  -5082202.66146  22358690.731    22358695.444
                   -346305.81649   -144257.60643
  24263945.983     -425117.24348     27831.15244  24263945.632    24263950.130
  21609922.206   -12271225.11649  -9541335.08847  21609921.223    21609926.901
 04  1 25  2 38  0.0000000  0 11G22G23G 3G18G16G26G21G 6G 2G29G15
  21603649.826   -14829857.20549 -11534002.46847  21603649.445    21603652.801
  22723455.047    -6117702.85249  -4755307.22946  22723454.340    22723460.949
  23539373.700    -2664580.32049  -1802811.26145  23539373.082    23539380.219
  20348376.366   -19053654.63149 -14818089.85148  20348375.723    20348379.345
  23418425.795    -4057678.36949  -3149864.45245  23418424.731    23418429.078
  22516924.654    -9514277.64549  -7367824.93346  22516924.378    22516928.929
  20591532.230   -18082759.60549 -13628164.95548  20591531.419    20591534.865
  22376382.426    -6697656.60349  -5009758.94446  22376382.163    22376387.054
                   -156018.18649   -119677.18443
  24279058.368     -345697.75849     89716.43844  24279058.276    24279063.496
  21598580.686   -12330825.12149  -9587776.61147  21598579.704    21598585.411
 04  1 25  2 38 30.0000000  0 11G22G23G 3G18G16G26G21G 6G 2G29G15
  21592524.053   -14888323.80349 -11579560.83447  21592523.607    21592526.938
  22710180.572    -6187458.37049  -4809662.11546  22710180.160    22710186.837
  23522184.630    -2754908.94049  -1873197.11845  23522184.091    23522191.110
  20348652.957   -19052201.16149 -14816957.26648  20348652.291    20348655.941
  23426667.681    -4014366.63549  -3116115.04045  23426666.706    23426671.060
  22529154.786    -9450007.83549  -7317744.55746  22529154.511    22529159.038
  20593294.731   -18073497.87449 -13620948.00448  20593293.879    20593297.315
  22394129.504    -6604394.96449  -4937087.56446  22394129.237    22394134.344
                   -155742.45249   -119463.82843
  24294236.865     -265932.62548    151871.09144  24294237.171    24294242.234
  21587263.943   -12390295.79949  -9634117.36547  21587262.949    21587268.517
 04  1 25  2 39  0.0000000  0 10G22G23G 3G18G16G26G21G 6G29G15
  21581465.908   -14946434.83749 -11624842.14547  21581465.492    21581468.772
  22696962.575    -6256919.46749  -4863787.59046  22696962.020    22696968.797
  23505044.287    -2844982.81449  -1943384.50345  23505043.627    23505050.607
  20349006.064   -19050345.43949 -14815511.23548  20349005.387    20349009.039
  23434985.950    -3970653.14449  -3082052.57045  23434985.157    23434989.657
  22541489.530    -9385187.92449  -7267235.53646  22541489.332    22541493.981
  20595104.135   -18063989.22849 -13613538.65748  20595103.327    20595106.718
  22411931.850    -6510843.12049  -4864190.03546  22411931.552    22411936.850
  24309481.290     -185824.24349    214293.23544  24309481.695    24309486.379
  21575971.957   -12449636.48649  -9680356.83147  21575970.916    21575976.331
 04  1 25  2 39 30.0000000  0 10G22G23G 3G18G16G26G21G 6G29G15
  21570475.491   -15004189.96649 -11669846.11247  21570475.031    21570478.250
  22683800.699    -6326085.51649  -4917683.16546  22683800.132    22683806.882
  23487952.766    -2934799.24749  -2013371.26545  23487952.149    23487959.105
  20349435.565   -19048088.49049 -14813752.56248  20349434.859    20349438.513
  23443380.288    -3926540.27549  -3047678.91045  23443379.606    23443384.295
  22553928.506    -9319820.22349  -7216299.66046  22553928.310    22553933.084
  20596960.620   -18054233.43349 -13605936.72348  20596959.782    20596963.102
  22429789.069    -6417003.21549  -4791068.05046  22429788.700    22429794.183
  24324790.645     -105374.80248    276981.15644  24324790.997    24324795.288
  21564704.679   -12508846.33649  -9726494.34447  21564703.666    21564709.129
 04  1 25  2 40  0.0000000  0 10G22G23G 3G18G16G26G21G 6G29G15
  21559552.698   -15061589.42649 -11714572.93447  21559552.292    21559555.439
  22670695.205    -6394956.44049  -4971348.75646  22670694.455    22670701.072
  23470910.578    -3024356.08549  -2083155.73345  23470910.057    23470917.106
  20349941.150   -19045431.69749 -14811682.31948  20349940.429    20349944.112
  23451850.238    -3882030.89049  -3012996.26945  23451849.481    23451854.380
  22566471.281    -9253907.43749  -7164939.03246  22566471.087    22566475.990
  20598864.232   -18044229.82549 -13598141.68948  20598863.404    20598866.662
  22447700.590    -6322877.52849  -4717723.37646  22447700.201    22447705.821
  24340163.987      -24586.89148    339932.74744  24340164.215    24340168.806
  21553462.435   -12567924.77249  -9772529.45047  21553461.459    21553466.945
 04  1 25  2 40 30.0000000  0 10G22G23G 3G18G16G26G21G 6G29G15
  21548698.269   -15118630.13449 -11759020.20447  21548697.797    21548700.950
  22657646.326    -6463529.04949  -5024781.89646  22657645.529    22657651.930
  23453918.542    -3113648.15149  -2152733.89845  23453918.001    23453925.328
  20350523.062   -19042373.44849 -14809299.24948  20350522.367    20350526.039
  23460395.802    -3837124.63649  -2978004.37745  23460395.036    23460399.791
  22579117.797    -9187449.19949  -7113153.39546  22579117.602    22579122.644
  20600815.442   -18033975.78649 -13590151.50948  20600814.633    20600817.912
  22465666.648    -6228465.50549  -4644155.58246  22465666.243    22465671.968
  24355601.414       56539.45248    403148.01644  24355601.269    24355607.058
  21542245.868   -12626868.22049  -9818459.36947  21542244.884    21542250.393
 04  1 25  2 41  0.0000000  0 11G22G23G 3G18G16G26G21G 6G 2G29G15
  21537911.525   -15175314.22449 -11803189.59447  21537911.115    21537914.331
  22644653.832    -6531805.30849  -5077984.11346  22644652.973    22644659.187
  23436976.901    -3202675.36649  -2222105.69145  23436976.489    23436983.941
  20351180.735   -19038917.41749 -14806606.22648  20351180.021    20351183.695
  23469015.872    -3791826.23349  -2942706.92945  23469015.149    23469019.793
  22591867.115    -9120450.29949  -7060946.45946  22591866.916    22591872.102
  20602814.178   -18023472.63849 -13581967.22648  20602813.349    20602816.622
  22483686.335    -6133771.56749  -4570368.11046  22483685.908    22483691.791
                   -148310.78649    -93462.33243
  24371102.823      137999.52148    466623.38144  24371102.155    24371108.194
  21531054.734   -12685678.40849  -9864285.45547  21531053.702    21531059.216
 04  1 25  2 41 30.0000000  0 10G22G23G 3G18G16G26G21G 6G29G15
  21527193.158   -15231639.45249 -11847079.34747  21527192.725    21527196.000
  22631717.898    -6599782.88149  -5130953.59546  22631717.268    22631723.231
  23420086.701    -3291433.37449  -2291267.72445  23420086.152    23420093.863
  20351914.213   -19035062.76949 -14803602.59048  20351913.524    20351917.270
  23477710.317    -3746136.24049  -2907104.32945  23477709.600    23477714.475
  22604719.279    -9052911.15149  -7008318.55446  22604719.059    22604724.324
  20604860.768   -18012717.87449 -13573586.87848  20604859.922    20604863.192
  22501759.465    -6038796.10149  -4496361.27446  22501759.106    22501765.115
  24386668.016      219792.92648    530358.53744  24386667.661    24386672.424
  21519889.387   -12744352.70249  -9910005.64747  21519888.342    21519893.900
 04  1 25  2 42  0.0000000  0 10G22G23G 3G18G16G26G21G 6G29G15
  21516543.032   -15287605.52249 -11890689.23147  21516542.638    21516545.992
  22618839.169    -6667461.42349  -5183690.07046  22618838.464    22618844.266
  23403248.064    -3379919.81749  -2360218.13245  23403247.519    23403255.439
  20352723.336   -19030810.49949 -14800289.11348  20352722.683    20352726.421
  23486478.892    -3700057.12049  -2871198.54145  23486478.201    23486483.173
  22617673.868    -8984834.20449  -6955271.57746  22617673.660    22617678.937
  20606955.214   -18001710.90949 -13565009.99748  20606954.393    20606957.699
  22519885.875    -5943541.21149  -4422136.69346  22519885.508    22519891.597
  24402296.205      301917.37448    594351.65944  24402295.632    24402300.039
  21508749.928   -12802890.30649  -9955619.31847  21508748.953    21508754.540
 04  1 25  2 42 30.0000000  0 10G22G23G 3G18G16G26G21G 6G29G15
  21505960.391   -15343217.25049 -11934023.00747  21505960.024    21505963.382
  22606016.341    -6734845.49449  -5236197.09546  22606015.661    22606021.320
  23386460.819    -3468137.17349  -2428958.86645  23386460.251    23386468.471
  20353606.999   -19026166.81449 -14796670.63948  20353606.322    20353610.067
  23495319.710    -3653596.51349  -2834995.45145  23495319.309    23495324.446
  22630729.352    -8916226.85549  -6901811.30246  22630729.063    22630734.416
  20609096.848   -17990456.24649 -13556240.12148  20609096.030    20609099.371
  22538064.240    -5848013.92949  -4347699.86346  22538063.803    22538069.853
  24417985.448      384365.15948    658596.70844  24417984.662    24417988.872
  21497635.728   -12861295.57049 -10001129.87647  21497634.787    21497640.309
 04  1 25  2 43  0.0000000  0 10G22G23G 3G18G16G26G21G 6G29G15
  21495446.970   -15398465.43449 -11977073.50147  21495446.562    21495449.942
  22593251.349    -6801925.68049  -5288467.32546  22593250.698    22593256.262
  23369726.893    -3556074.02349  -2497481.04145  23369726.395    23369734.625
  20354566.557   -19021123.96249 -14792741.12548  20354565.927    20354569.672
  23504234.687    -3606747.88249  -2798490.00345  23504234.158    23504239.602
  22643886.932    -8847082.71449  -6847932.73946  22643886.733    22643892.175
  20611287.455   -17978944.43349 -13547269.86648  20611286.613    20611289.977
  22556295.626    -5752207.49649  -4273045.50646  22556295.142    22556301.224
  24433737.316      467142.73048    723098.70844  24433737.244    24433740.944
  21486548.533   -12919558.81349 -10046529.75847  21486547.583    21486553.161
 04  1 25  2 43 30.0000000  0 10G22G23G 3G18G16G26G21G 6G29G15
  21485001.811   -15453354.74249 -12019844.36047  21485001.413    21485004.834
  22580543.340    -6868706.60049  -5340504.36546  22580542.656    22580548.218
  23353045.758    -3643732.58749  -2565786.36345  23353045.463    23353053.654
  20355600.876   -19015688.35649 -14788505.57348  20355600.241    20355604.031
  23513222.406    -3559518.75949  -2761688.11845  23513221.506    23513227.094
  22657145.362    -8777409.21549  -6793641.69546  22657145.145    22657150.582
  20613526.183   -17967179.86249 -13538102.66048  20613525.333    20613528.724
  22574578.781    -5656128.82349  -4198179.02946  22574578.285    22574584.369
  24449550.499      550242.78748    787852.02844  24449550.438    24449554.720
  21475487.658   -12977684.05649 -10091822.12347  21475486.680    21475492.220
 04  1 25  2 44  0.0000000  0 10G22G23G 3G18G16G26G21G 6G29G15
  21474624.887   -15507885.39649 -12062335.74147  21474624.527    21474628.048
  22567892.298    -6935188.06149  -5392308.06146  22567891.564    22567897.218
  23336418.211    -3731110.79049  -2633873.22645  23336417.914    23336426.005
  20356709.773   -19009860.88749 -14783964.66048  20356709.144    20356712.944
  23522281.683    -3511911.93249  -2724591.88345  23522280.684    23522286.453
  22670504.000    -8707208.84749  -6738940.09946  22670503.737    22670509.250
  20615813.092   -17955161.86249 -13528737.96448  20615812.250    20615815.611
  22592913.111    -5559780.39749  -4123102.33246  22592912.643    22592918.781
  24465424.145      633662.90948    852854.66344  24465424.111    24465429.757
  21464453.122   -13035670.59749 -10137006.40047  21464452.139    21464457.645
 04  1 25  2 44 30.0000000  0 10G22G23G 3G18G16G26G21G 6G29G15
  21464316.384   -15562056.96249 -12104547.31647  21464316.023    21464319.524
  22555298.413    -7001369.69149  -5443878.12146  22555297.562    22555303.396
  23319844.429    -3818206.18149  -2701739.71445  23319844.088    23319851.968
  20357893.057   -19003642.78049 -14779119.36048  20357892.394    20357896.248
  23531412.220    -3463929.64249  -2687203.06745  23531411.373    23531417.227
  22683962.515    -8636484.13049  -6683829.90846  22683962.180    22683967.756
  20618148.326   -17942889.87449 -13519175.36548  20618147.513    20618150.821
  22611298.249    -5463164.33349  -4047817.10846  22611297.815    22611304.160
  24481359.020      717400.49248    918104.76344  24481359.276
  21453445.161   -13093517.48649 -10182081.85547  21453444.190    21453449.654
 04  1 25  2 45  0.0000000  0 10G22G23G 3G18G16G26G21G 6G29G15
  21454076.337   -15615868.86849 -12146478.64347  21454075.952    21454079.412
  22542761.593    -7067250.66349  -5495213.90346  22542760.732    22542766.739
  23303325.401    -3905015.75249  -2769383.50645  23303324.974    23303332.407
  20359150.411   -18997034.94749 -14773970.38248  20359149.764    20359153.685
  23540613.538    -3415574.14249  -2649523.44245  23540613.162    23540619.233
  22697520.297    -8565237.06349  -6628312.71946  22697520.034    22697525.784
  20620532.146   -17930362.87449 -13509414.06248  20620531.333    20620534.587
  22629734.085    -5366282.22149  -3972324.57146  22629733.582    22629740.132
  24497353.987      801453.58348    983600.69144  24497353.467
  21442463.949   -13151223.65749 -10227047.67347  21442462.992    21442468.490
 04  1 25  2 45 30.0000000  0 10G22G23G 3G18G16G26G21G 6G29G15
  21443905.028   -15669319.57049 -12188128.50947  21443904.624    21443908.027
  22530282.394    -7132829.23449  -5546314.05046  22530281.451    22530287.576
  23286861.448    -3991535.59349  -2836801.52845  23286861.001    23286868.084
  20360482.004   -18990036.95449 -14768517.38148  20360481.392    20360485.380
  23549886.284    -3366846.50949  -2611553.85145  23549885.664    23549892.125
  22711177.222    -8493469.00949  -6572389.56846  22711177.009    22711182.820
  20622964.780   -17917579.08349 -13499452.66248  20622963.999    20622967.226
  22648220.291    -5269134.88749  -3896625.36346  22648219.834    22648226.722
  24513409.380      885821.26548   1049341.73244  24513408.439    24513414.066
  21431509.951   -13208786.74049 -10271901.98947  21431509.005    21431514.519
 04  1 25  2 46  0.0000000  0 10G22G23G 3G18G16G26G21G 6G29G15
  21433801.313   -15722414.85649 -12229501.43648  21433800.938    21433804.335
  22517859.547    -7198111.07149  -5597182.99246  22517858.691    22517864.851
  23270451.875    -4077769.18349  -2903996.49745  23270451.422    23270458.162
  20361886.505   -18982656.07149 -14762766.02848  20361885.900    20361889.920
  23559228.357    -3317755.13849  -2573300.82745  23559227.456    23559234.156
  22724931.846    -8421188.28549  -6516066.91446  22724931.547    22724937.288
  20625445.355   -17904543.54649 -13489295.09448  20625444.572    20625447.717
  22666755.545    -5171730.45749  -3820725.81246  22666755.102    22666762.216
  24529523.057      970494.85848   1115321.12744  24529522.352    24529526.854
  21420582.284   -13266211.86949 -10316648.82047  21420581.290    21420586.725
 04  1 25  2 46 30.0000000  0 10G22G23G 3G18G16G26G21G 6G29G15
  21423766.995   -15775145.92949 -12270590.55748  21423766.545    21423769.936
  22505494.957    -7263087.10349  -5647813.63346  22505494.101    22505500.259
  23254098.424    -4163705.27049  -2970959.60445  23254098.083    23254104.830
  20363365.404   -18974884.74849 -14756710.43448  20363364.766    20363368.757
  23568640.552    -3268294.07249  -2534759.73045  23568639.570    23568646.150
  22738785.074    -8348388.78849  -6459340.03646  22738784.688    22738790.448
  20627975.671   -17891246.75849 -13478933.95148  20627974.880    20627977.951
  22685341.144    -5074062.39449  -3744620.83046  22685340.655    22685347.876
  24545695.764     1055480.69848   1181543.84044  24545695.416
  21409682.608   -13323489.58749 -10361280.78147  21409681.676    21409687.031
 04  1 25  2 47  0.0000000  0 10G22G23G 3G18G16G26G21G 6G29G15
  21413800.765   -15827518.55749 -12311400.37648  21413800.374    21413803.724
  22493187.482    -7327763.11849  -5698210.49246  22493186.621    22493192.786
  23237801.375    -4249347.69749  -3037693.90845  23237800.925    23237807.465
  20364917.215   -18966730.32349 -14750356.31648  20364916.532    20364920.465
  23578121.424    -3218472.03349  -2495937.36445  23578120.437    23578126.884
  22752735.177    -8275079.22749  -6402215.71246  22752734.900    22752740.780
  20630554.493   -17877694.66149 -13468373.86448  20630553.725    20630556.790
  22703975.175    -4976139.10749  -3668316.97346  22703974.805    22703982.121
  24561925.596     1140770.34648   1248003.29944  24561925.794
  21398809.986   -13380625.18149 -10405801.99947  21398809.083    21398814.380
 04  1 25  2 47 30.0000000  0 10G22G23G 3G18G16G26G21G 6G29G15
  21403903.466   -15879529.66449 -12351928.48548  21403903.026    21403906.307
  22480937.699    -7392135.55949  -5748370.81946  22480936.821    22480943.052
  23221561.355    -4334690.64549  -3104194.85845  23221560.947    23221567.135
  20366542.199   -18958190.83949 -14743702.15648  20366541.537    20366545.454
  23587670.971    -3168288.16849  -2456833.06545  23587670.046    23587676.502
  22766782.558    -8201258.93849  -6344693.42146  22766782.215    22766788.046
  20633182.762   -17863883.21449 -13457611.69148  20633181.955    20633185.108
  22722658.376    -4877959.45449  -3591813.35146  22722657.911    22722665.122
                   1226364.48649   1314700.01744
  21387965.320   -13437614.45849 -10450209.20847  21387964.391    21387969.498
 04  1 25  2 48  0.0000000  0 10G22G23G 3G18G16G26G21G 6G29G15
  21394074.084   -15931183.23449 -12392178.00448  21394073.701    21394076.921
  22468745.017    -7456208.25549  -5798297.56646  22468744.112    22468750.411
  23205377.858    -4419735.76649  -3170463.70945  23205377.421    23205383.492
  20368239.556   -18949271.38249 -14736751.91848  20368238.892    20368242.771
  23597287.788    -3117749.47049  -2417452.21345  23597287.168    23597293.703
  22780925.745    -8126934.52249  -6286778.29946  22780925.514    22780931.485
  20635859.685   -17849815.81749 -13446650.07648  20635858.872    20635862.060
  22741389.173    -4779529.69149  -3515114.85046  22741388.634    22741395.735
                   1312256.59948   1268122.94743
  21377147.810   -13494460.81249 -10494505.04447  21377146.869    21377151.866
 04  1 25  2 48 30.0000000  0 10G22G23G 3G18G16G26G21G 6G29G15
  21384313.843   -15982474.03249 -12432144.83248  21384313.428    21384316.564
  22456610.259    -7519976.15849  -5847986.82246  22456609.433    22456615.743
  23189252.188    -4504475.92549  -3236494.92445  23189251.815    23189257.605
  20370009.753   -18939968.87749 -14729503.19148  20370009.076    20370012.941
  23606972.888    -3066853.60549  -2377793.10445  23606972.283    23606978.752
  22795165.243    -8052103.90049  -6228468.71845  22795165.176    22795171.256
  20638586.191   -17835487.77349 -13435485.35048  20638585.415    20638588.557
  22760168.092    -4680847.24449  -3438219.44346  22760167.524    22760174.425
                   1398448.77848   1335264.77743
  21366358.533   -13551158.57149 -10538685.09047  21366357.608    21366362.602
 04  1 25  2 49  0.0000000  0 10G22G23G 3G18G16G26G21G 6G29G15
  21374622.058   -16033405.16049 -12471831.40048  21374621.587    21374624.706
  22444533.081    -7583442.01449  -5897440.71246  22444532.264    22444538.554
  23173184.618    -4588911.50549  -3302288.78345  23173184.168    23173190.008
  20371852.101   -18930287.25249 -14721959.05148  20371851.401    20371855.282
  23616724.875    -3015606.25749  -2337860.11145  23616724.254    23616731.008
  22809500.034    -7976772.85349  -6169769.21545  22809500.102    22809506.299
  20641361.980   -17820900.96349 -13424118.98848  20641361.183    20641364.306
  22778994.095    -4581917.32749  -3361131.19546  22778993.440    22779000.112
                   1484935.77757   1402613.78443
  21355597.216   -13607709.72249 -10582750.89747  21355596.288    21355601.252
 04  1 25  2 49 30.0000000  0  9G22G23G 3G18G16G26G21G 6G15
  21364999.116   -16083974.10049 -12511235.74648  21364998.669    21365001.703
  22432513.965    -7646603.07649  -5946657.10546  22432513.154    22432519.298
  23157176.035    -4673037.63149  -3367841.53945  23157175.421    23157181.105
  20373766.906   -18920224.96249 -14714118.28948  20373766.215    20373770.066
  23626543.887    -2964007.53249  -2297653.31545  23626543.035    23626550.036
  22823930.400    -7900941.33349  -6110679.72046  22823930.401    22823936.684
  20644187.640   -17806051.91249 -13412548.28548  20644186.887    20644190.023
  22797867.187    -4482739.54549  -3283849.83946  22797866.575    22797873.024
  21344864.415   -13664110.85549 -10626699.80347  21344863.528    21344868.348
 04  1 25  2 50  0.0000000  0  9G22G23G 3G18G16G26G21G 6G15
  21355444.884   -16134182.10249 -12550358.84348  21355444.433    21355447.383
  22420552.741    -7709460.45349  -5995636.85846  22420551.855    22420557.841
  23141226.227    -4756853.08349  -3433152.20645  23141225.793    23141231.339
  20375753.569   -18909784.99349 -14705983.23648  20375752.860    20375756.734
  23636429.022    -2912061.52349  -2257175.92945  23636428.001    23636435.203
  22838455.407    -7824613.35049  -6051203.37446  22838455.286    22838461.490
  20647063.123   -17790941.53049 -13400773.95148  20647062.306    20647065.485
  22816786.778    -4383317.50349  -3206378.12246  22816786.177    22816792.357
  21334160.138   -13720362.48249 -10670532.20647  21334159.189    21334163.878
 04  1 25  2 50 30.0000000  0  9G22G23G 3G18G16G26G21G 6G15
  21345959.398   -16184028.67049 -12589200.29948  21345958.930    21345961.897
  22408649.285    -7772013.34449  -6044379.35246  22408648.505    22408654.268
  23125336.117    -4840354.98249  -3498218.54345  23125335.773    23125341.442
  20377811.993   -18898967.97049 -14697554.37248  20377811.285    20377815.152
  23646379.700    -2859770.37949  -2216429.58345  23646378.631    23646385.614
  22853074.466    -7747791.00649  -5991341.79046  22853074.156    22853080.358
  20649988.526   -17775568.80649 -13388795.19548  20649987.691    20649990.856
  22835752.441    -4283653.10049  -3128717.55946  22835751.857    22835757.809
  21323484.469   -13776463.18449 -10714247.00847  21323483.530    21323488.153
 04  1 25  2 51  0.0000000  0  9G22G23G 3G18G16G26G21G 6G15
  21336542.370   -16233515.28949 -12627761.27848  21336541.909    21336544.916
  22396803.627    -7834263.33149  -6092885.80646  22396802.786    22396808.458
  23109505.677    -4923542.74649  -3563040.10045  23109505.453    23109511.251
  20379941.512   -18887777.06249 -14688834.16148  20379940.840    20379944.663
  23656395.001    -2807138.50749  -2175417.71945  23656394.228    23656400.460
  22867786.276    -7670478.88949  -5931098.58846  22867786.081    22867792.456
  20652963.534   -17759935.12749 -13376613.09448  20652962.662    20652965.856
  22854763.467    -4183750.25049  -3050871.19546  22854762.977    22854768.719
  21312837.395   -13832413.84149 -10757844.88347  21312836.500    21312841.045
 04  1 25  2 51 30.0000000  0  9G22G23G 3G18G16G26G21G 6G15
  21327194.023   -16282641.03049 -12666041.04248  21327193.591    21327196.599
  22385015.818    -7896209.07549  -6141155.18247  22385014.956    22385020.548
  23093735.707    -5006412.77549  -3627614.08845  23093735.630    23093741.498
  20382142.248   -18876212.32349 -14679822.65948  20382141.557    20382145.340
  23666474.975    -2754167.35549  -2134141.51744  23666474.421    23666479.851
  22882591.053    -7592678.63049  -5870475.00846  22882591.071    22882597.374
  20655988.474   -17744038.53649 -13364226.13148  20655987.637    20655990.932
  22873819.678    -4083609.97949  -2972839.82246  22873819.164    22873824.826
  21302219.293   -13888212.64549 -10801324.42747  21302218.341    21302222.720
 04  1 25  2 52  0.0000000  0  9G22G23G 3G18G16G26G21G 6G15
  21317914.528   -16331405.47449 -12704039.28148  21317914.085    21317917.024
  22373285.905    -7957850.15549  -6189187.15947  22373285.107    22373290.625
  23078026.824    -5088962.14549  -3691938.19445  23078026.846    23078032.989
  20384413.877   -18864275.05049 -14670520.86748  20384413.164    20384416.926
  23676618.978    -2700859.52049  -2092602.91444  23676618.329    23676623.421
  22897488.625    -7514392.49549  -5809472.83146  22897488.568    22897494.651
  20659063.595   -17727878.10849 -13351633.58148  20659062.789    20659066.186
  22892920.523    -3983234.42349  -2894625.12746  22892920.151    22892925.648
  21291630.187   -13943858.41549 -10844684.72947  21291629.232    21291633.666
 04  1 25  2 52 30.0000000  0  9G22G23G 3G18G16G26G21G 6G15
  21308703.167   -16379811.56249 -12741758.28148  21308702.682    21308705.589
  22361613.489    -8019189.18249  -6236983.76747  22361612.737    22361618.161
  23062378.821    -5171191.57649  -3756013.00045  23062378.808    23062385.397
  20386755.615   -18851968.99949 -14660931.71948  20386754.903    20386758.646
  23686826.380    -2647220.54949  -2050806.34944  23686825.420    23686830.627
  22912477.642    -7435626.34149  -5748096.61446  22912477.462    22912483.320
  20662188.462   -17711456.59349 -13338837.58548  20662187.675    20662191.156
  22912065.195    -3882628.71449  -2816231.07646  22912064.847    22912070.346
  21281069.759   -13999352.92349 -10887927.17147  21281068.853    21281073.454
 04  1 25  2 53  0.0000000  0  9G22G23G 3G18G16G26G21G 6G15
  21299560.904   -16427854.27049 -12779194.11848  21299560.441    21299563.350
  22349999.624    -8080221.01649  -6284540.98447  22349998.808    22350004.139
  23046793.343    -5253093.37149  -3819832.54045  23046793.307    23046799.991
  20389168.328   -18839290.48749 -14651052.34048  20389167.603    20389171.304
  23697097.176    -2593247.80749  -2008749.62944  23697096.062    23697101.216
  22927558.444    -7356377.48149  -5686344.25546  22927558.271    22927563.825
  20665364.196   -17694768.00849 -13325833.48348  20665363.387    20665366.896
  22931254.126    -3781789.81949  -2737655.33446  22931253.854    22931259.484
  21270539.357   -14054690.16149 -10931047.06947  21270538.473    21270543.162
 04  1 25  2 53 30.0000000  0 10G22G23G 3G18G16G26G21G 6G 2G15
  21290487.019   -16475537.22049 -12816349.63848  21290486.603    21290489.551
  22338443.474    -8140948.93649  -6331861.39847  22338442.708    22338447.901
  23031270.177    -5334668.49249  -3883397.51446  23031270.004    23031276.822
  20391650.885   -18826244.41649 -14640886.56148  20391650.164    20391653.864
  23707430.618    -2538947.75049  -1966437.93944  23707428.918    23707433.903
  22942729.855    -7276652.52049  -5624220.90946  22942729.579    22942734.857
  20668590.270   -17677814.87749 -13312623.24448  20668589.423    20668592.927
  22950486.368    -3680723.57349  -2658902.44346  22950486.138    22950491.836
                  -1446181.82249  -1127454.50543
  21260038.512   -14109872.46649 -10974046.24747  21260037.672    21260042.268
 04  1 25  2 54  0.0000000  0 10G22G23G 3G18G16G26G21G 6G 2G15
  21281481.534   -16522861.07549 -12853225.33548  21281481.117    21281484.131
  22326945.015    -8201373.60749  -6378945.50847  22326944.278    22326949.368
  23015809.313    -5415915.59149  -3946706.88946  23015809.177    23015815.957
  20394203.053   -18812832.67449 -14630435.83248  20394202.338    20394206.036
  23717824.993    -2484324.00149  -1923873.98044  23717823.303    23717828.932
  22957991.140    -7196454.94049  -5561729.27946  22957990.773    22957995.780
  20671866.539   -17660597.69049 -13299207.23748  20671865.685    20671869.219
  22969761.219    -3579433.13549  -2579974.85446  22969761.095    22969766.796
                  -1433795.57249  -1117758.58243
  21249567.256   -14164899.91949 -11016924.74847  21249566.361    21249570.821
 04  1 25  2 54 30.0000000  0 10G22G23G 3G18G16G26G21G 6G 2G15
  21272545.231   -16569821.23049 -12889817.63748  21272544.844    21272547.886
  22315505.167    -8261490.12749  -6425789.50247  22315504.438    22315509.494
  23000412.457    -5496827.40349  -4009755.02046  23000412.345    23000418.889
  20396825.421   -18799051.95149 -14619697.59448  20396824.732    20396828.409
  23728281.795    -2429374.51549  -1881056.21344  23728280.045    23728285.213
  22973342.698    -7115782.65249  -5498867.76146  22973342.376    22973347.140
  20675194.031   -17643110.61149 -13285580.93448  20675193.242    20675196.884
  22989079.331    -3477915.99649  -2500870.61546  22989079.211    22989084.857
                  -1421033.95849  -1107761.16843
  21239126.511   -14219766.78549 -11059678.13147  21239125.550    21239129.970
 04  1 25  2 55  0.0000000  0 10G22G23G 3G18G16G26G21G 6G 2G15
  21263677.311   -16616422.15749 -12926130.01848  21263676.943    21263680.020
  22304123.000    -8321303.04749  -6472396.92847  22304122.347    22304127.420
  22985078.993    -5577406.21549  -4072543.65446  22985078.742    22985085.292
  20399516.816   -18784908.35749 -14608676.59548  20399516.139    20399519.854
  23738798.901    -2374106.60449  -1837990.30744  23738797.242    23738802.525
  22988782.855    -7034643.21649  -5435642.24746  22988782.607    22988787.510
  20678572.110   -17625358.55049 -13271748.14648  20678571.283    20678575.042
  23008439.229    -3376179.09749  -2421595.14446  23008439.199    23008444.716
                  -1407903.04249  -1105993.28543
  21228715.434   -14274476.86349 -11102309.33847  21228714.497    21228718.928
 04  1 25  2 55 30.0000000  0 10G22G23G 3G18G16G26G21G 6G 2G15
  21254877.796   -16662663.88249 -12962162.49148  21254877.405    21254880.500
  22292798.786    -8380812.02049  -6518767.50747  22292798.137    22292803.217
  22969809.239    -5657649.29349  -4135070.68246  22969808.992    22969815.561
  20402277.087   -18770403.07249 -14597373.76048  20402276.408    20402280.106
  23749375.841    -2318522.75349  -1794678.25944  23749374.938    23749379.431
  23004311.495    -6953039.07149  -5372054.60146  23004311.317    23004316.222
  20682000.814   -17607340.20949 -13257707.86648  20681999.980    20682003.814
  23027840.919    -3274224.36349  -2342149.93446  23027840.717    23027846.060
                  -1394403.69149  -1095466.17643
  21218334.507   -14329028.68949 -11144817.23147  21218333.573    21218338.099
 04  1 25  2 56  0.0000000  0 10G22G23G 3G18G16G26G21G 6G 2G15
  21246146.753   -16708545.39949 -12997914.29848  21246146.389    21246149.488
  22281532.653    -8440015.86549  -6564900.33947  22281532.036    22281537.058
  22954604.477    -5737552.89049  -4197333.19346  22954604.068    22954610.369
  20405106.059   -18755536.61549 -14585789.50048  20405105.370    20405109.080
  23760012.026    -2262624.81549  -1751121.36144  23760011.525    23760016.834
  23019928.418    -6870972.03649  -5308106.25946  23019928.195    23019933.117
  20685480.574   -17589053.91849 -13243458.80848  20685479.750    20685483.620
  23047283.807    -3172052.89849  -2262535.83746  23047283.538    23047288.618
                  -1380536.30849  -1084649.69043
  21207984.106   -14383420.23849 -11187200.23547  21207983.149    21207987.780
 04  1 25  2 56 30.0000000  0 10G22G23G 3G18G16G26G21G 6G 2G15
  21237484.419   -16754066.41049 -13033385.17948  21237483.986    21237487.087
  22270324.887    -8498914.10149  -6610795.02047  22270324.046    22270329.067
  22939464.520    -5817114.57049  -4259329.25946  22939464.070    22939470.180
  20408003.657   -18740309.40349 -14573924.12648  20408002.964    20408006.738
  23770707.910    -2206415.24749  -1707321.73144  23770707.612    23770713.020
  23035632.969    -6788444.53449  -5243799.12746  23035632.673    23035637.736
  20689011.464   -17570498.84549 -13229000.29448  20689010.596    20689014.580
  23066767.575    -3069666.81649  -2182754.50146  23066767.109    23066771.950
                  -1366302.11149  -1084613.02143
  21197664.436   -14437650.36249 -11229457.44847  21197663.483    21197668.199
 04  1 25  2 57  0.0000000  0 10G22G23G 3G18G16G26G21G 6G 2G15
  21228890.550   -16799227.11049 -13068575.31048  21228890.185    21228893.240
  22259174.950    -8557506.81549  -6656451.63747  22259174.125    22259179.221
  22924390.126    -5896331.92349  -4321057.02646  22924389.605    22924395.609
  20410969.497   -18724723.21549 -14561779.03548  20410968.860    20410972.682
  23781463.443    -2149896.88749  -1663281.41944  23781462.917    23781468.105
  23051424.378    -6705459.66149  -5179135.59846  23051424.171    23051429.182
  20692593.584   -17551674.38949 -13214331.87548  20692592.766    20692596.815
  23086291.468    -2967068.64549  -2102807.91146  23086291.013    23086295.663
                  -1351702.51249  -1073228.69143
  21187375.595   -14491718.33249 -11271588.31047  21187374.696    21187379.457
 04  1 25  2 57 30.0000000  0 10G22G23G 3G18G16G26G21G 6G 2G15
  21220365.411   -16844027.36349 -13103484.57048  21220364.967    21220367.983
  22248083.139    -8615793.57749  -6701869.86347  22248082.393    22248087.611
  22909381.770    -5975202.28649  -4382514.42046  22909381.235    22909386.876
  20414003.587   -18708778.92249 -14549354.90148  20414002.940    20414006.808
  23792278.467    -2093072.07049  -1619002.38944  23792275.901    23792281.304
  23067302.368    -6622019.78749  -5114117.52646  23067302.239    23067307.212
  20696227.247   -17532579.70449 -13199452.89648  20696226.381    20696230.402
  23105855.212    -2864260.31249  -2022697.55846  23105854.830    23105859.376
                  -1336738.82749  -1061556.84843
  21177117.966   -14545622.78849 -11313591.76247  21177117.027    21177121.773
 04  1 25  2 58  0.0000000  0 10G22G23G 3G18G16G26G21G 6G 2G15
  21211909.017   -16888466.09549 -13138112.11948  21211908.561    21211911.515
  22237049.792    -8673773.25249  -6747048.79547  22237049.141    22237054.449
  22894440.073    -6053721.89049  -4443698.47146  22894439.539    22894445.023
  20417105.791   -18692476.70349 -14536651.86448  20417105.112    20417109.024
  23803151.081    -2035942.51549  -1574485.85744  23803147.513    23803152.975
  23083266.684    -6538126.79249  -5048746.36846  23083266.607    23083271.507
  20699912.498   -17513213.20849 -13184362.11448  20699911.669    20699915.774
  23125458.854    -2761242.88249  -1942424.26546  23125458.428    23125462.917
                  -1321410.87749  -1063557.39443
  21166891.801   -14599361.34249 -11355465.92847  21166890.827    21166895.654
 04  1 25  2 58 30.0000000  0 10G22G23G 3G18G16G26G21G 6G 2G15
  21203520.913   -16932545.87649 -13172459.97048  21203520.448    21203523.362
  22226074.464    -8731448.13749  -6791990.23147  22226073.909    22226079.205
  22879565.026    -6131890.85749  -4504609.29346  22879564.467    22879569.879
  20420275.386   -18675820.43749 -14523672.94348  20420274.698    20420278.635
  23814079.893    -1978513.59849  -1529736.07444  23814076.349    23814081.362
  23099316.286    -6453785.79649  -4983026.12946  23099316.126    23099321.122
  20703649.196   -17493576.49349 -13169060.76448  20703648.402    20703652.558
  23145101.320    -2658021.11749  -1861991.74846  23145100.840    23145105.290
                  -1305722.75549  -1051326.07243
  21156696.878   -14652935.39149 -11397211.91247  21156695.974    21156700.833
 04  1 25  2 59  0.0000000  0 10G22G23G 3G18G16G26G21G 6G 2G15
  21195201.909   -16976262.45349 -13206524.81348  21195201.418    21195204.331
  22215158.211    -8788813.83549  -6836690.74947  22215157.557    22215162.780
  22864757.940    -6209702.63549  -4565241.80046  22864757.388    22864762.684
  20423512.957   -18658807.03549 -14510415.74248  20423512.247    20423516.193
  23825064.454    -1920783.76348  -1484751.78144  23825061.551    23825066.996
  23115451.539    -6368995.41149  -4916955.69846  23115451.385    23115456.197
  20707438.260   -17473664.69849 -13153545.07148  20707437.469    20707441.626
  23164783.002    -2554592.92349  -1781398.39346  23164782.505    23164786.991
                  -1289671.43849  -1038809.84243
  21146534.328   -14706339.66849 -11438825.60347  21146533.460    21146538.362
 04  1 25  2 59 30.0000000  0 10G22G23G 3G18G16G26G21G 6G 2G15
  21186951.081   -17019620.47649 -13240310.25348  21186950.629    21186953.530
  22204299.966    -8845874.85549  -6881153.84547  22204299.204    22204304.318
  22850018.431    -6287159.24549  -4625597.55346  22850017.852    22850022.986
  20426817.329   -18641442.32749 -14496884.78548  20426816.609    20426820.546
  23836103.989    -1862760.22248  -1439538.59644  23836102.901    23836108.063
  23131670.923    -6283763.04149  -4850540.84846  23131670.717    23131675.360
  20711279.009   -17453481.67849 -13137818.04048  20711278.210    20711282.343
  23184502.580    -2450965.06749  -1700649.43846  23184502.293    23184506.625
                  -1273262.91249  -1042698.30043
  21136403.477   -14759577.66149 -11480309.72447  21136402.573    21136407.472
 04  1 25  3  0  0.0000000  0 10G22G23G 3G18G16G26G21G 6G 2G15
  21178769.107   -17062617.07849 -13273814.06948  21178768.614    21178771.475
  22193500.267    -8902628.05049  -6925377.07647  22193499.380    22193504.526
  22835347.532    -6364255.26449  -4685672.32846  22835346.889    22835351.997
  20430188.813   -18623725.04749 -14483079.10048  20430188.105    20430192.075
  23847199.904    -1804442.60748  -1394096.27544  23847199.947    23847205.568
  23147974.289    -6198088.36249  -4783781.37446  23147974.081    23147978.649
  20715172.032   -17433023.51349 -13121876.60248  20715171.255    20715175.401
  23204260.508    -2347136.83049  -1619744.35245  23204260.106    23204264.303
                  -1256495.62849  -1029629.07243
  21126305.007   -14812645.52149 -11521661.27447  21126304.104    21126309.028
 04  1 25  3  0 30.0000000  0 10G22G23G 3G18G16G26G21G 6G 2G15
  21170654.884   -17105257.19249 -13307040.10148  21170654.411    21170657.270
  22182757.984    -8959078.27949  -6969364.24247  22182757.167    22182762.406
  22820744.624    -6440993.06649  -4745467.95946  22820744.067    22820749.173
  20433626.198   -18605661.15349 -14469003.32748  20433625.495    20433629.496
  23858352.378    -1745838.90349  -1348431.04744  23858351.975    23858357.585
  23164360.296    -6111979.23749  -4716683.35946  23164360.138    23164364.567
  20719116.608   -17412294.58249 -13105724.18148  20719115.864    20719119.939
  23224055.051    -2243115.49249  -1538688.78845  23224054.652    23224058.714
                  -1239375.89549  -1016281.84743
  21116238.234   -14865546.93249 -11562883.12847  21116237.313    21116242.176
 04  1 25  3  1  0.0000000  0 10G22G23G 3G18G16G26G21G 6G 2G15
  21162609.363   -17147536.11149 -13339984.69748  21162608.941    21162611.804
  22172074.258    -9015220.57349  -7013111.45947  22172073.563    22172078.895
  22806211.476    -6517365.18449  -4804978.65446  22806210.929    22806216.140
  20437130.271   -18587246.91049 -14454654.56048  20437129.590    20437133.595
  23869559.750    -1686946.87349  -1302541.17244  23869558.908    23869564.007
  23180829.487    -6025433.46049  -4649245.09746  23180829.305    23180833.575
  20723113.804   -17391289.65949 -13089356.70848  20723113.057    20723117.001
  23243886.703    -2138898.29049  -1457480.59345  23243886.462    23243890.553
                  -1221900.26049  -1021777.42943
  21106204.266   -14918275.49049 -11603970.29447  21106203.409    21106208.195
 04  1 25  3  1 30.0000000  0 10G22G23G 3G18G16G26G21G 6G 2G15
  21154631.829   -17189458.27749 -13372651.28748  21154631.364    21154634.259
  22161448.391    -9071059.32649  -7056622.14247  22161447.759    22161453.054
  22791747.197    -6593373.83549  -4864206.10746  22791746.712    22791752.158
  20440699.944   -18568488.18549 -14440037.36048  20440699.228    20440703.259
  23880820.236    -1627773.66549  -1256432.15544  23880819.063    23880824.567
  23197380.313    -5938458.47649  -4581472.39146  23197380.109    23197384.402
  20727162.820   -17370012.39249 -13072777.00448  20727162.024    20727165.874
  23263754.797    -2034491.96249  -1376125.04445  23263754.307    23263758.348
                  -1204074.57349  -1007877.12443
  21096202.520   -14970835.05749 -11644925.77447  21096201.633    21096206.399
 04  1 25  3  2  0.0000000  0 10G22G23G 3G18G16G26G21G 6G 2G15
  21146723.076   -17231018.54649 -13405035.88648  21146722.639    21146725.555
  22150881.377    -9126589.08749  -7099892.05647  22150880.695    22150886.020
  22777353.945    -6669010.98149  -4923144.11146  22777353.456    22777358.870
  20444335.925   -18549380.84949 -14425148.51148  20444335.211    20444339.252
  23892134.463    -1568316.70849  -1210102.07544  23892133.610    23892139.217
  23214013.179    -5851051.73249  -4513363.26146  23214013.073    23214017.353
  20731264.715   -17348456.67249 -13055980.33648  20731263.925    20731267.734
  23283659.194    -1929893.48849  -1294619.76945  23283658.679    23283662.744
                  -1185894.99149   -993687.77943
  21086234.209   -15023218.96149 -11685744.37747  21086233.294    21086238.040
 04  1 25  3  2 30.0000000  0  9G22G23G 3G18G16G26G21G 6G15
  21138882.039   -17272222.53649 -13437142.86547  21138881.667    21138884.660
  22140372.229    -9181815.17049  -7142925.31947  22140371.470    22140376.804
  22763030.658    -6744279.93849  -4981795.16446  22763030.072    22763035.767
  20448036.911   -18529931.72249 -14409993.33148  20448036.229    20448040.319
  23903500.609    -1508584.04448  -1163557.13044  23903499.971    23903505.408
  23230726.771    -5763221.39649  -4444924.04246  23230726.663    23230730.786
  20735418.771   -17326627.04049 -13038970.22148  20735417.999    20735421.775
  23303598.482    -1825110.46249  -1212970.66845  23303598.214    23303602.242
  21076298.581   -15075431.19049 -11726429.20147  21076297.623    21076302.378
 04  1 25  3  3  0.0000000  0  9G22G23G 3G18G16G26G21G 6G15
  21131110.438   -17313062.89049 -13468966.48547  21131109.957    21131112.995
  22129922.196    -9236730.22349  -7185716.22847  22129921.424    22129926.808
  22748779.153    -6819170.89049  -5040151.70946  22748778.669    22748784.554
  20451804.170   -18510134.60849 -14394566.99848  20451803.491    20451807.566
  23914920.273    -1448571.47148  -1116794.11244  23914920.036    23914925.147
  23247521.933    -5674963.10149  -4376151.34545  23247521.775    23247525.561
  20739626.546   -17304515.68749 -13021740.58848  20739625.746    20739629.433
  23323574.001    -1720137.73249  -1131173.76745  23323573.846    23323577.878
  21066397.157   -15127463.42849 -11766973.78347  21066396.197    21066400.971
 04  1 25  3  3 30.0000000  0  9G22G23G 3G18G16G26G21G 6G15
  21123406.834   -17353545.14249 -13500511.06747  21123406.360    21123409.475
  22119530.268    -9291339.55649  -7228268.91747  22119529.568    22119535.008
  22734599.443    -6893686.58049  -5098215.85246  22734598.865    22734604.798
  20455636.341   -18489996.19649 -14378874.71448  20455635.658    20455639.745
  23926391.688    -1388286.80149  -1069818.97344  23926391.761    23926397.514
  23264396.993    -5586284.98249  -4307051.50445  23264396.743    23264400.267
  20743887.117   -17282127.06749 -13004294.90648  20743886.266    20743889.817
  23343584.471    -1614982.92949  -1049235.00645  23343584.144    23343588.244
  21056529.209   -15179319.88849 -11807381.39847  21056528.239    21056533.007
 04  1 25  3  4  0.0000000  0  9G22G23G 3G18G16G26G21G 6G15
  21115770.780   -17393672.38549 -13531779.02547  21115770.316    21115773.437
  22109196.002    -9345646.11049  -7270585.67347  22109195.313    22109200.805
  22720490.931    -6967827.29649  -5155987.79046  22720490.212    22720496.385
  20459532.637   -18469521.00649 -14362920.01048  20459531.951    20459536.038
  23937915.101    -1327735.94649  -1022636.52144  23937914.487    23937920.101
  23281350.737    -5497193.03149  -4237629.23045  23281350.418    23281353.643
  20748199.826   -17259463.69649 -12986635.13448  20748199.011    20748202.482
  23363628.721    -1509651.24749   -967158.39945  23363628.236    23363632.266
  21046694.395   -15231002.34149 -11847653.41947  21046693.368    21046698.125
 04  1 25  3  4 30.0000000  0  9G22G23G 3G18G16G26G21G 6G15
  21108202.324   -17433444.57549 -13562770.31447  21108201.866    21108204.964
  22098919.420    -9399649.60749  -7312666.27647  22098918.757    22098924.273
  22706454.104    -7041590.67549  -5213465.71546  22706453.419    22706459.737
  20463492.852   -18448709.75449 -14346703.43848  20463492.169    20463496.282
  23949488.205    -1266921.32149   -975248.52844  23949486.915    23949493.083
  23298382.460    -5407689.51349  -4167886.23645  23298382.247    23298385.440
  20752565.055   -17236524.41449 -12968760.35848  20752564.269    20752567.646
  23383706.023    -1404144.50849   -884945.40245  23383705.598    23383709.629
  21036892.838   -15282509.35249 -11887788.73347  21036891.833    21036896.561
 04  1 25  3  5  0.0000000  0  9G22G23G 3G18G16G26G21G 6G15
  21100702.133   -17472858.28149 -13593482.25347  21100701.668    21100704.742
  22088701.306    -9453346.31349  -7354507.81347  22088700.591    22088706.109
  22692490.223    -7114970.55449  -5270644.81446  22692489.686    22692496.025
  20467517.443   -18427560.15349 -14330223.20848  20467516.773    20467520.860
  23961111.845    -1205842.27448   -927654.50244  23961110.456    23961116.367
  23315492.589    -5317773.89549  -4097822.13745  23315492.580    23315495.112
  20756983.682   -17213304.61149 -12950666.99148  20756982.870    20756986.161
  23403816.907    -1298461.55849   -802595.06145  23403816.425    23403820.444
  21027125.531   -15333836.00349 -11927783.50447  21027124.615    21027129.325
 04  1 25  3  5 30.0000000  0  9G22G23G 3G18G16G26G21G 6G15
  21093269.769   -17511915.41549 -13623916.35547  21093269.294    21093272.366
  22078541.172    -9506738.28349  -7396111.90147  22078540.444    22078545.926
  22678599.523    -7187966.61649  -5327524.82746  22678598.973    22678605.277
  20471605.822   -18406075.77549 -14313482.12348  20471605.103    20471609.188
  23972784.271    -1144503.46848   -879858.04144  23972782.799    23972789.502
  23332680.454    -5227450.94449  -4027440.61345  23332680.430    23332682.523
  20761455.231   -17189806.55249 -12932356.80848  20761454.394    20761457.618
  23423960.602    -1192606.44949   -720110.61645  23423960.020    23423964.038
  21017392.527   -15384983.02649 -11967638.31347  21017391.593    21017396.317
 04  1 25  3  6  0.0000000  0  9G22G23G 3G18G16G26G21G 6G15
  21085905.288   -17550615.94549 -13654072.58148  21085904.812    21085907.831
  22068439.097    -9559825.15449  -7437478.24647  22068438.318    22068443.830
  22664782.538    -7260576.02549  -5384103.55146  22664781.908    22664788.118
  20475757.627   -18384257.48449 -14296480.84248  20475756.929    20475761.038
  23984505.252    -1082907.27849   -831861.04044  23984504.013    23984511.118
  23349945.537    -5136723.27649  -3956743.71945  23349945.419    23349947.050
  20765980.011   -17166028.39649 -12913828.36648  20765979.232    20765982.390
  23444136.802    -1086581.26849   -637493.61445  23444136.012    23444140.048
  21007693.933   -15435948.90549 -12007351.96247  21007693.057    21007697.808
 04  1 25  3  6 30.0000000  0  9G22G23G 3G18G16G26G21G 6G15
  21078608.366   -17588961.59949 -13683952.28048  21078607.863    21078610.840
  22058394.703    -9612608.57649  -7478608.13747  22058393.962    22058399.485
  22651039.324    -7332797.82649  -5440380.25546  22651038.583    22651044.777
  20479972.437   -18362108.13049 -14279221.59048  20479971.781    20479975.903
  23996273.979    -1021058.10449   -783666.87844  23996273.666    23996280.982
  23367286.532    -5045595.19549  -3885734.88445  23367286.476    23367288.099
  20770558.028   -17141971.22949 -12895082.51348  20770557.222    20770560.316
  23464344.423     -980389.72749   -554747.00345  23464343.642    23464347.716
  20998029.882   -15486734.18049 -12046924.88447  20998028.967    20998033.708
 04  1 25  3  7  0.0000000  0  9G22G23G 3G18G16G26G21G 6G15
  21071379.955   -17626946.90449 -13713551.19448  21071379.497    21071382.441
  22048409.151    -9665082.63549  -7519496.97547  22048408.444    22048413.950
  22637371.169    -7404623.95749  -5496348.63446  22637370.475    22637376.571
  20484251.144   -18339623.41249 -14261701.01848  20484250.459    20484254.591
  24008091.689     -958953.00449   -735273.30945  24008091.704    24008098.899
  23384704.234    -4954064.03449  -3814411.91945  23384704.035    23384706.101
  20775190.267   -17117628.70949 -12876114.30948  20775189.466    20775192.487
  23484584.579     -874028.33849   -471868.03445  23484583.611    23484587.798
  20988401.488   -15537331.79749 -12086351.58247  20988400.573    20988405.294
 04  1 25  3  7 30.0000000  0  9G22G23G 3G18G16G26G21G 6G15
  21064218.959   -17664578.03249 -13742874.12148  21064218.535    21064221.520
  22038481.395    -9717253.47649  -7560149.52747  22038480.637    22038486.169
  22623777.699    -7476057.97549  -5552011.47146  22623777.095    22623783.037
  20488592.241   -18316810.16949 -14243924.45348  20488591.603    20488595.776
  24019957.081     -896600.77849   -686687.18045  24019957.149    24019964.098
  23402197.122    -4862138.49949  -3742781.66445  23402196.807    23402199.152
  20779875.891   -17093005.97649 -12856927.75548  20779875.072    20779877.988
  23504855.283     -767505.29049   -388863.09745  23504854.257    23504858.366
  20978807.904   -15587746.41249 -12125635.67447  20978806.984    20978811.684
 04  1 25  3  8  0.0000000  0  9G22G23G 3G18G16G26G21G 6G15
  21057125.722   -17701853.26249 -13771919.73448  21057125.305    21057128.237
  22028611.603    -9769119.18349  -7600564.32547  22028610.920    22028616.473
  22610259.650    -7547095.86349  -5607365.63146  22610258.984    22610264.885
  20492996.057   -18293668.12649 -14225891.68448  20492995.395    20492999.555
  24031869.809     -834002.34749   -637909.21545  24031869.393    24031876.214
  23419764.956    -4769819.69849  -3670844.93645  23419764.624    23419767.022
  20784615.239   -17068100.51349 -12837520.89248  20784614.371    20784617.343
  23525156.674     -660821.02349   -305732.54545  23525155.694    23525159.795
  20969249.770   -15637974.83349 -12164774.68747  20969248.851    20969253.555
 04  1 25  3  8 30.0000000  0  9G22G23G 3G18G16G26G21G 6G15
  21050099.434   -17738777.22249 -13800691.62048  21050098.980    21050101.790
  22018799.162    -9820684.14949  -7640744.77247  22018798.453    22018804.009
  22596816.446    -7617739.35749  -5662412.47146  22596815.830    22596821.912
  20497461.314   -18270202.86849 -14207607.05148  20497460.673    20497464.755
  24043828.044     -771164.89249   -588944.97245  24043827.384    24043833.756
  23437406.048    -4677114.93649  -3598607.47845  23437405.453    23437408.415
  20789407.625   -17042915.85849 -12817896.47448  20789406.793    20789409.841
  23545487.386     -553982.17649   -222481.50945  23545486.620    23545490.784
  20959726.472   -15688020.26649 -12203771.10747  20959725.524    20959730.174
 04  1 25  3  9  0.0000000  0  9G22G23G 3G18G16G26G21G 6G15
  21043141.264   -17775342.83349 -13829184.27848  21043140.827    21043143.552
  22009045.292    -9871941.11549  -7680685.21847  22009044.536    22009050.146
  22583450.542    -7687978.46449  -5717144.21346  22583449.833    22583455.671
  20501989.231   -18246408.45149 -14189065.93248  20501988.599    20501992.661
  24055832.913     -708083.85549   -539790.94945  24055831.694    24055837.608
  23455121.111    -4584019.56949  -3526065.67145  23455120.808    23455124.148
  20794254.668   -17017444.23149 -12798048.44248  20794253.838    20794256.898
  23565848.491     -446983.63549   -139106.05545  23565847.693    23565852.126
  20950239.615   -15737874.09149 -12242618.21147  20950238.672    20950243.289
 04  1 25  3  9 30.0000000  0  9G22G23G 3G18G16G26G21G 6G15
  21036249.935   -17811556.99549 -13857403.08248  21036249.507    21036252.225
  21999348.656    -9922896.85349  -7720390.95047  21999347.898    21999353.588
  22570160.582    -7757817.89349  -5771564.51546  22570159.824    22570165.609
  20506578.260   -18222293.24149 -14170274.85148  20506577.572    20506581.637
  24067882.360     -644768.99049   -490454.71145  24067880.243    24067886.065
  23472908.987    -4490543.44349  -3453227.12845  23472908.922    23472912.088
  20799155.210   -16991691.71049 -12777981.53748  20799154.365    20799157.397
  23586238.438     -339834.37449    -55613.17445  23586237.498    23586242.136
  20940788.233   -15787541.69249 -12281320.21547  20940787.265    20940791.857
 04  1 25  3 10  0.0000000  0  9G22G23G 3G18G16G26G21G 6G15
  21029426.728   -17847413.06849 -13885342.85448  21029426.301    21029428.988
  21989710.693    -9973544.62549  -7759856.70947  21989709.970    21989715.661
  22556948.203    -7827248.39449  -5825666.16546  22556947.570    22556953.334
  20511229.358   -18197851.39449 -14151229.24648  20511228.672    20511232.725
  24079976.736     -581216.28149   -440933.15745  24079974.141    24079979.830
  23490770.158    -4396682.72549  -3380088.89945  23490770.088    23490773.164
  20804110.682   -16965650.67349 -12757689.81548  20804109.795    20804112.826
  23606657.437     -232529.85949     28000.71945  23606656.871    23606661.646
  20931373.773   -15837015.20449 -12319870.98147  20931372.772    20931377.375
